[[{"header":{"parameterUnit":"m.s-1","parameterCategory":1,"la1":30.6,"la2":28.766,"lo1":-90.7593,"lo2":-88.6598,"dy":0.0162,"dx":0.0183,"nx":116,"ny":114,"refTime":"2023-03-20T18:00:00:Z","depth":0,"parameterNumber":2,"parameterNumberName":"U-component_of_WINDS"},"data":[0.0,0.0,0.0,0.0,0.0,0.0,0.0,0.0,0.0,0.0,0.0,0.0,0.0,0.0,0.0,0.0,0.0,0.0,0.0,0.0,0.0,0.0,0.0,0.0,0.0,0.0,0.0,0.0,0.0,0.0,0.0,0.0,0.0,0.0,0.0,0.0,0.0,0.0,0.0,0.0,0.0,0.0,0.0,0.0,0.0,0.0,0.0,0.0,0.0,0.0,0.0,0.0,0.0,0.0,0.0,0.0,0.0,0.0,0.0,0.0,0.0,0.0,0.0,0.0,0.0,0.0,0.0,0.0,0.0,0.0,0.0,0.0,0.0,0.0,0.0,0.0,0.0,0.0,0.0,0.0,0.0,0.0,0.0,0.0,0.0,0.0,0.0,0.0,0.0,0.0,0.0,0.0,0.0,0.0,0.0,0.0,0.0,0.0,0.0,0.0,0.0,0.0,0.0,0.0,0.0,0.0,0.0,0.0,0.0,0.0,0.0,0.0,0.0,0.0,0.0,0.0,0.0,0.0,0.0,0.0,0.0,0.0,0.0,0.0,0.0,0.0,0.0,0.0,0.0,0.0,0.0,0.0,0.0,0.0,0.0,0.0,0.0,0.0,0.0,0.0,0.0,0.0,0.0,0.0,0.0,0.0,0.0,0.0,0.0,0.0,0.0,0.0,0.0,0.0,0.0,0.0,0.0,0.0,0.0,0.0,0.0,0.0,0.0,0.0,0.0,0.0,0.0,0.0,0.0,0.0,0.0,0.0,0.0,0.0,0.0,0.0,0.0,0.0,0.0,0.0,0.0,0.0,0.0,0.0,0.0,0.0,0.0,0.0,0.0,0.0,0.0,0.0,0.0,0.0,0.0,0.0,0.0,0.0,0.0,0.0,0.0,0.0,0.0,0.0,0.0,0.0,0.0,0.0,0.0,0.0,0.0,0.0,0.0,0.0,0.0,0.0,0.0,0.0,0.0,0.0,0.0,0.0,0.0,0.0,0.0,0.0,0.0,0.0,0.0,0.0,0.0,0.0,0.0,0.0,0.0,0.0,0.0,0.0,0.0,0.0,0.0,0.0,0.0,0.0,0.0,0.0,0.0,0.0,0.0,0.0,0.0,0.0,0.0,0.0,0.0,0.0,0.0,0.0,0.0,0.0,0.0,0.0,0.0,0.0,0.0,0.0,0.0,0.0,0.0,0.0,0.0,0.0,0.0,0.0,0.0,0.0,0.0,0.0,0.0,0.0,0.0,0.0,0.0,0.0,0.0,0.0,0.0,0.0,0.0,0.0,0.0,0.0,0.0,0.0,0.0,0.0,0.0,0.0,0.0,0.0,0.0,0.0,0.0,0.0,0.0,0.0,0.0,0.0,0.0,0.0,0.0,0.0,0.0,0.0,0.0,0.0,0.0,0.0,0.0,0.0,0.0,0.0,0.0,0.0,0.0,0.0,0.0,0.0,0.0,0.0,0.0,0.0,0.0,0.0,0.0,0.0,0.0,0.0,0.0,0.0,0.0,0.0,0.0,0.0,0.0,0.0,0.0,0.0,0.0,0.0,0.0,0.0,0.0,0.0,0.0,0.0,0.0,0.0,0.0,0.0,0.0,0.0,0.0,0.0,0.0,0.0,0.0,0.0,0.0,0.0,0.0,0.0,0.0,0.0,0.0,0.0,0.0,0.0,0.0,0.0,0.0,0.0,0.0,0.0,0.0,0.0,0.0,0.0,0.0,0.0,0.0,0.0,0.0,0.0,0.0,0.0,0.0,0.0,0.0,0.0,0.0,0.0,0.0,0.0,0.0,0.0,0.0,0.0,0.0,0.0,0.0,0.0,0.0,0.0,0.0,0.0,0.0,0.0,0.0,0.0,0.0,0.0,0.0,0.0,0.0,0.0,0.0,0.0,0.0,0.0,0.0,0.0,0.0,0.0,0.0,0.0,0.0,0.0,0.0,0.0,0.0,0.0,0.0,0.0,0.0,0.0,0.0,0.0,0.0,0.0,0.0,0.0,0.0,0.0,0.0,0.0,0.0,0.0,0.0,0.0,0.0,0.0,0.0,0.0,0.0,0.0,0.0,0.0,0.0,0.0,0.0,0.0,0.0,0.0,0.0,0.0,0.0,0.0,0.0,0.0,0.0,0.0,0.0,0.0,0.0,0.0,0.0,0.0,0.0,0.0,0.0,0.0,0.0,0.0,0.0,0.0,0.0,0.0,0.0,0.0,0.0,0.0,0.0,0.0,0.0,0.0,0.0,0.0,0.0,0.0,0.0,0.0,0.0,0.0,0.0,0.0,0.0,0.0,0.0,0.0,0.0,0.0,0.0,0.0,0.0,0.0,0.0,0.0,0.0,0.0,0.0,0.0,0.0,0.0,0.0,0.0,0.0,0.0,0.0,0.0,0.0,0.0,0.0,0.0,0.0,0.0,0.0,0.0,0.0,0.0,0.0,0.0,0.0,0.0,0.0,0.0,0.0,0.0,0.0,0.0,0.0,0.0,0.0,0.0,0.0,0.0,0.0,0.0,0.0,0.0,0.0,0.0,0.0,0.0,0.0,0.0,0.0,0.0,0.0,0.0,0.0,0.0,0.0,0.0,0.0,0.0,0.0,0.0,0.0,0.0,0.0,0.0,0.0,0.0,0.0,0.0,0.0,0.0,0.0,0.0,0.0,0.0,0.0,0.0,0.0,0.0,0.0,0.0,0.0,0.0,0.0,0.0,0.0,0.0,0.0,0.0,0.0,0.0,0.0,0.0,0.0,0.0,0.0,0.0,0.0,0.0,0.0,0.0,0.0,0.0,0.0,0.0,0.0,0.0,0.0,0.0,0.0,0.0,0.0,0.0,0.0,0.0,0.0,0.0,0.0,0.0,0.0,0.0,0.0,0.0,0.0,0.0,0.0,0.0,0.0,0.0,0.0,0.0,0.0,0.0,0.0,0.0,0.0,0.0,0.0,0.0,0.0,0.0,0.0,0.0,0.0,0.0,0.0,0.0,0.0,0.0,0.0,0.0,0.0,0.0,0.0,0.0,0.0,0.0,0.0,0.0,0.0,0.0,0.0,0.0,0.0,0.0,0.0,0.0,0.0,0.0,0.0,0.0,0.0,0.0,0.0,0.0,0.0,0.0,0.0,0.0,0.0,0.0,0.0,0.0,0.0,0.0,0.0,0.0,0.0,0.0,0.0,0.0,0.0,0.0,0.0,0.0,0.0,0.0,0.0,0.0,0.0,0.0,0.0,0.0,0.0,0.0,0.0,0.0,0.0,0.0,0.0,0.0,0.0,0.0,0.0,0.0,0.0,0.0,0.0,0.0,0.0,0.0,0.0,0.0,0.0,0.0,0.0,0.0,0.0,0.0,0.0,0.0,0.0,0.0,0.0,0.0,0.0,0.0,0.0,0.0,0.0,0.0,0.0,0.0,0.0,0.0,0.0,0.0,0.0,0.0,0.0,0.0,0.0,0.0,0.0,0.0,0.0,0.0,0.0,0.0,0.0,0.0,0.0,0.0,0.0,0.0,0.0,0.0,0.0,0.0,0.0,0.0,0.0,0.0,0.0,0.0,0.0,0.0,0.0,0.0,0.0,0.0,0.0,0.0,0.0,0.0,0.0,0.0,0.0,0.0,0.0,0.0,0.0,0.0,0.0,0.0,0.0,0.0,0.0,0.0,0.0,0.0,0.0,0.0,0.0,0.0,0.0,0.0,0.0,0.0,0.0,0.0,0.0,0.0,0.0,0.0,0.0,0.0,0.0,0.0,0.0,0.0,0.0,0.0,0.0,0.0,0.0,0.0,0.0,0.0,0.0,0.0,0.0,0.0,0.0,0.0,0.0,0.0,0.0,0.0,0.0,0.0,0.0,0.0,0.0,0.0,0.0,0.0,0.0,0.0,0.0,0.0,0.0,0.0,0.0,0.0,0.0,0.0,0.0,0.0,0.0,0.0,0.0,0.0,0.0,0.0,0.0,0.0,0.0,0.0,0.0,0.0,0.0,0.0,0.0,0.0,0.0,0.0,0.0,0.0,0.0,0.0,0.0,0.0,0.0,0.0,0.0,0.0,0.0,0.0,0.0,0.0,0.0,0.0,0.0,0.0,0.0,0.0,0.0,0.0,0.0,0.0,0.0,0.0,0.0,0.0,0.0,0.0,0.0,0.0,0.0,0.0,0.0,0.0,0.0,0.0,0.0,0.0,0.0,0.0,0.0,0.0,0.0,0.0,0.0,0.0,0.0,0.0,0.0,0.0,0.0,0.0,0.0,0.0,0.0,0.0,0.0,0.0,0.0,0.0,0.0,0.0,0.0,0.0,0.0,0.0,0.0,0.0,0.0,0.0,0.0,0.0,0.0,0.0,0.0,0.0,0.0,0.0,0.0,0.0,0.0,0.0,0.0,0.0,0.0,0.0,0.0,0.0,0.0,0.0,0.0,0.0,0.0,0.0,0.0,0.0,0.0,0.0,0.0,0.0,0.0,0.0,0.0,0.0,0.0,0.0,0.0,0.0,0.0,0.0,0.0,0.0,0.0,0.0,0.0,0.0,0.0,0.0,0.0,0.0,0.0,0.0,0.0,0.0,0.0,0.0,0.0,0.0,0.0,0.0,0.0,0.0,0.0,0.0,0.0,0.0,0.0,0.0,0.0,0.0,0.0,0.0,0.0,0.0,0.0,0.0,0.0,0.0,0.0,0.0,0.0,0.0,0.0,0.0,0.0,0.0,0.0,0.0,0.0,0.0,0.0,0.0,0.0,0.0,0.0,0.0,0.0,0.0,0.0,0.0,0.0,0.0,0.0,0.0,0.0,0.0,0.0,0.0,0.0,0.0,0.0,0.0,0.0,0.0,0.0,0.0,0.0,0.0,0.0,0.0,0.0,0.0,0.0,0.0,0.0,0.0,0.0,0.0,0.0,0.0,0.0,0.0,0.0,0.0,0.0,0.0,0.0,0.0,0.0,0.0,0.0,0.0,0.0,0.0,0.0,0.0,0.0,0.0,0.0,0.0,0.0,0.0,0.0,0.0,0.0,0.0,0.0,0.0,0.0,0.0,0.0,0.0,0.0,0.0,0.0,0.0,0.0,0.0,0.0,0.0,0.0,0.0,0.0,0.0,0.0,0.0,0.0,0.0,0.0,0.0,0.0,0.0,0.0,0.0,0.0,0.0,0.0,0.0,0.0,0.0,0.0,0.0,0.0,0.0,0.0,0.0,0.0,0.0,0.0,0.0,0.0,0.0,0.0,0.0,0.0,0.0,0.0,0.0,0.0,0.0,0.0,0.0,0.0,0.0,0.0,0.0,0.0,0.0,0.0,0.0,0.0,0.0,0.0,0.0,0.0,0.0,0.0,0.0,0.0,0.0,0.0,0.0,0.0,0.0,0.0,0.0,0.0,0.0,0.0,0.0,0.0,0.0,0.0,0.0,0.0,0.0,0.0,0.0,0.0,0.0,0.0,0.0,0.0,0.0,0.0,0.0,0.0,0.0,0.0,0.0,0.0,0.0,0.0,0.0,0.0,0.0,0.0,0.0,0.0,0.0,0.0,0.0,0.0,0.0,0.0,0.0,0.0,0.0,0.0,0.0,0.0,0.0,0.0,0.0,0.0,0.0,0.0,0.0,0.0,0.0,0.0,0.0,0.0,0.0,0.0,0.0,0.0,0.0,0.0,0.0,0.0,0.0,0.0,0.0,0.0,0.0,0.0,0.0,0.0,0.0,0.0,0.0,0.0,0.0,0.0,0.0,0.0,0.0,0.0,0.0,0.0,0.0,0.0,0.0,0.0,0.0,0.0,0.0,0.0,0.0,0.0,0.0,0.0,0.0,0.0,0.0,0.0,0.0,0.0,0.0,0.0,0.0,0.0,0.0,0.0,0.0,0.0,0.0,0.0,0.0,0.0,0.0,0.0,0.0,0.0,0.0,0.0,0.0,0.0,0.0,0.0,0.0,0.0,0.0,0.0,0.0,0.0,0.0,0.0,0.0,0.0,0.0,0.0,0.0,0.0,0.0,0.0,0.0,0.0,0.0,0.0,0.0,0.0,0.0,0.0,0.0,0.0,0.0,0.0,0.0,0.0,0.0,0.0,0.0,0.0,0.0,0.0,0.0,0.0,0.0,0.0,0.0,0.0,0.0,-7.1077,-7.1084,0.0,0.0,0.0,0.0,0.0,0.0,0.0,0.0,0.0,0.0,0.0,0.0,0.0,0.0,0.0,0.0,0.0,0.0,0.0,0.0,0.0,0.0,0.0,0.0,0.0,0.0,0.0,0.0,0.0,0.0,0.0,0.0,0.0,0.0,0.0,0.0,0.0,0.0,-7.1591,-7.2014,-7.2899,-7.3745,-7.4322,-7.4707,0.0,0.0,0.0,0.0,0.0,0.0,0.0,0.0,0.0,0.0,0.0,0.0,0.0,0.0,0.0,0.0,0.0,0.0,0.0,0.0,0.0,0.0,0.0,0.0,0.0,0.0,0.0,0.0,0.0,0.0,0.0,0.0,0.0,0.0,0.0,0.0,0.0,0.0,0.0,0.0,0.0,0.0,0.0,0.0,0.0,0.0,0.0,0.0,0.0,0.0,0.0,0.0,0.0,0.0,0.0,0.0,0.0,0.0,0.0,0.0,0.0,0.0,0.0,0.0,0.0,0.0,0.0,0.0,0.0,0.0,-7.0089,-7.0292,0.0,0.0,0.0,0.0,0.0,0.0,0.0,0.0,0.0,0.0,0.0,0.0,0.0,0.0,0.0,0.0,0.0,0.0,0.0,0.0,0.0,0.0,0.0,0.0,0.0,0.0,0.0,0.0,0.0,0.0,0.0,0.0,0.0,0.0,0.0,0.0,-7.0898,-7.0898,-7.0898,-7.1283,-7.1975,-7.2706,-7.3476,-7.4284,-7.4591,0.0,0.0,0.0,0.0,0.0,0.0,0.0,0.0,0.0,0.0,0.0,0.0,0.0,0.0,0.0,0.0,0.0,0.0,0.0,0.0,0.0,0.0,0.0,0.0,0.0,0.0,0.0,0.0,0.0,0.0,0.0,0.0,0.0,0.0,0.0,0.0,0.0,0.0,0.0,0.0,0.0,0.0,0.0,0.0,0.0,0.0,0.0,0.0,0.0,0.0,0.0,0.0,0.0,0.0,0.0,0.0,0.0,0.0,0.0,0.0,0.0,0.0,0.0,-7.0395,-7.0625,-6.9923,-6.9923,-6.9533,-6.8869,-6.8869,-6.9399,-7.0208,-6.9466,0.0,0.0,0.0,0.0,0.0,0.0,0.0,0.0,0.0,0.0,0.0,0.0,0.0,0.0,0.0,0.0,0.0,0.0,0.0,0.0,0.0,0.0,-6.9926,-6.9119,-6.9045,-6.885,0.0,0.0,0.0,0.0,0.0,0.0,0.0,-7.0898,-7.0898,-7.0898,-7.0898,-7.0975,-7.1052,-7.1206,-7.1706,-7.2591,-7.4053,-7.513,-7.5822,0.0,0.0,0.0,0.0,0.0,0.0,0.0,0.0,0.0,0.0,0.0,0.0,0.0,0.0,0.0,0.0,0.0,0.0,0.0,0.0,0.0,0.0,0.0,0.0,0.0,0.0,0.0,0.0,0.0,0.0,0.0,0.0,0.0,0.0,0.0,0.0,0.0,0.0,0.0,0.0,0.0,-7.4882,-7.4802,0.0,0.0,0.0,0.0,0.0,0.0,0.0,0.0,0.0,0.0,0.0,0.0,0.0,-6.9148,-6.9148,-6.8409,-6.7942,-6.7825,-6.7313,-6.7002,-6.6878,-6.6878,-6.68,-6.6722,-6.6722,0.0,-6.8437,-6.832,0.0,0.0,0.0,0.0,0.0,0.0,0.0,0.0,0.0,0.0,0.0,0.0,0.0,0.0,0.0,0.0,0.0,0.0,0.0,0.0,0.0,-6.9633,-6.9082,-6.8311,-6.8362,-6.8346,-6.8107,0.0,0.0,0.0,0.0,-7.032,-7.0885,-7.0898,-7.0898,-7.0898,-7.0898,-7.0898,-7.0898,-7.0898,-7.136,-7.2206,-7.2976,-7.4014,-7.5284,-7.5284,0.0,0.0,0.0,0.0,0.0,0.0,0.0,0.0,0.0,0.0,0.0,0.0,0.0,0.0,0.0,0.0,0.0,0.0,0.0,0.0,0.0,0.0,0.0,0.0,0.0,0.0,0.0,0.0,0.0,0.0,0.0,0.0,0.0,0.0,0.0,0.0,0.0,0.0,0.0,-7.4329,-7.3686,-7.3713,-7.2849,-7.2291,0.0,0.0,0.0,0.0,0.0,0.0,0.0,0.0,0.0,-6.8194,-6.8156,-6.7915,-6.7449,-6.7052,-6.6858,-6.6858,-6.647,-6.6314,-6.6314,-6.6314,-6.6314,-6.6314,-6.6314,-6.6581,-6.7086,-6.7222,-6.7408,-6.7676,0.0,0.0,0.0,0.0,-6.7657,-6.7672,0.0,0.0,0.0,0.0,0.0,0.0,0.0,0.0,0.0,0.0,0.0,0.0,-6.9045,-6.8715,-6.8348,-6.7724,-6.7926,-6.8044,-6.807,-6.8702,0.0,0.0,0.0,-7.0501,-7.0885,-7.0898,-7.0898,-7.0898,-7.0898,-7.0898,-7.0898,-7.0898,-7.1245,-7.186,-7.186,-7.2822,-7.4399,-7.4399,-7.4399,-7.4399,0.0,0.0,0.0,0.0,0.0,0.0,0.0,0.0,0.0,0.0,0.0,0.0,0.0,0.0,0.0,0.0,0.0,0.0,0.0,0.0,0.0,0.0,0.0,0.0,0.0,0.0,0.0,0.0,0.0,0.0,0.0,0.0,0.0,0.0,0.0,0.0,0.0,-7.3219,-7.2658,-7.2669,-7.177,-7.1179,0.0,0.0,0.0,0.0,0.0,0.0,-6.8519,-6.8467,-6.8053,-6.72,-6.7161,-6.6842,-6.6212,-6.6212,-6.6212,-6.6212,-6.6212,-6.6212,-6.6212,-6.6212,-6.6212,-6.6212,-6.6212,-6.6212,-6.6191,-6.6439,-6.6452,-6.6322,-6.6471,-6.6452,-6.6314,-6.6314,-6.6314,-6.6329,0.0,0.0,0.0,0.0,0.0,0.0,0.0,0.0,0.0,0.0,0.0,-6.9853,-6.9009,-6.8201,-6.7724,-6.7687,-6.7847,-6.7941,-6.807,-6.8633,-6.9139,-6.9683,-7.0082,-7.0501,-7.0885,-7.0898,-7.0898,-7.0898,-7.0898,-7.0898,-7.0898,-7.0898,-7.0937,-7.0975,-7.0975,-7.1937,-7.3553,-7.3553,-7.3553,-7.3553,-7.3553,0.0,0.0,0.0,0.0,0.0,0.0,0.0,0.0,0.0,0.0,0.0,0.0,0.0,0.0,0.0,0.0,0.0,0.0,0.0,0.0,0.0,0.0,0.0,0.0,0.0,0.0,0.0,0.0,0.0,0.0,0.0,0.0,0.0,0.0,0.0,0.0,0.0,0.0,-7.1789,-7.0862,0.0,0.0,0.0,0.0,-6.8972,-6.88,-6.8344,-6.7503,-6.7274,-6.6833,-6.6024,-6.5986,-6.5947,-6.5897,-6.5897,-6.5897,-6.5897,-6.5897,-6.5897,-6.5897,-6.5897,-6.5897,-6.5897,-6.5897,-6.5897,-6.5946,-6.6221,-6.6322,-6.6314,-6.6322,-6.6322,-6.6314,-6.6314,-6.6314,-6.6314,0.0,0.0,0.0,0.0,0.0,0.0,0.0,0.0,0.0,-7.0697,-7.0293,-6.9596,-6.8274,-6.7871,-6.7687,-6.7687,-6.7926,-6.8044,-6.807,-6.8937,-6.9508,-6.9683,-7.0337,-7.0748,-7.0898,-7.0898,-7.0898,-7.0898,-7.0898,-7.0898,-7.0898,-7.0898,-7.0898,-7.0898,-7.0898,-7.1245,-7.186,-7.2437,-7.2668,-7.2668,-7.2668,-7.2668,0.0,0.0,0.0,0.0,0.0,0.0,0.0,0.0,0.0,0.0,0.0,0.0,0.0,0.0,0.0,0.0,0.0,0.0,0.0,0.0,0.0,0.0,0.0,0.0,0.0,0.0,0.0,0.0,0.0,0.0,0.0,0.0,0.0,0.0,0.0,0.0,0.0,-6.9819,-6.9343,0.0,-6.9026,-6.8265,-6.7724,-6.7724,-6.7221,-6.6776,-6.6441,-6.6383,-6.6205,-6.5897,-6.5897,-6.5897,-6.5897,-6.5897,-6.5897,-6.5897,-6.5897,-6.5897,-6.5897,-6.5897,-6.5897,-6.5859,-6.532,-6.5051,-6.5025,-6.4547,-6.5048,-6.5986,-6.5509,-6.5287,-6.5125,-6.4584,-6.4353,-6.4374,0.0,0.0,0.0,0.0,0.0,0.0,0.0,0.0,0.0,-7.0697,-7.0257,-6.9596,-6.8238,-6.7834,-6.7687,-6.7687,-6.7926,-6.8121,-6.8309,-6.901,-6.9587,-6.9887,-7.0547,-7.0898,-7.0898,-7.0898,-7.0898,-7.0898,-7.0898,-7.0898,-7.0898,-7.0898,-7.0898,-7.0898,-7.0898,-7.0898,-7.0937,-7.1514,-7.1745,-7.1745,-7.1745,-7.1745,-7.1706,0.0,0.0,0.0,0.0,0.0,0.0,0.0,0.0,0.0,0.0,0.0,0.0,0.0,0.0,0.0,0.0,0.0,0.0,0.0,0.0,0.0,0.0,0.0,0.0,0.0,0.0,0.0,0.0,0.0,0.0,0.0,0.0,0.0,0.0,-6.9896,-6.9285,-6.8771,-6.8251,-6.7975,-6.7975,-6.7205,-6.6705,-6.6705,-6.6205,-6.5897,-6.5897,-6.5897,-6.5897,-6.5897,-6.5897,-6.5897,-6.5897,-6.5897,-6.5897,-6.5897,-6.5897,-6.5743,-6.5474,-6.5474,-6.5282,-6.4974,-6.4397,-6.4166,-6.4128,-6.3538,-6.3974,-6.4948,-6.447,-6.4232,-6.4089,-6.3512,-6.3308,-6.3306,0.0,0.0,0.0,0.0,0.0,0.0,0.0,0.0,0.0,-7.1403,-7.0587,-6.9779,-6.9009,-6.8164,-6.7687,-6.7687,-6.782,-6.8109,-6.8628,-6.881,-6.933,-7.0288,-7.0705,-7.0898,-7.0898,-7.0898,-7.0898,-7.0898,-7.0898,-7.0898,-7.0898,-7.0898,-7.0898,-7.0898,-7.0898,-7.0898,-7.0898,-7.0898,-7.0898,-7.0885,-7.0898,-7.0898,-7.0898,0.0,0.0,0.0,0.0,0.0,0.0,0.0,0.0,0.0,0.0,0.0,0.0,0.0,0.0,0.0,0.0,0.0,0.0,0.0,0.0,0.0,0.0,0.0,0.0,0.0,0.0,0.0,0.0,0.0,0.0,0.0,0.0,0.0,-7.0187,-6.9295,-6.8645,-6.8622,-6.7714,-6.7051,-6.7051,-6.6359,-6.5897,-6.5897,-6.5897,-6.5897,-6.5897,-6.5897,-6.5897,-6.5897,-6.5897,-6.5897,-6.5859,-6.5859,-6.5859,-6.582,-6.582,-6.5397,-6.4551,-6.4551,-6.4089,-6.3308,-6.3281,-6.3281,-6.3281,-6.3231,-6.3243,-6.3243,-6.3231,-6.3281,-6.3281,-6.3231,-6.3243,-6.3243,0.0,0.0,0.0,0.0,0.0,0.0,0.0,0.0,-7.2202,-7.1403,-7.0587,-6.9779,-6.9009,-6.8164,-6.7687,-6.7687,-6.782,-6.7967,-6.8109,-6.89,-6.9758,-7.0705,-7.0857,-7.0898,-7.0898,-7.0898,-7.0898,-7.0898,-7.0898,-7.0898,-7.0898,-7.0898,-7.0898,-7.0898,-7.0898,-7.0898,-7.0898,-7.0898,-7.0734,-7.0478,-7.0777,-7.0898,-7.0898,0.0,0.0,0.0,0.0,0.0,0.0,0.0,0.0,0.0,0.0,0.0,0.0,0.0,0.0,0.0,0.0,0.0,0.0,0.0,0.0,0.0,0.0,0.0,0.0,0.0,0.0,0.0,0.0,0.0,0.0,0.0,-6.9133,-6.8187,-6.8204,-6.7828,-6.7304,-6.6752,-6.6409,-6.6244,-6.6244,-6.6013,-6.5897,-6.5897,-6.5897,-6.5897,-6.5897,-6.5897,-6.5897,-6.5897,-6.5897,-6.559,-6.4974,-6.4974,-6.4628,-6.4012,-6.4012,-6.3897,-6.3666,-6.3666,-6.3551,-6.3281,-6.2666,-6.2435,-6.2358,-6.1743,-6.1473,-6.155,-6.2166,-6.2435,-6.2358,-6.1704,-6.1473,-6.1473,0.0,0.0,0.0,0.0,0.0,0.0,0.0,0.0,-7.2349,-7.1872,-7.1101,-7.0293,-6.9486,-6.8678,-6.8054,-6.7724,-6.7767,-6.7941,-6.8198,-6.9248,-7.0082,-7.0622,-7.0791,-7.0898,-7.0898,-7.0898,-7.0898,-7.0898,-7.0898,-7.0898,-7.0898,-7.0898,-7.0898,-7.0898,-7.0898,-7.0898,-7.0898,-7.0898,-7.0762,-7.0578,-7.0791,-7.0791,-7.0637,-7.0637,-7.0748,-7.0975,-7.1475,-7.1349,-7.1029,-7.1609,0.0,0.0,0.0,0.0,0.0,0.0,0.0,0.0,0.0,0.0,0.0,0.0,0.0,0.0,0.0,0.0,0.0,0.0,0.0,0.0,0.0,0.0,0.0,0.0,-6.8166,-6.7289,-6.6819,-6.6687,-6.6397,-6.5974,-6.5897,-6.5897,-6.5897,-6.5897,-6.5897,-6.5897,-6.5897,-6.5897,-6.5897,-6.5551,-6.5359,-6.5359,-6.5013,-6.4589,-6.4051,-6.4051,-6.382,-6.3308,-6.3308,-6.3128,-6.2781,-6.2781,-6.2589,-6.2243,-6.1743,-6.1562,-6.1524,-6.1012,-6.0781,-6.0858,0.0,0.0,0.0,0.0,-6.0781,-6.0781,0.0,0.0,0.0,0.0,0.0,0.0,0.0,0.0,0.0,0.0,0.0,-7.0991,-7.0183,-6.9376,-6.8568,-6.776,-6.7687,-6.7982,0.0,-6.9607,-7.0183,-7.0304,-7.0637,-7.0871,-7.0898,-7.0898,-7.0898,-7.0898,-7.0898,-7.0898,-7.0898,-7.0898,-7.0898,-7.0898,-7.0898,-7.0898,-7.0898,-7.0898,-7.0885,-7.0805,-7.0805,-7.0637,-7.0369,-7.0369,-7.0593,-7.0898,-7.0898,-7.0939,-7.0992,-7.1005,0.0,0.0,0.0,0.0,0.0,0.0,0.0,0.0,0.0,0.0,0.0,0.0,0.0,0.0,0.0,0.0,0.0,0.0,0.0,0.0,0.0,0.0,0.0,0.0,-6.7297,-6.6853,-6.6038,-6.5897,-6.5897,-6.5897,-6.5897,-6.5897,-6.5897,-6.5897,-6.5897,-6.5897,-6.582,-6.5743,-6.5743,-6.4936,0.0,0.0,0.0,-6.3281,-6.3166,-6.3166,-6.3128,-6.3012,-6.3012,-6.2627,-6.1947,-6.1947,-6.1524,-6.0781,-6.0781,-6.0781,-6.0781,-6.0781,-6.0781,-6.0781,-6.0781,-6.0781,-6.0781,-6.0781,-6.0781,-6.0781,0.0,0.0,0.0,0.0,0.0,0.0,0.0,0.0,0.0,-7.2496,-7.1798,-7.0991,-7.0183,-6.9376,-6.8568,-6.776,-6.7687,-6.7982,0.0,-6.901,-6.951,-7.0288,-7.0369,-7.0578,-7.0898,-7.0898,-7.0898,-7.0898,-7.0898,-7.0898,-7.0898,-7.0898,-7.0898,-7.0898,-7.0898,-7.0898,-7.0898,-7.0898,-7.0719,-7.0416,-7.0416,-7.0563,-7.0777,-7.0777,-7.0805,-7.0898,-7.0898,-7.0912,-7.0925,-7.0979,-7.1056,-7.113,-7.119,-7.1247,0.0,0.0,0.0,0.0,0.0,0.0,0.0,0.0,0.0,0.0,0.0,0.0,0.0,0.0,0.0,0.0,0.0,0.0,0.0,-6.7562,-6.6801,-6.6189,-6.591,-6.5897,-6.5897,-6.5897,-6.5897,-6.5897,-6.5897,-6.5897,-6.5897,-6.5897,-6.5243,-6.4859,-6.4859,-6.4012,-6.3551,-6.3551,-6.3397,-6.2974,-6.232,-6.232,-6.1973,-6.1281,-6.1281,0.0,-6.105,-6.105,-6.0973,-6.0781,-6.0781,-6.0781,-6.0781,-6.0781,-6.0781,-6.0781,-6.0781,-6.0781,-6.0781,-6.0781,-6.0781,-6.0781,0.0,0.0,0.0,0.0,0.0,0.0,0.0,0.0,0.0,0.0,-7.2165,-7.1431,-7.022,-6.9743,-6.9009,-6.7797,-6.782,0.0,-6.8651,-6.8915,-6.9408,-7.025,-7.032,-7.0501,-7.0885,-7.0898,-7.0898,-7.0898,-7.0898,-7.0898,-7.0898,-7.0898,-7.0898,-7.0898,-7.0898,-7.0898,-7.0885,-7.0705,-7.0463,-7.0304,-7.0082,-7.0255,-7.0593,-7.0593,-7.0734,-7.0898,-7.0898,-7.0898,-7.0898,-7.0939,-7.1018,-7.1106,-7.1142,-7.1224,-7.1291,0.0,0.0,0.0,0.0,0.0,0.0,0.0,0.0,0.0,0.0,0.0,0.0,0.0,0.0,-6.9762,-6.872,0.0,-6.7515,-6.6845,-6.6339,-6.597,-6.591,-6.5897,-6.5897,-6.5897,-6.5897,-6.5897,-6.5897,-6.5513,-6.5243,-6.5243,-6.4436,-6.3935,-6.3935,-6.3166,-6.2704,-6.2704,-6.2281,-6.1666,-6.0819,-6.0781,-6.0358,-5.955,-5.955,-5.955,-5.955,-5.955,-5.955,-5.955,-5.955,-5.955,-5.9588,-5.9973,-6.0396,-6.0781,-6.0781,-6.0781,-6.0781,-6.0781,-6.0781,-6.0781,0.0,0.0,0.0,0.0,0.0,0.0,0.0,0.0,0.0,0.0,-7.2496,-7.1945,-7.0477,-7.0183,-6.9449,0.0,0.0,0.0,0.0,-6.8825,-6.9323,-7.003,-7.0133,-7.0369,-7.0762,-7.0871,-7.0898,-7.0898,-7.0898,-7.0898,-7.0898,-7.0898,-7.0898,-7.0898,-7.0898,-7.0871,-7.0762,-7.0432,-7.0233,-7.015,-6.9833,-6.9887,-7.0183,-7.0288,-7.0563,-7.0898,-7.0898,-7.0898,-7.0898,-7.0898,-7.0979,-7.1081,-7.1081,-7.1178,-7.128,-7.128,-7.128,0.0,0.0,0.0,0.0,0.0,0.0,0.0,0.0,-7.1211,-7.0625,-7.0273,-6.9687,-6.8899,-6.7764,-6.7569,-6.723,-6.6179,-6.6001,-6.5993,-6.5923,-6.5897,-6.582,-6.5667,-6.5628,-6.5628,-6.5628,-6.4859,-6.4359,-6.4359,-6.3551,-6.3012,-6.282,-6.205,-6.1524,-6.137,-6.0666,-5.9973,-5.9281,-5.9281,-5.8934,-5.8319,-5.8319,-5.8319,-5.8319,-5.8319,-5.8319,-5.8319,-5.8319,-5.8319,-5.8357,-5.9011,-5.9665,-6.0319,-6.0473,-6.055,-6.055,-6.0742,-6.0781,-6.0781,0.0,0.0,0.0,0.0,0.0,0.0,0.0,0.0,0.0,0.0,0.0,0.0,0.0,0.0,0.0,0.0,0.0,0.0,-6.8171,-6.842,-6.8763,-6.9219,-6.9567,-6.9959,-7.0369,-7.0719,-7.0898,-7.0898,-7.0898,-7.0898,-7.0898,-7.0898,-7.0898,-7.0898,-7.0898,-7.0719,-7.0369,-7.0337,-7.0082,-6.9758,-6.9721,-6.9721,-6.9814,-7.015,-7.0563,-7.0898,-7.0898,-7.0898,-7.0898,-7.0898,-7.0952,-7.1018,-7.1018,-7.1106,-7.1213,-7.1213,-7.1258,-7.1334,-7.1443,-7.1638,-7.1836,-7.1951,-7.1992,-7.1797,0.0,-7.0781,-7.0273,-6.8789,-6.8398,-6.8001,-6.6945,-6.6691,-6.6496,-6.6052,-6.6005,-6.5984,-6.591,-6.5897,-6.559,-6.4859,-6.4743,-6.4743,-6.4743,-6.3974,-6.3474,-6.3474,-6.2704,-6.1897,-6.1127,-6.0242,-5.9473,-5.8742,-5.8627,-5.855,-5.8434,-5.8434,-5.8396,-5.8319,-5.8319,-5.8319,-5.8319,-5.8319,-5.8319,-5.8319,-5.8319,-5.8319,-5.8319,-5.8396,-5.8511,-5.8665,-5.9358,-5.9665,-5.9742,-6.0512,-6.0781,-6.0781,0.0,0.0,0.0,0.0,0.0,0.0,0.0,0.0,0.0,0.0,0.0,0.0,0.0,0.0,0.0,0.0,0.0,0.0,-6.807,-6.8284,-6.8613,-6.9069,-6.9282,-6.9528,-6.9941,-7.0353,-7.0563,-7.0563,-7.0777,-7.0898,-7.0898,-7.0898,-7.0898,-7.0898,-7.0898,-7.069,-7.0266,-7.0047,-6.9721,-6.9327,-6.9327,-6.9488,-6.974,-7.0133,-7.0563,-7.0898,-7.0898,-7.0898,0.0,-7.0898,-7.0939,-7.1005,-7.1005,-7.1093,-7.1213,-7.1213,-7.1247,-7.1337,-7.1559,-7.17,-7.1643,-7.1325,-7.125,-7.1015,-7.0156,-6.957,-6.9062,-6.8359,-6.7812,-6.7262,-6.6772,-6.6585,-6.6471,-6.6233,-6.6063,-6.5993,-6.5972,-6.5499,-6.5013,-6.4628,-6.3743,-6.3128,-6.3128,-6.2358,-6.1627,-6.1127,-6.0358,-5.9742,-5.9358,-5.9011,-5.8665,-5.8319,-5.8319,-5.805,-5.755,-5.755,-5.728,-5.678,-5.678,-5.678,-5.678,-5.678,-5.678,-5.678,-5.678,-5.7049,-5.755,-5.755,-5.7857,-5.8319,-5.8665,-5.8819,-5.8973,-6.0319,-6.0781,-6.0781,0.0,0.0,0.0,0.0,0.0,0.0,0.0,0.0,0.0,0.0,0.0,0.0,0.0,0.0,0.0,0.0,0.0,0.0,0.0,-6.8208,-6.8468,-6.8863,-6.9003,-6.924,-6.9528,-6.9923,-7.0116,-7.0116,-7.0416,-7.0563,-7.0563,-7.0563,-7.0563,-7.0563,-7.0563,-7.0353,-6.9959,-6.9664,-6.9323,-6.893,-6.893,-6.9176,-6.9567,-6.9977,-7.0385,-7.0748,-7.0871,-7.0898,-7.0898,-7.0898,-7.0925,-7.0979,-7.0979,-7.1068,-7.1178,-7.1178,-7.1042,-7.1048,-7.1557,-7.1349,-7.0931,-7.0737,-7.0508,-7.0117,-6.9258,-6.8633,-6.8125,-6.789,-6.7344,-6.6873,-6.6727,-6.6658,-6.6546,-6.6322,-6.6118,-6.5913,-6.5661,-6.5062,-6.4436,-6.3974,-6.282,-6.1908,-6.1435,-6.0819,-6.0165,-5.955,-5.8742,-5.8204,-5.7934,-5.7934,-5.7819,-5.7588,-5.7588,-5.728,-5.6637,-5.6637,-5.6329,-5.5703,-5.5703,-5.5703,-5.5703,-5.5703,-5.5703,-5.5703,-5.5703,-5.6049,-5.6637,-5.6637,-5.7011,-5.7627,-5.7857,-5.7934,-5.8127,-5.9588,-6.0127,-6.0127,0.0,0.0,0.0,0.0,0.0,0.0,0.0,0.0,0.0,0.0,0.0,0.0,0.0,0.0,-7.0596,-6.9045,0.0,0.0,0.0,-6.8158,-6.8309,-6.8334,-6.8817,-6.9091,-6.9112,-6.9508,-6.9721,-6.9721,-6.9721,-6.974,-6.974,-6.974,-6.974,-6.974,-6.974,-6.9508,-6.9134,-6.9112,-6.8885,-6.853,-6.853,-6.8763,-6.9155,-6.9567,-6.9959,-7.0369,-7.0762,-7.0898,-7.0898,-7.0898,-7.0898,-7.0898,-7.0898,-7.0992,-7.1106,-7.1106,-7.0622,-7.0273,-7.1401,-7.0453,-6.9415,-7.0464,-7.0078,-6.9219,-6.8437,-6.8203,-6.7969,-6.7109,-6.6914,-6.6873,-6.6727,-6.6658,-6.6546,-6.6322,-6.6118,-6.572,-6.4852,-6.4665,-6.4012,-6.237,-6.2139,-6.1435,-5.9742,-5.955,-5.9511,-5.9511,-5.8742,-5.7934,-5.7099,-5.706,-5.6637,-5.5818,-5.578,-5.578,-5.5742,-5.5742,-5.5742,-5.5703,-5.5703,-5.5703,-5.5703,-5.5703,-5.5703,-5.5703,-5.5703,-5.5703,-5.5742,-5.5742,-5.5742,-5.5857,-5.6714,-5.706,-5.7137,-5.805,-5.8396,-5.8396,0.0,0.0,0.0,0.0,0.0,0.0,0.0,0.0,0.0,0.0,0.0,0.0,0.0,0.0,0.0,0.0,-6.955,-6.8897,0.0,-6.8376,-6.8208,-6.8284,-6.8565,-6.8707,-6.8707,-6.9091,-6.9286,-6.9286,-6.9567,-6.9702,-6.9702,-6.9702,-6.9702,-6.9702,-6.9702,-6.9468,-6.9091,-6.9091,-6.8877,-6.853,-6.8786,-6.8997,-6.9176,-6.9851,-7.0167,-7.0353,0.0,-7.0898,-7.0898,-7.0898,-7.0898,-7.0898,-7.0898,-7.0965,-7.094,-7.0447,-7.0567,-7.0738,-7.0149,-6.9985,-6.98,-6.9214,-6.8828,-6.8398,-6.7539,-6.7344,-6.7265,-6.6953,-6.6914,-6.6875,-6.6833,-6.6727,-6.6619,-6.654,-6.6314,-6.5867,-6.4905,-6.4197,-6.3368,-6.2255,-6.1601,-6.1012,-6.0435,-5.9858,-5.9281,-5.8742,-5.7934,-5.733,-5.7022,-5.6445,-5.6011,-5.5703,-5.5703,-5.5703,-5.5703,-5.5703,-5.5703,-5.5703,-5.5703,-5.5703,-5.5703,-5.5703,-5.5703,-5.5703,-5.5703,-5.5703,-5.5703,-5.5703,-5.5703,-5.5742,-5.6011,-5.6137,-5.6165,-5.6472,-5.6588,-5.6742,0.0,0.0,0.0,0.0,0.0,0.0,0.0,0.0,0.0,0.0,0.0,0.0,0.0,0.0,0.0,0.0,0.0,-6.955,0.0,0.0,-6.8402,-6.8234,-6.8358,-6.8432,-6.8481,-6.874,-6.8885,-6.8885,-6.9134,-6.9282,-6.9282,-6.9282,-6.9282,-6.9282,-6.9282,-6.9112,-6.8885,-6.8885,-6.8717,-6.853,-6.8786,-6.8975,-6.9155,-6.9683,-7.0047,0.0,-7.0593,-7.0777,-7.0898,-7.0898,-7.0898,-7.0898,-7.0898,-7.076,-7.0529,-7.0432,-7.0142,-6.9835,-6.9582,-6.9251,-6.8895,-6.8265,-6.7928,-6.7578,-6.7031,-6.6914,-6.6914,-6.6914,-6.6914,-6.6914,-6.6914,-6.6785,-6.6706,-6.6658,-6.6452,-6.5959,-6.4976,-6.4018,-6.3084,-6.2178,-6.132,-6.0781,-6.0781,-6.0281,-5.9627,-5.8781,-5.7934,-5.7319,-5.7022,-5.6483,-5.6011,-5.5703,-5.5703,-5.5703,-5.5703,-5.5703,-5.5703,-5.5703,-5.5703,-5.5703,-5.5703,-5.5703,-5.5703,-5.5703,-5.5703,-5.5703,-5.5703,-5.5703,-5.5703,-5.5703,-5.5703,-5.5703,-5.5703,-5.5703,-5.5703,-5.5857,0.0,0.0,0.0,0.0,0.0,0.0,0.0,0.0,0.0,0.0,0.0,0.0,0.0,0.0,0.0,0.0,0.0,0.0,0.0,0.0,0.0,-6.8181,-6.8271,-6.8358,-6.8481,-6.8481,-6.8481,-6.8481,-6.8481,-6.8481,-6.8481,-6.8481,-6.8481,-6.8481,-6.8481,-6.8481,-6.8481,-6.8481,-6.8481,-6.8481,-6.8481,-6.8717,-6.9069,-6.9112,0.0,0.0,-7.032,-7.0578,-7.0898,-7.0898,-7.0898,-7.0898,-7.0898,-7.04,-7.0028,-7.0819,-6.9385,-6.7905,-6.9567,-6.8365,-6.6844,-6.7718,-6.7411,-6.6875,-6.6914,-6.6914,-6.6914,-6.6914,-6.6914,-6.6914,-6.6914,-6.6787,-6.6722,-6.6719,-6.6474,-6.5979,-6.5037,-6.4036,-6.3095,-6.2228,-6.1331,-6.0781,-6.0781,-6.0781,-6.0473,-5.9627,-5.8819,-5.8011,-5.7176,-5.706,-5.6637,-5.578,-5.5703,-5.5703,-5.5703,-5.5703,-5.5703,-5.5703,-5.5703,-5.5703,-5.5703,-5.5703,-5.5703,-5.5703,-5.5703,-5.5703,-5.5703,-5.5703,-5.5703,-5.5703,-5.5703,-5.5703,-5.5703,-5.5703,-5.5703,-5.5703,0.0,0.0,0.0,0.0,0.0,0.0,0.0,0.0,0.0,0.0,0.0,0.0,0.0,0.0,0.0,0.0,0.0,0.0,0.0,0.0,0.0,0.0,0.0,0.0,0.0,0.0,0.0,-6.8481,-6.8481,-6.8481,-6.8481,-6.8481,-6.8481,-6.8481,-6.8481,-6.8481,-6.8481,-6.8481,-6.8481,-6.8481,0.0,-6.8578,-6.873,0.0,0.0,0.0,-7.0532,-7.0791,-7.0898,-7.0898,-7.0898,-7.0898,-7.0898,-7.0798,-7.0517,-6.9524,-6.9274,-6.8977,-6.7687,-6.7386,-6.736,-6.7081,-6.6885,-6.6782,-6.6874,-6.6914,-6.6914,-6.6914,-6.6914,-6.6914,-6.6914,-6.6874,-6.6829,-6.6724,-6.6594,-6.6141,-6.5103,-6.4097,-6.3152,-6.2286,-6.1355,-6.0781,-6.0781,-6.0781,-6.0704,-6.0473,-5.9665,-5.9088,-5.8858,-5.7665,-5.6907,-5.6676,-5.6049,-5.5703,-5.5703,-5.5703,-5.5703,-5.5703,-5.5703,-5.5703,-5.5703,-5.5703,-5.5703,-5.5703,-5.5703,-5.5703,-5.5703,-5.5703,-5.5703,-5.5703,-5.5703,-5.5703,-5.5703,-5.5703,-5.5703,-5.5703,0.0,0.0,0.0,0.0,0.0,0.0,0.0,0.0,0.0,0.0,0.0,0.0,0.0,0.0,0.0,0.0,0.0,0.0,0.0,0.0,0.0,0.0,0.0,0.0,0.0,0.0,0.0,0.0,0.0,0.0,-6.8481,-6.8481,-6.8481,-6.8481,-6.8481,-6.8481,-6.8481,-6.8481,0.0,0.0,0.0,0.0,0.0,0.0,0.0,-6.9777,-7.04,-7.0748,-7.0898,-7.0898,-7.0898,-7.0898,-7.0898,-7.0695,-7.0272,-6.9386,-6.8945,-6.8497,-6.7203,-6.6972,-6.7051,-6.6663,-6.6635,-6.6727,-6.6785,-6.6873,-6.6914,-6.6914,-6.6914,-6.6914,-6.6914,-6.6914,-6.6874,-6.6787,-6.6706,-6.6425,-6.5732,-6.4438,-6.3379,-6.2783,-6.1597,-6.0781,-6.0781,-6.0781,-6.0781,-6.0781,-6.0358,-5.9896,-5.9511,-5.8588,-5.7753,-5.7022,-5.6522,-5.6088,-5.5703,-5.5703,-5.5703,-5.5703,-5.5703,-5.5703,-5.5703,-5.5703,-5.5703,-5.5703,-5.5703,-5.5703,-5.5703,-5.5703,-5.5703,-5.5703,-5.5703,-5.5703,-5.5703,-5.5703,-5.5703,-5.5703,0.0,0.0,0.0,0.0,0.0,0.0,0.0,0.0,0.0,0.0,0.0,0.0,0.0,0.0,0.0,0.0,0.0,0.0,0.0,0.0,0.0,0.0,0.0,0.0,0.0,0.0,-6.8481,-6.8481,-6.8481,0.0,0.0,0.0,0.0,0.0,0.0,0.0,0.0,0.0,0.0,0.0,0.0,0.0,0.0,0.0,0.0,0.0,-7.0238,-7.0608,-7.0898,-7.0898,-7.0898,-7.0898,-7.0898,-7.036,-6.9681,-6.9631,-6.8538,-6.7286,-6.7227,-6.6806,-6.6353,-6.6377,-6.653,-6.6658,-6.6675,-6.6785,-6.6874,-6.6914,-6.6914,-6.6914,-6.6914,-6.6914,-6.6914,-6.6914,-6.6784,-6.6652,-6.654,-6.4899,-6.363,-6.3433,-6.1878,-6.0793,-6.0781,-6.0781,-6.0781,-6.0781,-6.0781,-6.0473,-5.9704,-5.955,-5.8742,-5.706,-5.6907,-5.6483,-5.5703,-5.5703,-5.5703,-5.5703,-5.5703,-5.5703,-5.5703,-5.5703,-5.5703,-5.5703,-5.5703,-5.5703,-5.5703,-5.5703,-5.5703,-5.5703,-5.5703,-5.5703,-5.5703,-5.5703,-5.5703,-5.5703,0.0,0.0,0.0,0.0,0.0,0.0,0.0,0.0,0.0,0.0,-7.2496,-7.2496,0.0,0.0,0.0,0.0,0.0,0.0,0.0,0.0,0.0,0.0,0.0,0.0,-6.913,-6.8692,-6.8481,-6.8481,-6.8481,-6.8481,0.0,0.0,0.0,0.0,0.0,0.0,0.0,0.0,0.0,0.0,0.0,0.0,0.0,0.0,0.0,0.0,-7.0532,-7.0857,-7.0898,-7.0898,-7.0898,-7.0898,-7.0898,-7.036,-6.9565,-6.8937,-6.8,-6.7061,-6.6426,-6.6218,-6.6177,-6.6295,-6.6407,-6.6489,-6.6655,-6.6724,-6.6779,-6.6874,-6.6914,-6.6914,-6.6914,-6.6914,-6.6914,-6.6914,-6.6784,-6.6655,-6.66,-6.4973,-6.3723,-6.3499,-6.1935,-6.0877,-6.0831,-6.0781,-6.0781,-6.0781,-6.0781,-6.0742,-6.0589,-5.9896,-5.8742,-5.706,-5.6291,-5.5857,-5.5703,-5.5703,-5.5703,-5.5703,-5.5703,-5.5703,-5.5703,-5.5703,-5.5703,-5.5703,-5.5703,-5.5703,-5.5703,-5.5703,-5.5703,-5.5703,-5.5703,-5.5703,-5.5703,-5.5703,-5.5703,-5.5703,0.0,0.0,0.0,0.0,0.0,0.0,0.0,-7.2789,-7.2496,-7.2496,-7.2496,-7.2496,-7.2496,-7.2496,0.0,0.0,0.0,0.0,0.0,0.0,0.0,0.0,0.0,0.0,0.0,-6.9224,-6.8927,-6.8481,0.0,-6.8481,-6.8481,-6.8481,-6.8481,-6.8481,-6.8481,-6.8481,-6.8481,-6.8481,-6.8481,-6.8481,-6.8481,-6.8481,0.0,0.0,0.0,0.0,0.0,-7.0734,-7.0898,-7.0898,-7.0898,-7.0898,-7.0898,-7.036,-6.9552,-6.8706,-6.7846,-6.7036,-6.6225,-6.6013,-6.6091,-6.6187,-6.6269,-6.6383,-6.659,-6.6655,-6.6731,-6.6874,-6.6914,-6.6914,-6.6914,-6.6914,-6.6914,-6.6914,-6.6833,-6.6776,-6.6681,-6.505,-6.3804,-6.3678,-6.2004,-6.09,-6.0877,-6.0804,-6.0781,-6.0781,-6.0781,-6.0781,-6.0781,-5.9973,-5.9127,-5.8319,-5.7049,-5.6368,-5.6368,-5.5934,-5.5703,-5.5703,-5.6165,-5.6368,-5.6406,-5.6857,-5.7049,-5.7049,-5.7049,-5.7049,-5.7049,-5.7049,-5.7049,-5.7049,-5.7049,-5.7049,-5.7049,-5.7049,-5.7049,-5.6973,0.0,0.0,0.0,0.0,0.0,0.0,0.0,-7.301,-7.2496,-7.2496,-7.2496,-7.2496,-7.2496,-7.2496,-7.2496,0.0,0.0,0.0,0.0,0.0,0.0,0.0,0.0,0.0,0.0,0.0,0.0,-6.8481,-6.8481,0.0,0.0,0.0,0.0,0.0,-6.8481,-6.8481,-6.8481,-6.8481,-6.8481,0.0,0.0,-6.8481,0.0,0.0,0.0,0.0,0.0,-7.0563,-7.0898,-7.0898,-7.0898,-7.086,-7.0706,-7.009,-6.9244,-6.8398,-6.7552,-6.6781,-6.6138,-6.5982,-6.6001,-6.6047,-6.6177,-6.632,-6.6471,-6.6599,-6.6714,-6.6831,-6.6874,-6.6914,-6.6914,-6.6914,-6.6914,-6.6914,-6.6914,-6.6795,-6.6451,-6.4973,-6.3803,-6.3557,-6.1979,-6.0922,-6.0911,-6.0854,-6.0781,-6.0781,-6.0781,-6.0781,-6.0781,-5.9973,-5.9511,-5.9511,-5.805,-5.7291,-5.7291,-5.6588,-5.6242,-5.628,-5.6934,-5.7291,-5.7291,-5.7973,-5.8319,-5.8319,-5.8319,-5.8319,-5.8319,-5.8319,-5.8319,-5.8319,-5.8319,-5.8319,-5.8319,-5.8319,-5.8319,-5.8204,0.0,0.0,0.0,0.0,0.0,0.0,0.0,-7.301,-7.2496,-7.2496,-7.2496,-7.2496,-7.2496,-7.2496,-7.2496,0.0,0.0,0.0,0.0,0.0,0.0,0.0,0.0,0.0,0.0,0.0,0.0,-6.8481,-6.8481,0.0,0.0,0.0,0.0,0.0,0.0,-6.8481,-6.8481,-6.8481,0.0,0.0,0.0,0.0,0.0,0.0,0.0,0.0,0.0,-7.0563,-7.0898,-7.0898,-7.0898,-7.0783,-7.0052,-6.9206,-6.8359,-6.7475,-6.6641,-6.5987,-6.5948,-6.596,-6.6008,-6.602,-6.6074,-6.6147,-6.6312,-6.6458,-6.6638,-6.6714,-6.6829,-6.6914,-6.6914,-6.6914,-6.6914,-6.6914,-6.6914,-6.6599,-6.5631,-6.4634,-6.3665,-6.2742,-6.165,-6.0965,-6.0911,-6.0854,-6.0781,-6.0781,-6.0781,-6.0781,-6.0781,-5.9973,-5.9511,-5.9511,-5.8627,-5.8165,-5.8165,-5.8088,-5.805,-5.805,-5.8127,-5.8165,-5.8165,-5.828,-5.8319,-5.8319,-5.8319,-5.8319,-5.8319,-5.8319,-5.8319,-5.8319,-5.8319,-5.8319,-5.8319,-5.8319,-5.8319,-5.828,0.0,0.0,0.0,0.0,0.0,0.0,-7.4551,-7.3744,-7.3046,-7.2569,-7.2496,-7.2496,-7.2496,-7.2496,-7.2496,0.0,0.0,0.0,0.0,0.0,0.0,0.0,0.0,0.0,0.0,0.0,-6.9781,-6.8481,-6.8481,0.0,0.0,0.0,0.0,0.0,0.0,-6.8481,-6.8481,-6.8481,0.0,0.0,0.0,0.0,0.0,0.0,0.0,0.0,0.0,0.0,-7.0898,-7.0898,-7.0898,-7.0667,-6.936,-6.8667,-6.8244,-6.7359,-6.6513,-6.5897,-6.5897,-6.5923,-6.5947,-6.5996,-6.6005,-6.608,-6.6269,-6.6425,-6.6566,-6.6664,-6.6827,-6.6914,-6.6914,-6.6914,-6.6914,-6.6914,-6.6914,-6.6562,-6.5658,-6.4692,-6.3764,-6.2747,-6.171,-6.1098,-6.0951,-6.0894,-6.0827,-6.0793,-6.0781,-6.0781,-6.0781,-6.0473,-6.0281,-6.0281,-5.9473,-5.9011,-5.9011,-5.855,-5.8319,-5.8319,-5.8781,-5.9011,-5.905,-5.9588,-5.9781,-5.9781,-5.9781,-5.9781,-5.9781,-5.9781,-5.9781,-5.9781,-5.9781,-5.9781,-5.9781,-5.9781,-5.9781,-5.9742,0.0,0.0,0.0,0.0,0.0,-7.5836,-7.5028,-7.4221,-7.3413,-7.2606,-7.2496,-7.2496,-7.2496,-7.2496,-7.2496,-7.2496,0.0,0.0,0.0,0.0,0.0,0.0,0.0,0.0,0.0,0.0,-7.0115,-6.8481,-6.8481,-6.8481,0.0,0.0,-6.8481,-6.8481,0.0,0.0,0.0,0.0,0.0,0.0,0.0,0.0,0.0,0.0,0.0,0.0,0.0,0.0,0.0,0.0,0.0,-7.0591,-6.8936,-6.8385,-6.8167,-6.7051,-6.632,-6.5897,-6.5897,-6.5897,-6.591,-6.596,-6.5984,-6.604,-6.6167,-6.6376,-6.6546,-6.6635,-6.6782,-6.6914,-6.6914,-6.6914,-6.6914,0.0,-6.6914,-6.6523,-6.5351,-6.4637,-6.374,-6.2516,-6.1699,-6.1158,-6.1068,-6.098,-6.0888,-6.0816,-6.0793,-6.0781,-6.0781,-6.0781,-6.0781,-6.0781,-6.0204,-5.9896,-5.9896,-5.9319,-5.905,-5.905,-5.9627,-5.9896,-5.9896,-6.0512,-6.0781,-6.0781,-6.0781,-6.0781,-6.0781,-6.0781,-6.0781,-6.0781,-6.0781,-6.0781,-6.0781,-6.0781,-6.0781,-6.0704,0.0,0.0,0.0,0.0,0.0,0.0,-7.5028,-7.4221,-7.3413,-7.2606,-7.2496,-7.2496,-7.2496,-7.2496,-7.2496,-7.2496,0.0,0.0,0.0,0.0,0.0,0.0,0.0,0.0,0.0,0.0,-7.0115,-6.8481,-6.8481,-6.8481,-6.8481,-6.8481,-6.8481,-6.8481,0.0,0.0,0.0,0.0,0.0,0.0,0.0,0.0,0.0,0.0,0.0,0.0,0.0,0.0,0.0,0.0,0.0,0.0,0.0,-6.8385,-6.809,-6.6397,-6.5897,-6.5897,-6.5897,-6.5897,-6.5897,-6.5897,-6.596,-6.602,-6.6001,-6.6265,-6.6524,-6.659,-6.6761,-6.6914,-6.6914,-6.6914,-6.6914,-6.6914,-6.6914,-6.6289,-6.457,-6.4247,-6.356,-6.1839,-6.1356,-6.1205,-6.1198,-6.1032,-6.0911,-6.0911,-6.0854,-6.0781,-6.0781,-6.0781,-6.0781,-6.0781,-6.0781,-6.0781,-6.0781,-6.0781,-6.0781,-6.0781,-6.0781,-6.0781,-6.0781,-6.0781,-6.0781,-6.0781,-6.0781,-6.0781,-6.0781,-6.0781,-6.0781,-6.0781,-6.0781,-6.0781,-6.0781,-6.0781,-6.0781,-6.0781,0.0,0.0,0.0,0.0,0.0,0.0,0.0,-7.4698,-7.4037,-7.2679,-7.2496,-7.2496,-7.2496,-7.2496,-7.2496,-7.2496,0.0,0.0,0.0,0.0,0.0,0.0,0.0,0.0,0.0,-7.2481,-7.0995,-6.9298,-6.8741,-6.8481,-6.8481,-6.8481,-6.8481,-6.8481,-6.8481,-6.8481,0.0,0.0,0.0,0.0,0.0,0.0,-6.9155,0.0,0.0,0.0,0.0,0.0,0.0,0.0,0.0,0.0,0.0,0.0,0.0,-6.6397,-6.5897,-6.5897,-6.5897,-6.5897,-6.5897,-6.5897,-6.5923,-6.5947,-6.5982,-6.6221,-6.6451,-6.6524,-6.6717,-6.6914,-6.6914,-6.6914,-6.6914,-6.6914,-6.6914,-6.6289,-6.4531,-6.4296,-6.3585,-6.1805,-6.1417,-6.1235,-6.1205,-6.105,-6.0959,-6.0911,-6.0888,-6.0866,-6.0781,-6.0781,-6.0781,-6.0781,-6.0781,-6.0781,-6.0781,-6.0781,-6.0781,-6.0781,-6.0781,-6.0781,-6.0781,-6.0781,-6.0781,-6.0781,-6.0781,-6.0781,-6.0781,-6.0781,-6.0781,-6.0781,-6.0781,-6.0781,-6.0781,-6.0781,-6.0781,-6.0781,0.0,0.0,0.0,0.0,0.0,0.0,0.0,-7.5102,-7.4441,-7.312,-7.2679,-7.2496,-7.2496,-7.2496,-7.2496,-7.2496,0.0,0.0,0.0,0.0,0.0,0.0,0.0,0.0,-7.4635,-7.3027,-7.1366,-6.9707,-6.889,-6.8481,-6.8481,-6.8481,-6.8481,-6.8481,-6.8481,-6.8481,0.0,0.0,0.0,0.0,0.0,0.0,-6.9606,0.0,0.0,0.0,0.0,0.0,0.0,0.0,0.0,0.0,0.0,0.0,0.0,0.0,-6.6359,-6.6282,-6.5974,-6.5897,-6.5897,-6.5897,-6.5897,-6.5923,-6.5984,-6.6203,-6.6438,-6.6507,-6.6714,-6.6914,-6.6914,-6.6914,-6.6914,-6.6914,-6.6914,-6.6289,-6.4531,-6.4297,-6.363,-6.1805,-6.1491,-6.1373,-6.1243,-6.1156,-6.1022,-6.0948,-6.0894,-6.09,-6.0854,-6.0793,-6.0781,-6.0781,-6.0781,-6.0781,-6.0781,-6.0781,-6.0781,-6.0781,-6.0781,-6.0781,-6.0781,-6.0781,-6.0781,-6.0781,-6.0781,-6.0781,0.0,-6.0781,-6.0781,-6.0781,-6.0781,-6.0781,-6.0781,-6.0781,-6.0781,-6.0781,0.0,0.0,0.0,0.0,0.0,0.0,0.0,-7.5432,-7.4625,-7.3817,-7.301,-7.2496,-7.2496,-7.2496,-7.2496,-7.2496,0.0,0.0,0.0,0.0,0.0,0.0,0.0,0.0,-7.471,-7.3175,-7.1515,-6.9781,-6.8964,-6.8556,-6.8481,-6.8481,-6.8481,-6.8481,-6.8481,-6.8481,0.0,0.0,0.0,0.0,-6.9134,-6.9606,0.0,0.0,0.0,0.0,0.0,0.0,0.0,0.0,0.0,0.0,0.0,0.0,0.0,0.0,0.0,0.0,0.0,-6.5936,-6.5897,-6.5897,-6.5897,-6.5923,-6.5984,-6.6194,0.0,-6.6468,-6.6712,-6.6914,-6.6914,-6.6914,-6.6914,-6.6914,-6.6836,-6.6211,-6.4531,-6.418,-6.3475,-6.1809,-6.1607,-6.152,-6.1324,-6.1243,-6.1142,-6.1003,-6.0959,-6.0922,-6.0911,-6.0827,-6.0793,-6.0793,-6.0781,-6.0781,-6.0781,-6.0781,-6.0781,-6.0781,-6.0781,-6.0781,-6.0781,-6.0781,-6.0781,-6.0781,-6.0781,-6.0781,-6.0781,-6.0781,-6.0781,-6.0781,-6.0781,-6.0781,-6.0781,-6.0781,-6.0781,-6.0781,0.0,0.0,0.0,0.0,0.0,0.0,0.0,0.0,0.0,0.0,-7.301,-7.2496,-7.2496,-7.2496,-7.2524,0.0,0.0,0.0,0.0,0.0,0.0,0.0,0.0,0.0,-7.5527,-7.4524,-7.2889,-7.0598,-6.9818,-6.9076,-6.8481,-6.8481,-6.8481,-6.8481,-6.8481,-6.8481,0.0,0.0,0.0,0.0,-6.9428,-6.9869,0.0,0.0,0.0,0.0,-7.0898,-7.0898,0.0,0.0,0.0,0.0,0.0,0.0,0.0,0.0,-6.7628,0.0,-6.6859,0.0,-6.5897,-6.5897,-6.5897,-6.591,0.0,-6.6177,-6.6393,-6.6432,-6.6694,-6.6913,-6.6914,-6.6914,-6.6914,-6.6914,-6.6328,-6.5547,-6.4453,-6.3164,-6.2148,-6.1717,-6.1624,-6.1596,-6.1527,-6.1384,-6.1228,-6.115,-6.1031,-6.098,-6.0976,-6.0922,-6.0888,-6.0888,-6.0843,-6.0781,-6.0781,-6.0781,-6.0781,-6.0781,-6.0781,-6.0781,-6.0781,-6.0781,-6.0781,-6.0781,-6.0781,-6.0781,-6.0781,-6.0781,-6.0781,-6.0781,-6.0781,-6.0781,-6.0781,-6.0781,-6.0781,-6.0781,0.0,0.0,0.0,0.0,0.0,0.0,0.0,0.0,0.0,0.0,0.0,0.0,0.0,0.0,0.0,0.0,0.0,0.0,0.0,0.0,0.0,0.0,0.0,-7.7496,-7.5824,-7.5007,-7.3372,-7.0895,-7.0078,-6.9261,-6.8481,-6.8481,-6.8481,-6.8481,-6.8481,-6.8481,-6.8506,-6.8707,-6.9019,-6.9388,-6.9814,0.0,0.0,0.0,0.0,0.0,-7.0898,-7.0898,0.0,-7.0898,-7.0898,-7.0821,0.0,0.0,0.0,0.0,-6.8667,-6.8129,-6.7321,-6.6513,-6.5897,-6.5897,-6.5897,-6.5897,-6.5897,-6.6158,-6.6379,-6.6381,-6.6688,-6.6912,-6.6914,-6.6914,-6.6914,-6.6914,-6.6172,-6.5156,-6.3867,-6.2539,-6.1719,-6.1719,-6.1676,-6.1624,-6.1607,-6.1502,-6.1395,-6.1243,-6.1134,-6.105,-6.1,-6.0976,-6.0933,-6.0911,-6.0877,-6.0816,-6.0781,-6.0781,-6.0781,-6.0781,-6.0781,-6.0781,-6.0781,-6.0781,-6.0781,-6.0781,-6.0781,-6.0781,-6.0781,-6.0781,-6.0781,-6.0781,-6.0781,-6.0781,-6.0781,-6.0781,-6.0781,-6.0781,0.0,0.0,0.0,0.0,0.0,0.0,0.0,0.0,0.0,0.0,0.0,0.0,0.0,0.0,0.0,0.0,0.0,0.0,0.0,0.0,0.0,0.0,-7.8276,-7.7496,-7.5824,-7.5118,-7.3521,-7.0895,-7.0227,-6.941,-6.8481,-6.8481,-6.8481,-6.8481,-6.8481,-6.853,-6.8613,-6.8952,-6.9347,-6.9814,-7.015,0.0,0.0,0.0,0.0,0.0,0.0,0.0,0.0,-7.0898,-7.0898,-7.0898,-7.0898,0.0,0.0,0.0,0.0,0.0,-6.7898,-6.6821,-6.6051,-6.5936,-6.5897,-6.5897,-6.5897,-6.6158,-6.6373,-6.6419,-6.6688,-6.6911,-6.6914,-6.6914,-6.6875,-6.6719,-6.5859,-6.4648,-6.3047,-6.2187,-6.1719,-6.1719,-6.1719,-6.1678,-6.1618,-6.161,-6.1517,-6.1318,-6.125,-6.1181,-6.1032,-6.1,-6.0976,-6.0922,-6.0911,-6.0877,-6.0781,-6.0781,-6.0781,-6.0781,-6.0781,-6.0781,-6.0781,-6.0781,-6.0781,-6.0781,-6.0781,-6.0781,-6.0781,-6.0781,-6.0781,-6.0781,-6.0781,-6.0781,-6.0781,-6.0781,-6.0781,-6.0781,0.0,0.0,0.0,0.0,0.0,0.0,0.0,0.0,0.0,0.0,0.0,0.0,0.0,0.0,0.0,0.0,0.0,0.0,0.0,0.0,0.0,-7.8276,-7.8276,-7.7496,-7.5824,-7.5676,-7.4078,-7.0895,-7.0784,-6.9967,-6.8481,-6.8481,-6.8481,-6.8481,-6.8481,-6.8707,-6.9019,-6.9069,-6.9528,-7.02,-7.0288,0.0,0.0,0.0,0.0,0.0,0.0,0.0,0.0,-7.0898,-7.0898,-7.0898,-7.0898,0.0,0.0,0.0,0.0,0.0,-6.936,-6.8129,-6.6744,-6.6051,-6.5897,-6.5897,-6.5897,-6.6128,-6.6344,-6.6374,-6.6677,-6.6908,-6.6914,-6.6914,-6.664,-6.5937,-6.4453,-6.3047,-6.2031,-6.1797,-6.1719,-6.1719,-6.1719,-6.1719,-6.1679,-6.1624,-6.1537,-6.1398,-6.1331,-6.1229,-6.1079,-6.1022,-6.1,-6.0976,-6.0933,-6.0877,-6.0781,-6.0781,-6.0781,-6.0781,-6.0781,-6.0781,-6.0781,-6.0781,-6.0781,-6.0781,-6.0781,-6.0781,-6.0781,-6.0781,-6.0781,-6.0781,-6.0781,-6.0781,-6.0781,-6.0781,-6.0781,-6.0781,0.0,0.0,0.0,0.0,0.0,0.0,0.0,0.0,0.0,0.0,0.0,0.0,0.0,0.0,0.0,0.0,0.0,0.0,0.0,0.0,-7.783,-7.8276,-7.7868,-7.705,-7.5824,-7.5787,-7.419,-7.0895,-7.0895,-7.0078,-6.8481,-6.8481,-6.8481,-6.8506,-6.8717,-6.893,-6.9134,-6.9567,-6.9959,-7.0337,0.0,0.0,0.0,0.0,0.0,0.0,0.0,0.0,0.0,0.0,-7.0898,-7.0898,-7.0898,0.0,0.0,0.0,0.0,0.0,-6.9244,-6.8398,-6.7513,-6.6205,-6.5897,-6.5897,-6.5897,-6.6063,-6.6217,-6.6373,-6.659,-6.6766,-6.6872,-6.6523,-6.5742,-6.4414,-6.3515,-6.2695,-6.1836,-6.1719,-6.1719,-6.1719,-6.1719,-6.1719,-6.1719,-6.1677,-6.1621,-6.1527,-6.1403,-6.1318,-6.1205,-6.1116,-6.106,-6.1,-6.0987,-6.0933,-6.0827,-6.0843,-6.0781,-6.0781,-6.0781,-6.0781,-6.0781,-6.0781,-6.0781,-6.0781,-6.0781,-6.0781,-6.0781,-6.0781,-6.0781,-6.0781,-6.0781,-6.0781,-6.0781,-6.0781,-6.0781,-6.0781,0.0,0.0,0.0,0.0,0.0,0.0,0.0,0.0,0.0,0.0,0.0,0.0,0.0,0.0,0.0,0.0,0.0,0.0,0.0,-7.6604,-7.7486,-7.8239,-7.7561,-7.6706,-7.5824,-7.5416,-7.3818,-7.0895,-7.071,-6.9893,-6.8481,-6.8481,-6.8554,-6.866,-6.8975,-6.9219,-6.9408,-7.003,-7.0353,-7.0448,0.0,0.0,0.0,0.0,0.0,0.0,0.0,0.0,0.0,0.0,0.0,0.0,0.0,0.0,0.0,-7.0898,-7.0898,-7.0591,-6.909,-6.8552,-6.8052,-6.6551,-6.6051,-6.5897,-6.5897,-6.5986,-6.6138,-6.6368,-6.6496,-6.6649,-6.6866,-6.6014,-6.4804,-6.3242,-6.2812,-6.2461,-6.1797,-6.1719,-6.1719,-6.1719,-6.1719,-6.1719,-6.1719,-6.1719,-6.1677,-6.1607,-6.1463,-6.1367,-6.1317,-6.1186,-6.1051,-6.1002,-6.099,-6.0965,-6.0911,-6.0816,-6.0781,-6.0781,-6.0781,-6.0781,-6.0781,-6.0781,-6.0781,-6.0781,-6.0781,-6.0781,-6.0781,-6.0781,-6.0781,-6.0781,-6.0781,-6.0781,-6.0781,-6.0781,-6.0781,-6.0781,0.0,0.0,0.0,0.0,0.0,0.0,0.0,0.0,0.0,0.0,0.0,0.0,0.0,0.0,0.0,0.0,0.0,0.0,0.0,-7.6604,-7.7486,-7.8239,-7.7561,-7.6706,-7.5824,-7.4338,-7.2704,-7.0895,-7.0152,-6.9335,-6.8481,-6.8481,-6.8707,-6.9047,-6.9091,-6.9508,-7.02,-7.0288,-7.0532,-7.0871,-7.0885,0.0,0.0,0.0,0.0,0.0,0.0,0.0,0.0,0.0,0.0,0.0,0.0,0.0,-7.0898,-7.0898,-7.0898,-7.0706,-6.986,-6.9013,-6.8167,-6.7244,-6.6436,-6.5897,-6.5897,-6.5986,-6.6138,-6.6368,-6.6519,-6.6666,-6.6857,-6.5541,-6.41,-6.3164,-6.2305,-6.1758,-6.1719,-6.1719,-6.1719,-6.1719,-6.1719,-6.1719,-6.1719,-6.1719,-6.1677,-6.1607,-6.1463,-6.1367,-6.1317,-6.1186,-6.1051,-6.1002,-6.099,-6.0965,-6.0911,-6.0816,-6.0781,-6.0781,-6.0781,-6.0781,-6.0781,-6.0781,-6.0781,-6.0781,-6.0781,-6.0781,-6.0781,-6.0781,-6.0781,-6.0781,-6.0781,-6.0781,-6.0781,-6.0781,-6.0781,-6.0781,0.0,0.0,0.0,0.0,0.0,0.0,0.0,0.0,0.0,0.0,0.0,0.0,0.0,0.0,0.0,0.0,0.0,0.0,0.0,-7.6977,-7.74,-7.7978,-7.7167,-7.5968,-7.4365,-7.3733,-7.2592,-7.0895,-6.9859,-6.9038,-6.8506,-6.9019,-6.9198,-6.9112,-6.9625,-7.0012,-7.032,-7.0578,-7.0762,-7.0898,-7.0898,-7.0898,0.0,0.0,0.0,0.0,0.0,0.0,0.0,0.0,-7.0898,-7.0898,-7.0898,-7.0898,-7.0898,-7.0898,-7.0898,-7.0591,-6.9244,-6.8667,-6.809,-6.6705,-6.6128,-6.5897,-6.5897,-6.5986,-6.6138,-6.6194,-6.6406,-6.6319,-6.5457,-6.4295,-6.3203,-6.2344,-6.1914,-6.1719,-6.1719,-6.1719,-6.1719,-6.1719,-6.1719,-6.1719,-6.1719,-6.1719,-6.1679,-6.1675,-6.1564,-6.1499,-6.1356,-6.1264,-6.1156,-6.1051,-6.1041,-6.098,-6.0965,-6.0911,-6.0816,-6.0781,-6.0781,-6.0781,-6.0781,-6.0781,-6.0781,-6.0781,-6.0781,-6.0781,-6.0781,-6.0781,-6.0781,-6.0781,-6.0781,-6.0781,-6.0781,-6.0781,-6.0781,-6.0781,0.0,0.0,0.0,0.0,0.0,0.0,0.0,0.0,0.0,0.0,0.0,0.0,0.0,0.0,0.0,0.0,0.0,0.0,-7.7114,-7.7228,-7.7457,-7.7989,-7.6911,-7.5507,-7.38,-7.3015,-7.1984,-7.0696,-6.9745,-6.9134,-6.8863,-6.9428,-6.9625,-6.9508,-7.0047,-7.0369,-7.0517,-7.0777,-7.0898,-7.0898,-7.0898,-7.0898,0.0,0.0,0.0,0.0,0.0,0.0,0.0,0.0,-7.0898,-7.0898,-7.0898,-7.0898,-7.0898,-7.0898,-7.0898,-7.0514,-6.8859,-6.8385,-6.8013,-6.632,-6.5897,-6.5897,-6.5897,-6.5986,-6.6128,-6.6148,-6.6225,-6.5871,-6.456,-6.3591,-6.2695,-6.1836,-6.1719,-6.1719,-6.1719,-6.1719,-6.1719,-6.1719,-6.1719,-6.1719,-6.1719,-6.1719,-6.1719,-6.1719,-6.1627,-6.154,-6.1417,-6.1343,-6.1237,-6.1089,-6.1032,-6.0982,-6.098,-6.0944,-6.0888,-6.0816,-6.0793,-6.0781,-6.0781,-6.0781,-6.0781,-6.0781,-6.0781,-6.0781,-6.0781,-6.0781,-6.0781,-6.0781,-6.0781,-6.0781,-6.0781,-6.0781,-6.0781,-6.0781,0.0,0.0,0.0,0.0,0.0,0.0,0.0,0.0,0.0,0.0,0.0,0.0,0.0,0.0,0.0,0.0,0.0,0.0,-7.7114,-7.719,-7.7569,-7.8382,-7.679,-7.548,-7.4588,-7.2164,-7.0698,-7.0292,-6.9904,-6.9702,-6.9702,-6.9702,-6.9923,-7.032,-7.032,-7.0532,-7.0898,-7.0898,-7.0898,-7.0898,-7.0898,-7.0898,-7.0898,0.0,0.0,0.0,0.0,0.0,0.0,0.0,-7.0898,-7.0898,-7.0898,-7.0898,-7.0898,-7.0898,-7.0898,-7.0514,-6.8859,-6.8385,-6.8013,-6.632,-6.5897,-6.5897,-6.5897,-6.5986,-6.6129,-6.6275,-6.5904,-6.5319,-6.4478,-6.3584,-6.269,-6.1836,-6.1719,-6.1719,-6.1719,-6.1719,-6.1719,-6.1719,-6.1719,-6.1719,-6.1719,-6.1719,-6.1719,-6.1719,-6.1627,-6.154,-6.1417,-6.1343,-6.1237,-6.1089,-6.1032,-6.1002,-6.1002,-6.0927,-6.0911,-6.0911,-6.0816,-6.0781,-6.0781,-6.0781,-6.0781,-6.0781,-6.0781,-6.0781,-6.0781,-6.0781,-6.0781,-6.0781,-6.0781,-6.0781,-6.0781,-6.0781,-6.0781,-6.0781,0.0,0.0,0.0,0.0,0.0,0.0,0.0,0.0,0.0,0.0,0.0,0.0,0.0,0.0,0.0,0.0,0.0,0.0,-7.7998,-7.756,-7.7479,-7.8008,-7.6388,-7.4657,-7.2962,-7.1291,-7.0266,-6.9886,-7.0038,-6.9977,-6.9702,-7.0288,-7.0448,-7.032,-7.0593,-7.0777,-7.0898,-7.0898,-7.0898,-7.0898,-7.0898,-7.0898,-7.0898,0.0,0.0,0.0,0.0,0.0,0.0,0.0,0.0,0.0,-7.0898,-7.0898,-7.0898,-7.0898,-7.0898,-7.0514,-6.8859,-6.8385,-6.8013,-6.632,-6.5897,-6.5897,-6.5897,-6.5986,-6.6167,-6.6452,-6.5402,-6.4421,-6.4319,-6.3079,-6.199,-6.1758,-6.1719,-6.1719,-6.1719,-6.1719,-6.1719,-6.1719,-6.1719,-6.1719,-6.1719,-6.1719,-6.1719,-6.1719,-6.1678,-6.1579,-6.1422,-6.1383,-6.1305,-6.1127,-6.106,-6.1041,-6.1002,-6.0969,-6.0944,-6.0911,-6.0816,-6.0781,-6.0781,-6.0781,-6.0781,-6.0781,-6.0781,-6.0781,-6.0781,-6.0781,-6.0781,-6.0781,-6.0781,-6.0781,-6.0781,-6.0781,-6.0781,-6.0781,0.0,0.0,0.0,0.0,0.0,0.0,0.0,0.0,0.0,0.0,-7.693,-7.5686,0.0,0.0,0.0,0.0,0.0,0.0,0.0,-7.7746,-7.7401,-7.7653,-7.5989,-7.4014,-7.1714,-7.0936,-7.0416,-7.0188,-7.0416,-7.04,-7.0205,-7.069,-7.0762,-7.0563,-7.0777,-7.0898,-7.0898,-7.0898,-7.0898,-7.0898,-7.0898,-7.0898,-7.086,0.0,0.0,0.0,0.0,0.0,0.0,0.0,0.0,0.0,-7.0898,-7.0898,-7.0898,-7.0898,-7.0898,-7.0514,-6.8859,-6.8385,-6.8013,-6.632,-6.5897,-6.5923,-6.5955,-6.6077,-6.6259,-6.6615,-6.5297,-6.4154,-6.4276,-6.2882,-6.1716,-6.1718,-6.1719,-6.1719,-6.1719,-6.1719,-6.1719,-6.1719,-6.1719,-6.1719,-6.1719,-6.1719,-6.1719,-6.1719,-6.1719,-6.1627,-6.1422,-6.1412,-6.1304,-6.1127,-6.1118,-6.106,-6.1032,-6.099,-6.0976,-6.0944,-6.0827,-6.0781,-6.0781,-6.0781,-6.0781,-6.0781,-6.0781,-6.0781,-6.0781,-6.0781,-6.0781,-6.0781,-6.0781,-6.0781,-6.0781,-6.0781,-6.0781,-6.0781,0.0,0.0,0.0,0.0,0.0,0.0,0.0,0.0,0.0,0.0,-7.7015,-7.6015,0.0,0.0,0.0,0.0,0.0,0.0,0.0,0.0,-7.7053,-7.7053,-7.5399,-7.336,-7.0937,-7.0898,-7.0898,-7.0898,-7.0898,-7.0898,-7.0898,-7.0898,-7.0898,-7.0898,-7.0898,-7.0898,-7.0898,-7.0898,-7.0898,-7.0898,-7.0821,-7.0783,-7.0706,-6.9898,0.0,0.0,0.0,0.0,0.0,0.0,0.0,0.0,-7.0898,-7.0898,-7.0898,-7.0898,-7.0898,-7.0514,-6.8859,-6.8385,-6.8013,-6.632,-6.5897,-6.5933,-6.6077,-6.62,-6.6393,-6.6723,-6.5504,-6.4379,-6.4312,-6.2954,-6.1788,-6.1716,-6.1718,-6.1719,-6.1719,-6.1719,-6.1719,-6.1719,-6.1719,-6.1719,-6.1719,-6.1719,-6.1719,-6.1719,-6.1719,-6.1627,-6.1422,-6.1412,-6.1304,-6.1127,-6.1118,-6.1118,-6.1118,-6.1049,-6.0987,-6.0987,-6.0877,-6.0781,-6.0781,-6.0781,-6.0781,-6.0781,-6.0781,-6.0781,-6.0781,-6.0781,-6.0781,-6.0781,-6.0781,-6.0781,-6.0781,-6.0781,-6.0781,-6.0781,0.0,0.0,0.0,0.0,0.0,0.0,0.0,0.0,0.0,0.0,0.0,0.0,0.0,0.0,0.0,0.0,0.0,0.0,0.0,0.0,-7.5245,-7.5245,-7.363,-7.2168,-7.0937,-7.0898,-7.0898,-7.0898,-7.0898,-7.0898,-7.0898,-7.0898,-7.0898,-7.0898,-7.0898,-7.0898,-7.0898,-7.0898,-7.0898,-7.0821,-7.0206,-6.9975,-6.986,-6.9013,-6.8783,0.0,0.0,0.0,0.0,0.0,0.0,0.0,-7.0898,-7.0898,-7.0898,-7.0898,-7.0898,-7.0514,-6.8859,-6.8385,-6.8013,-6.632,-6.5897,-6.5943,-6.6183,-6.6283,-6.6366,-6.66,-6.5939,-6.5121,-6.4429,-6.3416,-6.2485,-6.1794,-6.1717,-6.1718,-6.1719,-6.1719,-6.1719,-6.1719,-6.1719,-6.1719,-6.1719,-6.1719,-6.1719,-6.1719,-6.1719,-6.1627,-6.1422,-6.1412,-6.1304,-6.1127,-6.1118,-6.1118,-6.1118,-6.1049,-6.0987,-6.0987,-6.0877,-6.0781,-6.0781,-6.0781,-6.0781,-6.0781,-6.0781,-6.0781,-6.0781,-6.0781,-6.0781,-6.0781,-6.0781,-6.0781,-6.0781,-6.0781,-6.0781,-6.0781,0.0,0.0,0.0,0.0,0.0,0.0,0.0,0.0,0.0,0.0,0.0,0.0,0.0,0.0,0.0,0.0,0.0,0.0,0.0,0.0,-7.3937,-7.3514,-7.2283,-7.136,-7.0898,-7.0898,-7.0898,-7.0898,-7.0898,-7.0898,-7.0898,-7.0898,-7.0898,-7.0898,-7.0898,-7.0898,-7.0898,-7.0898,-7.0667,-7.0283,-6.986,-6.9436,-6.8975,-6.8129,-6.8052,-6.8385,-6.8436,0.0,0.0,0.0,0.0,0.0,0.0,0.0,-7.0898,-7.0898,-7.0898,-7.0629,-6.936,-6.8744,-6.8013,-6.632,-6.5897,-6.597,-6.6157,-6.6251,-6.6358,-6.6569,-6.6085,-6.5314,-6.4462,-6.3607,-6.2714,-6.1826,-6.1714,-6.1717,-6.1718,-6.1718,-6.1719,-6.1719,-6.1719,-6.1719,-6.1719,-6.1719,-6.1719,-6.1719,-6.1719,-6.1633,-6.1481,-6.1439,-6.1334,-6.1189,-6.1125,-6.1118,-6.1118,-6.1049,-6.0987,-6.0987,-6.0877,-6.0781,-6.0781,-6.0781,-6.0781,-6.0781,-6.0781,-6.0781,-6.0781,-6.0781,-6.0781,-6.0781,-6.0781,-6.0781,-6.0781,-6.0781,-6.0781,-6.0781,0.0,0.0,0.0,0.0,0.0,0.0,0.0,0.0,0.0,0.0,0.0,0.0,0.0,0.0,0.0,0.0,0.0,0.0,0.0,0.0,0.0,-7.2014,-7.1283,-7.0898,-7.0898,-7.0898,-7.0898,-7.0898,-7.0898,-7.0898,-7.0898,-7.0898,-7.0898,-7.0898,-7.0898,-7.0898,-7.0898,-7.0744,-7.0321,-6.9667,-6.936,-6.8821,-6.809,-6.7205,-6.7321,-6.7898,-6.7321,-6.8129,-6.9513,-6.9667,0.0,0.0,0.0,0.0,-7.0898,-7.0898,-7.0898,-7.0706,-6.9937,-6.8936,-6.7859,-6.6436,-6.6013,-6.5933,-6.6056,-6.6183,-6.6358,-6.6569,-6.6163,-6.5546,-6.4687,-6.3952,-6.3099,-6.2088,-6.1904,-6.1871,-6.1716,-6.1718,-6.1719,-6.1719,-6.1719,-6.1719,-6.1719,-6.1719,-6.1719,-6.1719,-6.1719,-6.1677,-6.1607,-6.1463,-6.1362,-6.131,-6.1178,-6.1118,-6.1118,-6.1049,-6.0987,-6.0987,-6.0877,-6.0781,-6.0781,-6.0781,-6.0781,-6.0781,-6.0781,-6.0781,-6.0781,-6.0781,-6.0781,-6.0781,-6.0781,-6.0781,-6.0781,-6.0781,-6.0781,-6.0781,0.0,0.0,0.0,0.0,0.0,0.0,0.0,0.0,0.0,0.0,-7.6053,-7.6015,0.0,0.0,0.0,0.0,0.0,0.0,0.0,0.0,0.0,-7.1091,-7.0975,-7.0898,-7.0898,-7.0898,-7.0898,-7.0898,-7.0898,-7.0898,-7.0898,-7.0898,-7.0898,-7.0898,-7.0898,-7.0898,-7.086,-7.0167,-6.9821,-6.9552,-6.8052,-6.7359,-6.7167,-6.6359,-6.6128,-6.632,-6.6898,-6.7744,-6.8706,-6.9436,-7.0244,0.0,0.0,0.0,-7.0898,-7.0898,-7.0898,-7.0706,-6.9937,-6.8513,-6.7205,-6.7013,-6.6397,-6.5933,-6.6056,-6.6183,-6.6358,-6.6569,-6.6631,-6.6405,-6.5585,-6.5312,-6.4731,-6.3101,-6.2832,-6.2562,-6.1826,-6.1715,-6.1717,-6.1717,-6.1718,-6.1719,-6.1719,-6.1719,-6.1719,-6.1719,-6.1719,-6.1677,-6.1607,-6.1463,-6.1362,-6.131,-6.1178,-6.1118,-6.1118,-6.1049,-6.0987,-6.0987,-6.0877,-6.0781,-6.0781,-6.0781,-6.0781,-6.0781,-6.0781,-6.0781,-6.0781,-6.0781,-6.0781,-6.0781,-6.0781,-6.0781,-6.0781,-6.0781,-6.0781,-6.0781,0.0,0.0,0.0,0.0,0.0,0.0,0.0,0.0,0.0,0.0,0.0,-7.6015,0.0,0.0,0.0,-7.4745,-7.386,-7.2783,0.0,0.0,0.0,0.0,-7.0898,-7.0898,-7.0898,-7.0898,-7.0898,-7.0898,-7.0898,-7.0898,-7.0898,-7.0898,-7.0898,-7.0898,-7.0898,-7.0898,-7.086,-7.0052,-6.9436,-6.8859,-6.759,-6.6846,-6.646,-6.6025,-6.5923,-6.5998,-6.6295,-6.6974,-6.7782,-6.8667,-6.9552,-7.0321,-7.0744,0.0,0.0,0.0,-7.0898,-7.0706,-6.9937,-6.9129,-6.8321,-6.7321,-6.6821,-6.6511,-6.6172,-6.6183,-6.6358,-6.6569,-6.6709,-6.6561,-6.5741,-6.5585,-6.5197,-6.3913,-6.3334,-6.2869,-6.2483,-6.2025,-6.1717,-6.1717,-6.1718,-6.1719,-6.1719,-6.1719,-6.1719,-6.1719,-6.1719,-6.1679,-6.1673,-6.1485,-6.1393,-6.134,-6.1189,-6.1118,-6.1118,-6.1049,-6.0965,-6.09,-6.0843,-6.0781,-6.0781,-6.0781,-6.0781,-6.0781,-6.0781,-6.0781,-6.0781,-6.0781,-6.0781,-6.0781,-6.0781,-6.0781,-6.0781,-6.0781,-6.0781,-6.0781,0.0,0.0,0.0,0.0,0.0,0.0,0.0,0.0,0.0,0.0,0.0,0.0,0.0,0.0,0.0,0.0,-7.2899,-7.1822,-7.0975,0.0,0.0,0.0,0.0,-7.0898,-7.0898,-7.0898,-7.0898,-7.0898,-7.0898,-7.0898,-7.0898,-7.0898,-7.0898,-7.0898,-7.0898,-7.0783,-7.0552,-6.9706,-6.8859,-6.8013,-6.7154,-6.6499,-6.5996,-6.5921,-6.5946,-6.5982,-6.5947,-6.6423,-6.7231,-6.7859,-6.8821,-6.9821,-7.0398,-7.0744,0.0,0.0,0.0,-7.0783,-7.0167,-6.986,-6.9321,-6.7821,-6.7244,-6.6922,-6.6212,-6.6185,-6.6344,-6.6489,-6.6654,-6.66,-6.6014,-6.5897,-6.5624,-6.4765,-6.4069,-6.3566,-6.3373,-6.2566,-6.2027,-6.2027,-6.1835,-6.1719,-6.1719,-6.1719,-6.1719,-6.1719,-6.1719,-6.1719,-6.1719,-6.1501,-6.1412,-6.1412,-6.119,-6.1118,-6.1118,-6.1049,-6.0933,-6.0781,-6.0781,-6.0781,-6.0781,-6.0781,-6.0781,-6.0781,-6.0781,-6.0781,-6.0781,-6.0781,-6.0781,-6.0781,-6.0781,-6.0781,-6.0781,-6.0804,-6.0843,-6.0843,0.0,0.0,0.0,0.0,0.0,0.0,0.0,0.0,0.0,0.0,0.0,0.0,-7.4784,-7.4053,-7.3245,-7.2399,-7.2245,-7.1822,-7.0975,-7.0898,0.0,0.0,0.0,0.0,-7.0898,-7.0898,-7.0898,-7.0898,-7.0898,-7.0898,-7.0898,-7.0898,-7.0898,-7.0898,-7.0898,-7.0475,-6.9706,-6.8859,-6.7975,-6.7103,-6.6357,-6.6035,-6.6008,-6.6017,-6.6001,-6.599,-6.602,-6.6497,-6.7204,-6.7154,-6.8282,-6.9706,-6.9744,-7.0283,-7.0898,0.0,0.0,0.0,-7.086,-7.0283,-6.9475,-6.8552,-6.7705,-6.691,-6.6076,-6.6128,-6.6314,-6.6322,-6.6571,-6.6795,-6.6756,-6.6756,-6.6483,-6.5663,-6.5507,-6.5194,-6.4338,-6.3488,-6.2911,-6.292,-6.2183,-6.1718,-6.1719,-6.1719,-6.1719,-6.1719,-6.1719,-6.1719,-6.1719,-6.1501,-6.1412,-6.1412,-6.119,-6.1118,-6.1118,-6.1049,-6.0933,-6.0781,-6.0781,-6.0781,-6.0781,-6.0781,-6.0781,-6.0781,-6.0781,-6.0781,-6.0781,-6.0781,-6.0781,-6.0781,-6.0781,-6.0781,-6.0793,-6.0888,-6.09,-6.0911,0.0,0.0,0.0,0.0,0.0,0.0,0.0,0.0,0.0,0.0,0.0,0.0,0.0,-7.3168,-7.2552,-7.2206,-7.1668,-7.1245,-7.0937,-7.0898,0.0,0.0,0.0,0.0,-7.0898,-7.0898,-7.0898,-7.0898,-7.0898,-7.0898,-7.0898,-7.0898,-7.0898,-7.0898,-7.0898,-7.0437,-6.9629,-6.8783,-6.7924,-6.7115,-6.6304,-6.6044,-6.6058,-6.6108,-6.6167,-6.6187,-6.6148,-6.6322,-6.6629,-6.7034,-6.7577,-6.8296,-6.9373,-6.9898,-7.0244,-7.0744,-7.0898,-7.0898,-7.0898,-7.0706,-7.0283,-6.9436,-6.859,-6.7756,-6.7134,-6.6644,-6.6373,-6.6576,-6.6727,-6.6795,-6.6795,-6.6795,-6.6717,-6.6405,-6.5936,-6.5507,-6.5194,-6.4384,-6.3611,-6.3068,-6.2727,-6.2303,-6.1757,-6.1718,-6.1719,-6.1719,-6.1719,-6.1719,-6.1719,-6.1575,-6.1474,-6.1412,-6.1291,-6.1178,-6.1059,-6.1008,-6.0933,-6.0781,-6.0781,-6.0781,-6.0781,-6.0781,-6.0781,-6.0781,-6.0781,-6.0781,-6.0781,-6.0781,-6.0843,-6.0877,-6.0877,-6.09,-6.0933,-6.0955,-6.0965,-6.0965,0.0,0.0,0.0,0.0,0.0,0.0,0.0,0.0,0.0,-7.4784,0.0,0.0,0.0,0.0,-7.1745,-7.1745,-7.1245,-7.0898,-7.0898,-7.0898,-7.0898,0.0,0.0,0.0,-7.0898,-7.0898,-7.0898,-7.0898,-7.0898,-7.0898,-7.0898,-7.0898,-7.0898,-7.0898,-7.0629,-7.0052,-6.9206,-6.8321,-6.7525,-6.6769,-6.6262,-6.5943,-6.5816,-6.5887,-6.5941,-6.5955,-6.5879,-6.6058,-6.6392,-6.6787,-6.7103,-6.7518,-6.8624,-6.9343,-6.9862,-7.0348,-7.0706,-7.0898,-7.0898,-7.0898,-7.0706,-6.9898,-6.9052,-6.8243,-6.7658,-6.6888,-6.6386,-6.6658,-6.6781,-6.6795,-6.6795,-6.6795,-6.6795,-6.6795,-6.6366,-6.6014,-6.6014,-6.528,-6.4505,-6.3921,-6.3622,-6.3082,-6.2224,-6.2148,-6.2031,-6.1719,-6.1719,-6.1719,-6.1719,-6.1626,-6.1527,-6.1362,-6.1271,-6.1286,-6.1453,-6.1422,-6.1483,-6.1663,-6.137,-6.1243,-6.1243,-6.0935,-6.0781,-6.0781,-6.0781,-6.0793,-6.0816,-6.0816,-6.0888,-6.0933,-6.0933,-6.0955,-6.0997,-6.1018,-6.098,-6.099,0.0,0.0,0.0,0.0,0.0,0.0,0.0,0.0,-7.4668,-7.463,0.0,0.0,0.0,0.0,0.0,-7.0898,-7.0898,-7.0898,-7.0898,-7.0898,-7.0898,-7.0898,0.0,0.0,-7.0898,-7.0898,-7.0898,-7.0898,-7.0898,-7.0898,-7.0898,-7.0898,-7.0898,-7.0821,-7.0014,-6.9167,-6.8334,-6.7449,-6.6707,-6.6119,-6.6174,-6.5817,-6.5267,-6.5294,-6.5304,-6.5304,-6.52,-6.574,-6.648,-6.6399,-6.6893,-6.758,-6.7585,-6.8622,-6.9844,-6.9733,-7.0233,-7.0848,0.0,0.0,0.0,-6.9886,-6.904,-6.8257,-6.7574,-6.6851,-6.6366,-6.6574,-6.6709,-6.6795,-6.6795,-6.6795,-6.6795,-6.6795,-6.6795,-6.6795,-6.6795,-6.6131,-6.5629,-6.5598,-6.4867,-6.4016,-6.3122,-6.3046,-6.2695,-6.1836,-6.1797,-6.1797,-6.1797,-6.1704,-6.1584,-6.1401,-6.1264,-6.1553,-6.2316,-6.2253,-6.2624,-6.3376,-6.2509,-6.2101,-6.2062,-6.1204,-6.0781,-6.0781,-6.0781,-6.0854,-6.0911,-6.0911,-6.0944,-6.0997,-6.0997,-6.0997,-6.1008,-6.0982,-6.1002,-6.1012,0.0,0.0,0.0,0.0,0.0,0.0,-7.5053,-7.4361,-7.363,0.0,0.0,0.0,-7.1321,-7.1052,-7.0898,-7.0898,-7.0898,-7.0898,-7.0898,-7.0898,-7.0898,-7.0898,-7.0898,-7.0898,-7.0898,-7.0898,-7.0898,-7.0898,-7.0898,-7.0898,-7.0898,-7.0898,-7.0591,-6.9975,-6.9129,-6.8371,-6.7652,-6.743,-6.6873,-6.6183,-6.6351,-6.6334,-6.6161,-6.5574,-6.5361,-6.5283,-6.4655,-6.4964,-6.5698,-6.5561,-6.6106,-6.6885,-6.7431,-6.8341,-6.9173,-6.9136,-6.9264,-6.9449,-6.945,0.0,0.0,0.0,0.0,0.0,-6.7928,-6.7139,-6.6579,-6.6716,-6.6784,-6.6795,-6.6795,-6.6795,-6.6795,-6.6795,-6.6795,-6.6795,-6.6795,-6.66,-6.6251,-6.5668,-6.5372,-6.4912,-6.4016,-6.3944,-6.3828,-6.3594,-6.3594,-6.3594,-6.3594,-6.343,-6.3297,-6.3242,-6.3075,-6.3071,-6.3243,-6.3222,-6.3285,-6.3376,-6.2556,-6.2136,-6.2062,-6.1204,-6.0781,-6.0781,-6.0866,-6.0922,-6.0965,-6.0922,-6.0927,-6.1021,-6.1021,-6.1041,-6.107,-6.1051,-6.106,-6.106,0.0,0.0,0.0,0.0,0.0,0.0,-7.4207,-7.3476,-7.2783,0.0,0.0,0.0,-7.0975,-7.0898,-7.0898,-7.0898,-7.0898,-7.0898,-7.0898,-7.0898,-7.0898,-7.0898,-7.0898,-7.0898,-7.0898,-7.0898,-7.0898,-7.0898,-7.0898,-7.0898,-7.0898,-7.0898,-7.0475,-6.9667,-6.886,-6.8099,-6.7397,-6.7145,-6.6807,-6.6387,-6.6473,-6.619,-6.5571,-6.5134,-6.4713,-6.4322,-6.3814,-6.4205,-6.4983,-6.5259,-6.5939,-6.6748,-6.7082,-6.7787,-6.846,-6.839,-6.8635,-6.89,-6.8917,-6.9259,-6.9531,-6.9026,0.0,0.0,-6.7959,-6.7238,-6.6642,-6.68,-6.685,-6.685,-6.685,-6.685,-6.685,-6.685,-6.685,-6.6846,-6.6798,-6.6795,-6.6639,-6.617,-6.6112,-6.5809,-6.4912,-6.4842,-6.4687,-6.4336,-6.4297,-6.4297,-6.4297,-6.4115,-6.3984,-6.3984,-6.3798,-6.3855,-6.4173,-6.4142,-6.4282,-6.4452,-6.3272,-6.2648,-6.2551,-6.1358,-6.0843,-6.0827,-6.09,-6.0955,-6.099,-6.0959,-6.1,-6.1032,-6.1032,-6.1051,-6.1118,-6.1118,-6.1118,-6.1118,0.0,0.0,0.0,0.0,0.0,0.0,-7.336,-7.2629,-7.2052,0.0,-7.1387,-7.0952,-7.0953,-7.0966,-7.0966,-7.0966,-7.0966,-7.0953,-7.0927,-7.0914,-7.0925,-7.0898,-7.0898,-7.0898,-7.0898,-7.0898,-7.0898,-7.0898,-7.0898,-7.0898,-7.0898,-7.0821,-7.0335,-6.9566,-6.8795,-6.8026,-6.7286,-6.6702,-6.645,-6.6472,-6.6472,-6.5606,-6.4297,-6.418,-6.3672,-6.3008,-6.289,-6.3437,-6.4297,-6.5273,-6.6093,-6.6753,-6.6644,-6.7162,-6.7758,-6.7548,-6.8059,-6.8669,-6.8669,-6.8747,-6.8786,-6.8708,-6.8144,0.0,-6.7781,-6.7208,-6.6677,-6.6857,-6.6904,-6.6902,-6.6902,-6.6902,-6.6901,-6.6901,-6.6901,-6.6857,-6.68,-6.6798,-6.6798,-6.6798,-6.6856,-6.6591,-6.581,-6.5741,-6.543,-6.4648,-6.4609,-6.4609,-6.4609,-6.4389,-6.4296,-6.4296,-6.4108,-6.4338,-6.5141,-6.5051,-6.5385,-6.5974,-6.422,-6.3392,-6.3243,-6.155,-6.0854,-6.0911,-6.0911,-6.0948,-6.1002,-6.1012,-6.1041,-6.1118,-6.1118,-6.1118,-6.1118,-6.1118,-6.1118,-6.1118,0.0,0.0,0.0,0.0,0.0,0.0,-7.2437,-7.1706,-7.1168,-7.1168,-7.1132,-7.1214,-7.1358,-7.1365,-7.1392,-7.1392,-7.1392,-7.1319,-7.1148,-7.1131,-7.1053,-7.0912,-7.0898,-7.0898,-7.0898,-7.0898,-7.0898,-7.0898,-7.0898,-7.0898,-7.0898,-7.0244,-6.9515,-6.8779,-6.7985,-6.7293,-6.6683,-6.5886,-6.5631,-6.5818,-6.5818,-6.5194,-6.4219,-6.3515,-6.3164,-6.289,-6.2226,-6.25,-6.3476,-6.5078,-6.5703,-6.5976,-6.6639,-6.695,-6.7103,-6.7054,-6.7166,-6.7281,-6.7271,-6.7776,-6.8088,-6.7464,-6.7659,0.0,-6.7242,-6.6969,-6.6854,-6.6901,-6.6904,-6.6862,-6.6817,-6.6815,-6.6813,-6.6805,-6.6811,-6.6813,-6.6809,-6.6809,-6.6809,-6.6809,-6.6859,-6.6827,-6.6676,-6.664,-6.6562,-6.6406,-6.6406,-6.6406,-6.6406,-6.6184,-6.6083,-6.6083,-6.5846,-6.5799,-6.5953,-6.5943,-6.5989,-6.6041,-6.4288,-6.3461,-6.3315,-6.1574,-6.0854,-6.0911,-6.0955,-6.098,-6.1012,-6.1051,-6.1109,-6.1118,-6.1118,-6.1118,-6.1118,-6.1118,-6.1118,-6.1118,0.0,-7.3196,0.0,0.0,0.0,0.0,0.0,-7.1325,-7.1112,-7.1038,-7.1231,-7.1409,-7.1497,-7.1481,-7.1496,-7.1496,-7.1496,-7.1459,-7.137,-7.1344,-7.1271,-7.105,-7.1038,-7.1004,-7.0898,-7.0898,-7.0898,-7.0898,-7.0898,-7.0706,-7.0283,-6.9898,-6.909,-6.8006,-6.7665,-6.7152,-6.6567,-6.5785,-6.5265,-6.4961,-6.4961,-6.4414,-6.3594,-6.3164,-6.2734,-6.2305,-6.1875,-6.2265,-6.3125,-6.4023,-6.4609,-6.5117,-6.5976,-6.625,-6.6328,-6.6757,-6.6913,-6.6913,-6.6912,-6.7185,-6.7419,-6.6989,-6.7183,0.0,0.0,-6.691,-6.6908,-6.6911,-6.6911,-6.6872,-6.6869,-6.6869,-6.6868,-6.6866,-6.6867,-6.6867,-6.6859,-6.6857,-6.6857,-6.6857,-6.6865,-6.6909,-6.6911,-6.6914,-6.6914,-6.6914,-6.6914,-6.6914,-6.6914,-6.6719,-6.6646,-6.6595,-6.6392,-6.6253,-6.6185,-6.6185,-6.6155,-6.6102,-6.4348,-6.3494,-6.3384,-6.162,-6.0872,-6.0959,-6.099,-6.1031,-6.1041,-6.1109,-6.1118,-6.1118,-6.1118,-6.1118,-6.1118,-6.1118,-6.1118,-6.1118,-7.3056,-7.2519,0.0,0.0,0.0,0.0,0.0,0.0,-7.1317,-7.1308,-7.1427,-7.153,-7.1593,-7.1605,-7.1611,-7.1611,-7.1611,-7.1599,-7.1536,-7.1524,-7.1442,-7.1262,-7.1252,-7.119,-7.1029,-7.1004,-7.1004,-7.1004,-7.0825,-7.0439,-6.9784,-6.9437,-6.8674,-6.7497,-6.7408,-6.7024,-6.6363,-6.5655,-6.4843,-6.4023,-6.3867,-6.3398,-6.2734,-6.2734,-6.2305,-6.1719,-6.1719,-6.2148,-6.2773,-6.293,-6.3476,-6.4219,-6.5078,-6.5351,-6.5508,-6.6172,-6.6523,-6.664,-6.664,-6.6758,-6.6914,-6.6914,-6.6914,-6.6913,0.0,0.0,0.0,-6.6914,-6.6914,-6.6914,-6.6914,-6.6914,-6.6953,-6.7109,-6.6992,-6.6952,-6.714,-6.7023,-6.6906,-6.6862,-6.6908,-6.6911,-6.6911,-6.6914,-6.6914,-6.6914,-6.6914,-6.6914,-6.6914,-6.6774,-6.6674,-6.6595,-6.6443,-6.6308,-6.6185,-6.6185,-6.6165,-6.6112,-6.437,-6.3527,-6.3477,-6.1726,-6.0948,-6.1002,-6.1002,-6.1032,-6.1118,-6.1118,-6.1118,-6.1118,-6.1118,-6.1118,-6.1118,-6.1118,-6.1118,-6.1118,-7.1389,-7.1312,-7.1282,0.0,0.0,0.0,0.0,0.0,-7.1498,-7.1648,-7.1672,-7.1749,-7.1924,-7.1938,-7.1942,-7.1942,-7.1942,-7.1889,-7.1679,-7.1694,-7.1594,-7.1457,-7.1488,-7.1474,-7.1412,-7.142,-7.1442,-7.1442,-7.0654,-7.024,-7.0123,-6.8571,-6.7828,-6.7798,-6.7058,-6.6349,-6.5658,-6.4804,-6.3945,-6.3086,-6.2305,-6.1953,-6.1836,-6.1836,-6.1797,-6.1719,-6.1719,-6.1758,-6.1953,-6.2734,-6.3086,-6.3281,-6.418,-6.4453,-6.4453,-6.457,-6.5156,-6.5742,-6.5742,-6.6328,-6.6914,-6.6914,-6.6914,-6.6914,-6.6914,0.0,-6.6914,-6.6914,0.0,-6.6914,-6.6912,0.0,0.0,-6.7843,-6.7379,-6.7185,-6.7926,-6.7382,-6.6873,-6.6817,-6.6866,-6.6911,-6.6911,-6.6914,-6.6914,-6.6914,-6.6914,-6.6914,-6.6914,-6.6736,-6.6605,-6.659,-6.6337,-6.6205,-6.6185,-6.6185,-6.6185,-6.6175,-6.4423,-6.358,-6.3541,-6.178,-6.098,-6.1002,-6.1002,-6.1032,-6.1118,-6.1118,-6.1118,-6.1118,-6.1118,-6.1118,-6.1118,-6.1118,-6.1118,-6.1118,-7.1239,-7.1268,-7.132,-7.1428,0.0,0.0,0.0,0.0,-7.1698,-7.185,-7.1858,-7.1902,-7.1989,-7.1991,-7.1992,-7.1992,-7.1992,-7.1951,-7.1864,-7.1859,-7.1795,-7.1624,-7.1619,-7.1583,-7.1485,-7.0997,-7.0749,-7.0749,-6.9872,-6.9204,-6.8667,-6.7928,-6.7436,-6.7138,-6.6755,-6.6217,-6.5546,-6.4687,-6.3789,-6.293,-6.2031,-6.1719,-6.1719,-6.1719,-6.1719,-6.1719,-6.1719,-6.1719,-6.1758,-6.2109,-6.2265,-6.2383,-6.3281,-6.3555,-6.3633,-6.414,-6.457,-6.4961,-6.5469,-6.5859,-6.6289,-6.6758,-6.6914,-6.6914,-6.6914,-6.6914,-6.6914,-6.6914,0.0,0.0,0.0,0.0,0.0,0.0,-6.7538,-6.7772,-6.8161,-6.8281,-6.7968,-6.6988,-6.6873,-6.6914,-6.6914,-6.6914,-6.6914,-6.6914,-6.6914,-6.6914,-6.6914,-6.6824,-6.6736,-6.6595,-6.6491,-6.6376,-6.6185,-6.6185,-6.6185,-6.6185,-6.4433,-6.3611,-6.3603,-6.1803,-6.1031,-6.1051,-6.1051,-6.106,-6.1118,-6.1118,-6.1118,-6.1118,-6.1118,-6.1118,-6.1118,-6.1118,-6.1118,-6.1118,-7.1474,-7.1474,-7.152,-7.1622,0.0,0.0,0.0,0.0,-7.1815,-7.1992,-7.1992,-7.1992,-7.1992,-7.1992,-7.1992,-7.1992,-7.1797,-7.164,-7.164,-7.1406,-7.1246,-7.1099,-7.1097,-7.1033,-7.0946,-7.0313,-6.9996,-6.9996,-6.9128,-6.8343,-6.773,-6.7491,-6.7157,-6.668,-6.6446,-6.5922,-6.5195,-6.4297,-6.3437,-6.2578,-6.1953,-6.1719,-6.1719,-6.1719,-6.1719,-6.1719,-6.1719,-6.1719,-6.1719,-6.1719,-6.1719,-6.1797,-6.2422,-6.2656,-6.2773,-6.3398,-6.375,-6.4062,-6.4726,-6.5234,-6.5742,-6.6406,-6.6719,-6.6914,-6.6914,-6.6914,-6.6914,-6.6914,-6.6914,0.0,0.0,0.0,-6.6992,-6.7226,0.0,-6.8281,-6.8514,-6.9062,-6.8984,-6.7734,-6.7382,-6.7265,-6.7265,-6.7031,-6.6914,-6.6914,-6.6914,-6.6914,-6.6914,-6.6874,-6.677,-6.66,-6.6563,-6.6429,-6.6185,-6.6185,-6.6185,-6.6185,-6.4443,-6.3641,-6.3642,-6.1853,-6.1041,-6.1118,-6.1118,-6.1118,-6.1118,-6.1118,-6.1118,-6.1118,-6.1118,-6.1118,-6.1118,-6.1118,-6.1118,-6.1118,-7.1774,-7.1725,-7.1731,-7.1777,-7.1789,-7.1846,0.0,-7.1992,-7.1992,-7.1992,-7.1992,-7.1992,-7.1992,-7.1992,-7.1992,-7.1992,-7.1211,-7.0742,-7.0742,-6.9961,-6.9492,-6.957,-6.9492,-6.9453,-6.9453,-6.945,-6.9449,-6.9449,-6.8544,-6.8112,-6.8073,-6.7292,-6.6905,-6.6833,-6.6012,-6.5155,-6.4297,-6.3398,-6.2539,-6.1758,-6.1719,-6.1719,-6.1719,-6.1719,-6.1719,-6.1719,-6.1719,-6.1719,-6.1719,-6.1719,-6.1719,-6.1719,-6.1719,-6.1758,-6.1758,-6.1797,-6.2383,-6.3047,-6.3086,-6.4336,-6.5625,-6.5625,-6.6289,-6.6914,-6.6914,-6.6914,-6.6914,-6.6914,-6.6914,-6.6914,-6.6914,-6.6914,-6.7187,0.0,-6.8164,0.0,0.0,-6.9492,-6.9452,-6.9328,-6.8628,-6.8162,-6.8164,-6.7383,-6.6914,-6.6914,-6.6914,-6.6914,-6.6914,-6.6782,-6.6652,-6.6595,-6.6471,-6.6351,-6.6185,-6.6185,-6.6185,-6.6185,-6.4483,-6.3719,-6.3642,-6.1892,-6.1118,-6.1118,-6.1118,-6.1118,-6.1118,-6.1118,-6.1118,-6.1118,-6.1118,-6.1118,-6.1118,-6.1118,-6.1118,-6.1118,-7.1947,-7.1902,-7.1898,-7.1947,-7.1948,-7.195,-7.1992,-7.1992,-7.1992,-7.1992,-7.1992,-7.1797,-7.1211,-7.1133,-7.0898,-7.0312,-7.0039,-6.9922,-6.9922,-6.9648,-6.9492,-6.9492,-6.9453,-6.9414,-6.9414,-6.8867,-6.8593,-6.8593,-6.7733,-6.7303,0.0,0.0,0.0,-6.6874,-6.5976,-6.5117,-6.4258,-6.3359,-6.25,-6.1719,-6.1719,-6.1719,-6.1719,-6.1719,-6.1719,-6.1719,-6.1719,-6.1719,-6.1719,-6.1719,-6.1719,-6.1719,-6.1719,-6.1719,-6.1719,-6.1719,-6.1914,-6.2265,-6.2851,-6.3437,-6.4023,-6.4609,-6.539,-6.6055,-6.6055,-6.6484,-6.6914,-6.6914,-6.6914,-6.6914,-6.6914,-6.6914,0.0,0.0,0.0,0.0,0.0,-7.043,-7.1133,-7.1132,-6.9882,-6.8828,-6.8242,-6.793,-6.7539,-6.6953,-6.6914,-6.6914,-6.6914,-6.6873,-6.6768,-6.66,-6.6552,-6.6422,-6.6185,-6.6185,-6.6185,-6.6185,-6.4493,-6.3719,-6.3642,-6.1892,-6.1118,-6.1118,-6.1118,-6.1118,-6.1118,-6.1118,-6.1118,-6.1118,-6.1118,-6.1118,-6.1118,-6.1118,-6.1118,-6.1118,-7.1992,-7.1992,-7.1992,-7.1992,-7.1992,-7.1992,-7.1992,-7.1992,-7.1875,-7.1562,-7.1523,-7.1211,-7.0351,-7.0273,-7.0039,-6.9453,-6.918,-6.9023,-6.9023,-6.875,-6.8594,-6.8594,-6.8515,-6.8515,-6.8515,-6.8008,-6.7734,-6.7734,-6.7187,-6.6914,0.0,0.0,0.0,0.0,-6.5547,-6.4648,-6.3789,-6.289,-6.2226,-6.1719,-6.1719,-6.1719,-6.1719,-6.1719,-6.1719,-6.1719,-6.1719,-6.1719,-6.1719,-6.1719,-6.1719,-6.1719,-6.1719,-6.1719,-6.1719,-6.1719,-6.1719,-6.1836,-6.2383,-6.2773,-6.3125,-6.3711,-6.4492,-6.5234,-6.5547,-6.6015,-6.6523,-6.6836,-6.6914,-6.6914,-6.6914,-6.6914,0.0,0.0,0.0,0.0,0.0,-7.082,-7.164,-7.1953,-7.0781,-6.9726,-6.914,-6.8555,-6.7969,-6.7383,-6.707,-6.6914,-6.6914,-6.6914,-6.6826,-6.665,-6.6615,-6.6497,-6.6263,-6.6225,-6.6069,-6.576,-6.4377,-6.3526,-6.3168,-6.1737,-6.1118,-6.1118,-6.1118,-6.1118,-6.1118,-6.1118,-6.1118,-6.1118,-6.1118,-6.1118,-6.1118,-6.1118,-6.1118,-6.1118,-7.1992,-7.1992,-7.1992,-7.1992,-7.1992,-7.1992,-7.1953,-7.1953,-7.1601,-7.0742,-7.0625,-7.0312,-6.9531,-6.9453,-6.9375,-6.9297,-6.8594,-6.8125,-6.8125,-6.7344,-6.6914,-6.6914,-6.6914,-6.6914,-6.6914,-6.6914,-6.6914,-6.6914,-6.6914,-6.6914,0.0,0.0,0.0,0.0,-6.4648,-6.3789,-6.293,-6.207,-6.1719,-6.1719,-6.1719,-6.1719,-6.1719,-6.1719,-6.1719,-6.1719,-6.1719,-6.1719,-6.1719,-6.1719,-6.1719,-6.1719,-6.1719,-6.1719,-6.1719,-6.1719,-6.1719,-6.1719,-6.1719,-6.2305,-6.293,-6.293,-6.3594,-6.4453,-6.5273,-6.5508,-6.5781,-6.664,-6.6836,-6.6836,-6.6875,-6.6914,-6.6914,0.0,0.0,0.0,-7.0351,-7.0625,-7.0976,-7.1836,-7.1172,-7.0664,-7.0703,-6.9219,-6.8242,-6.8203,-6.7383,-6.6914,-6.6914,-6.6914,-6.6832,-6.668,-6.6646,-6.6534,-6.6392,-6.6292,-6.5799,-6.4986,-6.4106,-6.3245,-6.2356,-6.1505,-6.1118,-6.1118,-6.1118,-6.1118,-6.1118,-6.1118,-6.1118,-6.1118,-6.1118,-6.1118,-6.1118,-6.1118,-6.1118,-6.1118,-7.1992,-7.1992,-7.1992,-7.1992,-7.1992,-7.1797,-7.1133,-7.1015,-7.0703,-6.9844,-6.9765,-6.9492,-6.8633,-6.8515,-6.8281,-6.7617,-6.7344,-6.7226,-6.7226,-6.7031,-6.6914,-6.6914,-6.6914,-6.6914,-6.6914,-6.6914,-6.6914,-6.6914,-6.6914,-6.6914,-6.6875,0.0,0.0,0.0,-6.4023,-6.3203,-6.293,-6.207,-6.1719,-6.1719,-6.1719,-6.1719,-6.1719,-6.1719,-6.1719,-6.1719,-6.1719,-6.1719,-6.1719,-6.1719,-6.1719,-6.1719,-6.1719,-6.1719,-6.1719,-6.1719,-6.1719,-6.1719,-6.1719,-6.1875,-6.2031,-6.2031,-6.2695,-6.3398,-6.3633,-6.418,-6.4883,-6.5742,-6.5937,-6.6133,-6.6797,-6.6914,-6.6914,-6.6914,-6.7617,-6.8359,-6.8789,-6.9414,-7.0117,-7.0937,-7.0312,-7.0039,-7.0625,-6.9726,-6.8828,-6.8242,-6.7383,-6.6914,-6.6914,-6.6914,-6.6832,-6.668,-6.6646,-6.6534,-6.6392,-6.6292,-6.5799,-6.4986,-6.4106,-6.3245,-6.2356,-6.1505,-6.1118,-6.1118,-6.1118,-6.1118,-6.1118,-6.1118,-6.1118,-6.1118,-6.1118,-6.1118,-6.1118,-6.1118,-6.1118,-6.1118,-7.1992,-7.168,-7.1445,-7.1445,-7.1133,-7.0859,-7.0703,-7.039,-6.9844,-6.8984,-6.8906,-6.8594,-6.7734,-6.7617,-6.7422,-6.6953,-6.6914,-6.6914,-6.6914,-6.6914,-6.6914,-6.6914,-6.6914,-6.6914,-6.6914,-6.6914,-6.6914,-6.6914,-6.6523,-6.6328,-6.6328,0.0,0.0,0.0,-6.3437,-6.2773,-6.2383,-6.1914,-6.1719,-6.1719,-6.1719,-6.1719,0.0,-6.1719,-6.1719,-6.1719,-6.1719,-6.1719,-6.1719,-6.1719,-6.1719,-6.1719,-6.1719,-6.1719,-6.1719,-6.1719,-6.1719,-6.1719,-6.1719,-6.1719,-6.1719,-6.1719,-6.207,-6.2539,-6.289,-6.3398,-6.4101,-6.5351,-6.5586,-6.5859,-6.6758,-6.6914,-6.6914,-6.6914,-6.7305,-6.7773,-6.8164,-6.8633,-6.9219,-7.0039,-6.9765,-6.9687,-7.0078,-6.9375,-6.8672,-6.8242,-6.7383,-6.6914,-6.6914,-6.6914,-6.6874,-6.6785,-6.6697,-6.6571,-6.6491,-6.6329,-6.5654,-6.4416,-6.3952,-6.3052,-6.1814,-6.1311,-6.1118,-6.1118,-6.1118,-6.1118,-6.1118,-6.1118,-6.1118,-6.1118,-6.1118,-6.1118,-6.1118,-6.1118,-6.1118,-6.1118,-7.168,-7.1055,-7.0547,-7.0547,-6.9844,-6.957,-7.0273,-6.9726,-6.8945,-6.8125,-6.8047,-6.7734,-6.6992,-6.6914,-6.6914,-6.6914,-6.6914,-6.6914,-6.6914,-6.6914,-6.6836,-6.6719,-6.6719,-6.668,-6.6562,-6.6562,-6.6562,-6.6562,-6.5781,-6.543,0.0,0.0,0.0,0.0,-6.289,-6.2422,-6.1719,-6.1719,-6.1719,-6.1719,-6.1719,-6.1719,-6.1719,-6.1719,-6.1719,-6.1719,-6.1719,-6.1719,-6.1719,-6.1719,-6.1719,-6.1719,-6.1719,-6.1719,-6.1719,-6.1719,-6.1719,-6.1719,-6.1719,-6.1719,-6.1719,-6.1719,-6.1719,-6.1914,-6.2656,-6.2812,-6.3281,-6.4922,-6.5351,-6.5703,-6.6562,-6.6836,-6.6914,-6.6914,-6.6914,-6.7148,-6.793,-6.8047,-6.832,-6.914,-6.918,0.0,-6.9258,-6.8594,-6.8203,-6.8203,-6.7383,-6.6914,-6.6914,-6.6914,-6.6914,-6.6914,-6.6779,-6.6652,-6.6615,-6.6478,-6.5505,-6.3719,-6.369,-6.2781,-6.1118,-6.1118,-6.1118,-6.1118,-6.1118,-6.1118,-6.1118,-6.1118,-6.1118,-6.1118,-6.1118,-6.1118,-6.1118,-6.1118,-6.1118,-6.1118,-7.0,-6.9726,-6.9648,-6.9648,-6.8945,-6.8476,-6.8633,-6.8515,-6.8086,-6.7226,-6.7148,-6.707,-6.6914,-6.6914,-6.6914,-6.6914,-6.6914,-6.6914,-6.6914,-6.6914,-6.6562,-6.5859,-6.582,-6.5508,-6.4765,-6.4765,-6.4765,-6.4765,-6.4609,-6.4531,0.0,0.0,0.0,0.0,-6.2265,-6.1836,-6.1719,-6.1719,-6.1719,-6.1719,-6.1719,-6.1719,-6.1719,-6.1719,-6.1719,-6.1719,-6.1719,-6.1719,-6.1719,-6.1719,-6.1719,-6.1719,-6.1719,-6.1719,-6.1719,-6.1719,-6.1719,-6.1719,-6.1719,-6.1719,-6.1719,-6.1719,-6.1719,-6.1758,-6.1875,-6.1914,-6.2226,-6.3242,-6.4023,-6.4805,-6.5664,-6.6406,-6.6914,-6.6914,-6.6914,-6.6953,-6.7109,-6.7148,-6.7461,-6.832,-6.7773,-6.7617,-6.8359,-6.8281,-6.8203,-6.8203,-6.7383,-6.6914,-6.6914,-6.6914,-6.6914,-6.6914,-6.6779,-6.6675,-6.6664,-6.6483,-6.5522,-6.3798,-6.3717,-6.2781,-6.1118,-6.1118,-6.1118,-6.1118,-6.1118,-6.1118,-6.1118,-6.1118,-6.1118,-6.1118,-6.1118,-6.1118,-6.1118,-6.1118,-6.1118,-6.1118,-6.9492,-6.9062,-6.8789,-6.8789,-6.8086,-6.7539,-6.7539,-6.7539,-6.7383,-6.6953,-6.6914,-6.6914,-6.6914,-6.6914,-6.6719,-6.6289,-6.6211,-6.6015,-6.5586,-6.5547,-6.5351,-6.4922,-6.4922,-6.4726,-6.4297,-6.4297,-6.4297,-6.4297,-6.3867,-6.3633,0.0,0.0,0.0,-6.2305,0.0,-6.1719,-6.1719,-6.1719,-6.1719,-6.1719,-6.1719,-6.1719,-6.1719,-6.1719,-6.1719,-6.1719,-6.1719,-6.1719,-6.1719,-6.1719,-6.1719,-6.1719,-6.1719,-6.1719,-6.1719,-6.1719,-6.1719,-6.1719,-6.1719,-6.1719,-6.1719,-6.1719,-6.1719,-6.1719,-6.1719,-6.1719,-6.1953,-6.2812,-6.3672,-6.4687,-6.6015,-6.6601,-6.6914,-6.6914,-6.6914,-6.6914,-6.6914,-6.6914,-6.707,-6.7461,-6.7148,-6.707,-6.7461,-6.7539,-6.7539,-6.7539,-6.7148,-6.6914,-6.6914,-6.6914,-6.6914,-6.6914,-6.6832,-6.6781,-6.6719,-6.6132,-6.5155,-6.3796,-6.327,-6.2356,-6.1118,-6.1118,-6.1118,-6.1118,-6.1118,-6.1118,-6.1118,-6.1118,-6.1118,-6.1118,-6.1118,-6.1118,-6.1118,-6.1118,-6.1118,-6.1118,-6.8867,-6.8359,-6.793,-6.793,-6.7344,-6.6914,-6.6914,-6.6758,-6.668,-6.6875,-6.6758,-6.6601,-6.6601,-6.6445,-6.6055,-6.539,-6.5312,-6.5039,-6.4336,-6.4297,-6.4219,-6.4023,-6.4023,-6.3945,-6.375,-6.375,-6.375,-6.375,-6.3047,-6.2734,-6.2695,0.0,0.0,-6.1719,-6.1719,-6.1719,-6.1719,-6.1719,-6.1719,-6.1719,-6.1719,-6.1719,-6.1719,-6.1719,-6.1719,-6.1719,-6.1719,-6.1719,-6.1719,-6.1719,-6.1719,-6.1719,-6.1719,-6.1719,-6.1719,-6.1719,-6.1719,-6.1719,-6.1719,-6.1719,-6.1719,-6.1719,-6.1719,-6.1719,-6.1719,-6.1719,-6.1875,-6.2578,-6.3555,-6.4765,-6.6328,-6.6797,-6.6914,-6.6914,-6.6914,-6.6914,-6.6914,-6.6914,-6.6914,-6.6914,-6.6914,-6.6914,-6.6914,-6.6914,-6.6914,-6.6914,-6.6914,-6.6914,-6.6914,-6.6914,-6.6914,-6.6914,-6.6914,-6.6833,-6.6733,-6.5761,-6.4805,-6.3845,-6.2861,-6.193,-6.1118,-6.1118,-6.1118,-6.1118,-6.1118,-6.1118,-6.1118,-6.1118,-6.1118,-6.1118,-6.1118,-6.1118,-6.1118,-6.1118,-6.1118,-6.1118,-6.7148,-6.707,-6.7031,-6.7031,-6.6953,-6.6914,-6.6914,-6.6211,-6.6015,-6.6797,-6.6211,-6.5703,-6.5703,-6.5039,-6.4492,-6.4414,-6.4414,-6.4375,-6.4297,-6.4297,-6.3945,-6.3164,-6.3125,-6.2734,-6.1953,-6.1953,-6.1953,-6.1953,-6.1875,-6.1836,-6.1836,0.0,0.0,-6.1719,-6.1719,-6.1719,-6.1719,-6.1719,-6.1719,-6.1719,-6.1719,-6.1719,-6.1719,-6.1719,-6.1719,-6.1719,-6.1719,-6.1719,-6.1719,-6.1719,-6.1719,-6.1719,-6.1719,-6.1719,-6.1719,-6.1719,-6.1719,-6.1719,-6.1719,-6.1719,-6.1719,-6.1719,-6.1719,-6.1719,-6.1719,-6.1719,-6.1719,-6.1797,-6.3125,-6.4609,-6.5547,-6.6367,-6.6914,-6.6914,-6.6914,-6.6914,-6.6914,-6.6914,-6.6914,-6.6914,-6.6914,-6.6914,-6.6914,-6.6914,-6.6914,-6.6914,-6.6914,-6.6914,-6.6914,-6.6914,-6.6914,-6.6914,-6.6914,-6.6875,-6.6874,-6.5826,-6.4842,-6.3979,-6.292,-6.193,-6.1118,-6.1118,-6.1118,-6.1118,-6.1118,-6.1118,-6.1118,-6.1118,-6.1118,-6.1118,-6.1118,-6.1118,-6.1118,-6.1118,-6.1118,-6.1118,-6.6914,-6.6914,-6.6914,-6.6914,-6.6484,-6.6133,-6.6133,-6.539,-6.4922,-6.5273,-6.5039,-6.4805,-6.4805,-6.4492,-6.4101,-6.3555,-6.3515,-6.3281,-6.2773,-6.2734,-6.2578,-6.2226,-6.2226,-6.207,-6.1719,-6.1719,-6.1719,-6.1719,-6.1719,-6.1719,-6.1719,-6.1719,-6.1719,-6.1719,-6.1719,-6.1719,-6.1719,-6.1719,-6.1719,-6.1719,-6.1719,-6.1719,-6.1719,-6.1719,-6.1719,-6.1719,-6.1719,-6.1719,-6.1719,-6.1719,-6.1719,-6.1719,-6.1719,-6.1719,-6.1719,-6.1719,-6.1719,-6.1719,-6.1719,-6.1719,-6.1719,-6.1719,-6.1719,-6.1719,-6.1719,-6.1719,-6.1719,-6.1719,-6.3086,-6.457,-6.543,-6.6328,-6.6914,-6.6914,-6.6914,-6.6914,-6.6914,-6.6914,-6.6914,-6.6914,-6.6914,-6.6914,-6.6914,-6.6914,-6.6914,-6.6914,-6.6914,-6.6914,-6.6914,-6.6914,-6.6914,-6.6914,-6.6914,-6.66,-6.6004,-6.5031,-6.4042,-6.3151,-6.2103,-6.1427,-6.1118,-6.1118,-6.1118,-6.1118,-6.1118,-6.1118,-6.1118,-6.1118,-6.1118,-6.1118,-6.1118,-6.1118,-6.1118,-6.1118,-6.1118,-6.1118,-6.6562,-6.6523,-6.6445,-6.6172,-6.5625,-6.5234,-6.5234,-6.4492,-6.3906,-6.3906,-6.3672,-6.3633,-6.3906,-6.3672,-6.3281,-6.2656,-6.2617,-6.2344,-6.1758,-6.1719,-6.1719,-6.1719,-6.1719,-6.1719,-6.1719,-6.1719,-6.1719,-6.1719,-6.1719,-6.1719,-6.1719,-6.1719,-6.1719,-6.1719,-6.1719,-6.1719,-6.1719,-6.1719,-6.1719,-6.1719,-6.1719,-6.1719,-6.1719,-6.1719,-6.1719,-6.1719,-6.1719,-6.1719,-6.1719,-6.1719,-6.1719,-6.1719,-6.1719,-6.1719,-6.1719,-6.1719,-6.1719,-6.1719,-6.1719,-6.1719,-6.1719,-6.1719,-6.1719,-6.1719,-6.1719,-6.1719,-6.1719,-6.1719,-6.289,-6.418,-6.5078,-6.5937,-6.6601,-6.6875,-6.6914,-6.6914,-6.6914,-6.6914,-6.6914,-6.6914,-6.6914,-6.6914,-6.6914,-6.6914,-6.6914,-6.6914,-6.6914,-6.6914,-6.6914,-6.6914,-6.6914,-6.6914,-6.6914,-6.6403,-6.5397,-6.447,-6.3514,-6.2599,-6.1565,-6.1118,-6.1118,-6.1118,-6.1118,-6.1118,-6.1118,-6.1118,-6.1118,-6.1118,-6.1118,-6.1118,-6.1118,-6.1118,-6.1118,-6.1118,-6.1118,-6.1118,-6.5781,-6.5625,-6.5351,-6.4492,-6.4336,-6.4336,-6.4336,-6.3594,-6.3008,-6.3008,-6.2265,-6.207,-6.293,-6.2265,-6.1719,-6.1719,-6.1719,-6.1719,-6.1719,-6.1719,-6.1719,-6.1719,-6.1719,-6.1719,-6.1719,-6.1719,-6.1719,-6.1719,-6.1719,-6.1719,-6.1719,-6.1719,-6.1719,-6.1719,-6.1719,-6.1719,-6.1719,-6.1719,-6.1719,-6.1719,-6.1719,-6.1719,-6.1719,-6.1719,-6.1719,-6.1719,-6.1719,-6.1719,-6.1719,-6.1719,-6.1719,-6.1719,-6.1719,-6.1719,-6.1719,-6.1719,-6.1719,-6.1719,-6.1719,-6.1719,-6.1719,-6.1719,-6.1719,-6.1719,-6.1719,-6.1719,-6.1719,-6.1719,-6.2383,-6.3281,-6.414,-6.5039,-6.5898,-6.6758,-6.6914,-6.6914,-6.6914,-6.6914,-6.6914,-6.6914,-6.6914,-6.6914,-6.6914,-6.6914,-6.6914,-6.6914,-6.6914,-6.6914,-6.6914,-6.6914,-6.6914,-6.6914,-6.6914,-6.6403,-6.5397,-6.447,-6.3514,-6.2599,-6.1565,-6.1118,-6.1118,-6.1118,-6.1118,-6.1118,-6.1118,-6.1118,-6.1118,-6.1118,-6.1118,-6.1118,-6.1118,-6.1118,-6.1118,-6.1118,-6.1118,-6.1118,-6.4765,-6.4726,-6.4648,-6.4336,-6.3828,-6.3398,-6.3398,-6.2656,-6.2109,-6.2109,-6.1875,-6.1797,-6.207,-6.1875,-6.1719,-6.1719,-6.1719,-6.1719,-6.1719,-6.1719,-6.1719,-6.1719,-6.1719,-6.1719,-6.1719,-6.1719,-6.1719,-6.1719,-6.1719,-6.1719,-6.1719,-6.1719,-6.1719,-6.1719,-6.1719,-6.1719,-6.1719,-6.1719,-6.1719,-6.1719,-6.1719,-6.1719,-6.1719,-6.1719,-6.1719,-6.1719,-6.1719,-6.1719,-6.1719,-6.1719,-6.1719,-6.1719,-6.1719,-6.1719,-6.1719,-6.1719,-6.1719,-6.1719,-6.1719,-6.1719,-6.1719,-6.1719,-6.1719,-6.1719,-6.1719,-6.1719,-6.1719,-6.1719,-6.2851,-6.3984,-6.4258,-6.5508,-6.6562,-6.6836,-6.6914,-6.6914,-6.6914,-6.6914,-6.6914,-6.6914,-6.6914,-6.6914,-6.6914,-6.6914,-6.6914,-6.6914,-6.6914,-6.6914,-6.6914,-6.6914,-6.6914,-6.6914,-6.6328,-6.5498,-6.447,-6.354,-6.2612,-6.1565,-6.1262,-6.1118,-6.1118,-6.1118,-6.1118,-6.1118,-6.1118,-6.1118,-6.1118,-6.1118,-6.1118,-6.1118,-6.1118,-6.1118,-6.1118,-6.1118,-6.1118,-6.1118,-6.3867,-6.3828,-6.3711,-6.3398,-6.2851,-6.25,-6.25,-6.2031,-6.1719,-6.1719,-6.1719,-6.1719,-6.1719,-6.1719,-6.1719,-6.1719,-6.1719,-6.1719,-6.1719,-6.1719,-6.1719,-6.1719,-6.1719,-6.1719,-6.1719,-6.1719,-6.1719,-6.1719,-6.1719,-6.1719,-6.1719,-6.1719,-6.1719,-6.1719,-6.1719,-6.1719,-6.1719,-6.1719,-6.1719,-6.1719,-6.1719,-6.1719,-6.1719,-6.1719,-6.1719,-6.1719,-6.1719,-6.1719,-6.1719,-6.1719,-6.1719,-6.1719,-6.1719,-6.1719,-6.1719,-6.1719,-6.1719,-6.1719,-6.1719,-6.1719,-6.1719,-6.1719,-6.1719,-6.1719,-6.1719,-6.1719,-6.1719,-6.1719,-6.2812,-6.3906,-6.4258,-6.5469,-6.6523,-6.6836,-6.6914,-6.6914,-6.6914,-6.6914,-6.6914,-6.6914,-6.6914,-6.6914,-6.6914,-6.6914,-6.6914,-6.6914,-6.6914,-6.6914,-6.6914,-6.6914,-6.6914,-6.6914,-6.6055,-6.5064,-6.3999,-6.3136,-6.2154,-6.1118,-6.1118,-6.1118,-6.1118,-6.1118,-6.1118,-6.1118,-6.1118,-6.1118,-6.1118,-6.1118,-6.1118,-6.1118,-6.1118,-6.1118,-6.1118,-6.1118,-6.1118,-6.1118,-6.3086,-6.289,-6.2656,-6.1836,-6.1719,-6.1719,-6.1719,-6.1719,-6.1719,-6.1719,-6.1719,-6.1719,-6.1719,-6.1719,-6.1719,-6.1719,-6.1719,-6.1719,-6.1719,-6.1719,-6.1719,-6.1719,-6.1719,-6.1719,-6.1719,-6.1719,-6.1719,-6.1719,-6.1719,-6.1719,-6.1719,-6.1719,-6.1719,-6.1719,-6.1719,-6.1719,-6.1719,-6.1719,-6.1719,-6.1719,-6.1719,-6.1719,-6.1719,-6.1719,-6.1719,-6.1719,-6.1719,-6.1719,-6.1719,-6.1719,-6.1719,-6.1719,-6.1719,-6.1719,-6.1719,-6.1719,-6.1719,-6.1719,-6.1719,-6.1719,-6.1719,-6.1719,-6.1719,-6.1719,-6.1719,-6.1719,-6.1719,-6.1719,-6.2422,-6.3359,-6.414,-6.5078,-6.5976,-6.6758,-6.6914,-6.6914,-6.6914,-6.6914,-6.6914,-6.6914,-6.6914,-6.6914,-6.6914,-6.6914,-6.6914,-6.6914,-6.6914,-6.6914,-6.6914,-6.6836,-6.6797,-6.6797,-6.5976,-6.4983,-6.3921,-6.3049,-6.2108,-6.1118,-6.1118,-6.1118,-6.1118,-6.1118,-6.1118,-6.1118,-6.1118,-6.1118,-6.1118,-6.1118,-6.1118,-6.1118,-6.1118,-6.1118,-6.1118,-6.1118,-6.1118,-6.1118,-6.2031,-6.1992,-6.1953,-6.1758,-6.1719,-6.1719,-6.1719,-6.1719,-6.1719,-6.1719,-6.1719,-6.1719,-6.1719,-6.1719,-6.1719,-6.1719,-6.1719,-6.1719,-6.1719,-6.1719,-6.1719,-6.1719,-6.1719,-6.1719,-6.1719,-6.1719,-6.1719,-6.1719,-6.1719,-6.1719,-6.1719,-6.1719,-6.1719,-6.1719,-6.1719,-6.1719,-6.1719,-6.1719,-6.1719,-6.1719,-6.1719,-6.1719,-6.1719,-6.1719,-6.1719,-6.1719,-6.1719,-6.1719,-6.1719,-6.1719,-6.1719,-6.1719,-6.1719,-6.1719,-6.1719,-6.1719,-6.1719,-6.1719,-6.1719,-6.1719,-6.1719,-6.1719,-6.1719,-6.1719,-6.1719,-6.1719,-6.1719,-6.1719,-6.293,-6.4062,-6.4258,-6.5547,-6.664,-6.6875,-6.6914,-6.6914,-6.6914,-6.6914,-6.6914,-6.6914,-6.6914,-6.6914,-6.6914,-6.6914,-6.6914,-6.6914,-6.6914,-6.6914,-6.6914,-6.6289,-6.5898,-6.5898,-6.4991,-6.4055,-6.302,-6.2073,-6.1461,-6.1118,-6.1118,-6.1118,-6.1118,-6.1118,-6.1118,-6.1118,-6.1118,-6.1118,-6.1118,-6.1118,-6.1118,-6.1118,-6.1118,-6.1118,-6.1118,-6.1118,-6.1118,-6.1118,-6.1719,-6.1719,-6.1719,-6.1719,-6.1719,-6.1719,-6.1719,-6.1719,-6.1719,-6.1719,-6.1719,-6.1719,-6.1719,-6.1719,-6.1719,-6.1719,-6.1719,-6.1719,-6.1719,-6.1719,-6.1719,-6.1719,-6.1719,-6.1719,-6.1719,-6.1719,-6.1719,-6.1719,-6.1719,-6.1719,-6.1719,-6.1719,-6.1719,-6.1719,-6.1719,-6.1719,-6.1719,-6.1719,-6.1719,-6.1719,-6.1719,-6.1719,-6.1719,-6.1719,-6.1719,-6.1719,-6.1719,-6.1719,-6.1719,-6.1719,-6.1719,-6.1719,-6.1719,-6.1719,-6.1719,-6.1719,-6.1719,-6.1719,-6.1719,-6.1719,-6.1719,-6.1719,-6.1719,-6.1719,-6.1719,-6.1719,-6.1797,-6.2226,-6.3359,-6.4414,-6.4805,-6.5976,-6.6914,-6.6914,-6.6914,-6.6914,-6.6914,-6.6914,-6.6914,-6.6914,-6.6914,-6.6914,-6.6914,-6.6914,-6.6914,-6.6914,-6.6914,-6.6914,-6.6914,-6.6055,-6.5586,-6.5586,-6.4283,-6.3296,-6.2703,-6.1705,-6.1186,-6.1118,-6.1118,-6.1118,-6.1118,-6.1118,-6.1118,-6.1118,-6.1118,-6.1118,-6.1118,-6.1118,-6.1118,-6.1118,-6.1118,-6.1118,-6.1118,-6.1118,-6.1118,-6.1118,-6.1719,-6.1719,-6.1719,-6.1719,-6.1719,-6.1719,-6.1719,-6.1719,-6.1719,-6.1719,-6.1719,-6.1719,-6.1719,-6.1719,-6.1719,-6.1719,-6.1719,-6.1719,-6.1719,-6.1719,-6.1719,-6.1719,-6.1719,-6.1719,-6.1719,-6.1719,-6.1719,-6.1719,-6.1719,-6.1719,-6.1719,-6.1719,-6.1719,-6.1719,-6.1719,-6.1719,-6.1719,-6.1719,-6.1719,-6.1719,-6.1719,-6.1719,-6.1719,-6.1719,-6.1719,-6.1719,-6.1719,-6.1719,-6.1719,-6.1719,-6.1719,-6.1719,-6.1719,-6.1719,-6.1719,-6.1719,-6.1719,-6.1719,-6.1719,-6.1719,-6.1719,-6.1719,-6.1719,-6.1719,-6.1875,-6.1914,-6.2148,-6.3008,-6.3906,-6.4726,-6.5469,-6.6328,-6.6914,-6.6914,-6.6914,-6.6914,-6.6914,-6.6914,-6.6914,-6.6914,-6.6914,-6.6914,-6.6914,-6.6914,-6.6914,-6.6914,-6.6797,-6.6719,-6.6719,-6.5742,-6.5195,-6.5195,-6.3691,-6.273,-6.2463,-6.1554,-6.1118,-6.1118,-6.1118,-6.1118,-6.1118,-6.1118,-6.1118,-6.1118,-6.1118,-6.1118,-6.1118,-6.1118,-6.1118,-6.1118,-6.1118,-6.1118,-6.1118,-6.1118,-6.1118,-6.1118,-6.1719,-6.1719,-6.1719,-6.1719,-6.1719,-6.1719,-6.1719,-6.1719,-6.1719,-6.1719,-6.1719,-6.1719,-6.1719,-6.1719,-6.1719,-6.1719,-6.1719,-6.1719,-6.1719,-6.1719,-6.1719,-6.1719,-6.1719,-6.1719,-6.1719,-6.1719,-6.1719,-6.1719,-6.1719,-6.1719,-6.1719,-6.1719,-6.1719,-6.1719,-6.1719,-6.1719,-6.1719,-6.1719,-6.1719,-6.1719,-6.1719,-6.1719,-6.1719,-6.1719,-6.1719,-6.1719,-6.1719,-6.1719,-6.1719,-6.1719,-6.1719,-6.1719,-6.1719,-6.1719,-6.1719,-6.1719,-6.1719,-6.1719,-6.1719,-6.1719,-6.1719,-6.1719,-6.1719,-6.1875,-6.2617,-6.2812,-6.3047,-6.3906,-6.4805,-6.543,-6.5586,-6.6328,-6.6914,-6.6914,-6.6914,-6.6914,-6.6914,-6.6914,-6.6914,-6.6914,-6.6914,-6.6914,-6.6914,-6.6914,-6.6914,-6.6914,-6.6211,-6.5781,-6.5781,-6.4297,-6.3398,-6.3398,-6.2956,-6.228,-6.1372,-6.1184,-6.1118,-6.1118,-6.1118,-6.1118,-6.1118,-6.1118,-6.1118,-6.1118,-6.1118,-6.1118,-6.1118,-6.1118,-6.1118,-6.1118,-6.1118,-6.1118,-6.1118,-6.1118,-6.1118,-6.1195,-6.1719,-6.1719,-6.1719,-6.1719,-6.1719,-6.1719,-6.1719,-6.1719,-6.1719,-6.1719,-6.1719,-6.1719,-6.1719,-6.1719,-6.1719,-6.1719,-6.1719,-6.1719,-6.1719,-6.1719,-6.1719,-6.1719,-6.1719,-6.1719,-6.1719,-6.1719,-6.1719,-6.1719,-6.1719,-6.1719,-6.1719,-6.1719,-6.1719,-6.1719,-6.1719,-6.1719,-6.1719,-6.1719,-6.1719,-6.1719,-6.1719,-6.1719,-6.1719,-6.1719,-6.1719,-6.1719,-6.1719,-6.1719,-6.1719,-6.1719,-6.1719,-6.1719,-6.1719,-6.1719,-6.1719,-6.1719,-6.1719,-6.1719,-6.1719,-6.1719,-6.1797,-6.2265,-6.2383,-6.2617,-6.3515,-6.3711,-6.3945,-6.4805,-6.5312,-6.5742,-6.6211,-6.664,-6.6914,-6.6914,-6.6914,-6.6914,-6.6914,-6.6914,-6.6914,-6.6914,-6.6914,-6.6914,-6.6914,-6.6914,-6.6914,-6.6914,-6.6523,-6.6094,-6.5625,-6.4375,-6.3476,-6.3008,-6.2359,-6.1693,-6.1118,-6.1118,-6.1118,-6.1118,-6.1118,-6.1118,-6.1118,-6.1118,-6.1118,-6.1118,-6.1118,-6.1118,-6.1118,-6.1118,-6.1118,-6.1118,-6.1118,-6.1389,-6.1814,-6.1814,-6.2085,-6.2549,-6.1719,-6.1719,-6.1719,-6.1719,-6.1719,-6.1719,-6.1719,-6.1719,-6.1719,-6.1719,-6.1719,-6.1719,-6.1719,-6.1719,-6.1719,-6.1719,-6.1719,-6.1719,-6.1719,-6.1719,-6.1719,-6.1719,-6.1719,-6.1719,-6.1719,-6.1719,-6.1719,-6.1719,-6.1719,-6.1719,-6.1719,-6.1719,-6.1719,-6.1719,-6.1719,-6.1719,-6.1719,-6.1719,-6.1719,-6.1719,-6.1719,-6.1719,-6.1719,-6.1719,-6.1719,-6.1719,-6.1719,-6.1719,-6.1719,-6.1719,-6.1719,-6.1719,-6.1719,-6.1719,-6.1719,-6.1719,-6.1836,-6.1992,-6.1992,-6.1992,-6.2226,-6.3086,-6.3281,-6.3515,-6.4414,-6.4609,-6.4844,-6.5703,-6.5898,-6.6094,-6.6797,-6.6914,-6.6914,-6.6914,-6.6914,-6.6914,-6.6914,-6.6914,-6.6914,-6.6914,-6.6914,-6.6914,-6.6914,-6.6914,-6.6914,-6.6914,-6.6719,-6.6328,-6.5625,-6.4765,-6.3866,-6.2961,-6.195,-6.1298,-6.1079,-6.1118,-6.1118,-6.1118,-6.1118,-6.1118,-6.1118,-6.1118,-6.1118,-6.1118,-6.1118,-6.1118,-6.1118,-6.1118,-6.1234,-6.1389,-6.1389,-6.193,-6.2704,-6.2704,-6.3129,-6.3719,-6.1719,-6.1719,-6.1719,-6.1719,-6.1719,-6.1719,-6.1719,-6.1719,-6.1719,-6.1719,-6.1719,-6.1719,-6.1719,-6.1719,-6.1719,-6.1719,-6.1719,-6.1719,-6.1719,-6.1719,-6.1719,-6.1719,-6.1719,-6.1719,-6.1719,-6.1719,-6.1719,-6.1719,-6.1719,-6.1719,-6.1719,-6.1719,-6.1719,-6.1719,-6.1719,-6.1719,-6.1719,-6.1719,-6.1719,-6.1719,-6.1719,-6.1719,-6.1719,-6.1719,-6.1719,-6.1719,-6.1719,-6.1719,-6.1719,-6.1719,-6.1719,-6.1719,-6.1719,-6.1719,-6.1719,-6.1719,-6.2265,-6.289,-6.289,-6.289,-6.3125,-6.3984,-6.4219,-6.4414,-6.5312,-6.5508,-6.5742,-6.6601,-6.6797,-6.6836,-6.6875,-6.6914,-6.6914,-6.6914,-6.6914,-6.6914,-6.6914,-6.6914,-6.6914,-6.6914,-6.6914,-6.6914,-6.6914,-6.6914,-6.6914,-6.6914,-6.6133,-6.5664,-6.5586,-6.4765,-6.3816,-6.2769,-6.185,-6.1298,-6.1079,-6.1118,-6.1118,-6.1118,-6.1118,-6.1118,-6.1118,-6.1118,-6.1118,-6.1118,-6.1118,-6.1118,-6.1118,-6.1118,-6.1582,-6.2317,-6.2317,-6.2859,-6.3603,-6.3603,-6.3642,-6.3835,-6.332,-6.332,-6.332,-6.332,-6.332,-6.332,-6.332,-6.332,-6.332,-6.332,-6.2851,-6.25,-6.25,-6.2031,-6.1719,-6.1719,-6.1719,-6.1719,-6.1719,-6.1719,-6.1719,-6.1719,-6.1719,-6.1719,-6.1719,-6.1719,-6.1719,-6.1719,-6.1719,-6.1719,-6.1719,-6.1719,-6.1719,-6.1719,-6.1719,-6.1719,-6.1719,-6.1719,-6.1719,-6.1719,-6.1719,-6.1719,-6.1719,-6.1719,-6.1719,-6.1719,-6.1719,-6.1719,-6.1719,-6.1719,-6.1719,-6.1719,-6.1719,-6.1719,-6.1797,-6.2344,-6.3125,-6.3906,-6.4453,-6.4219,-6.4023,-6.4883,-6.5117,-6.5312,-6.6211,-6.6406,-6.6484,-6.6836,-6.6914,-6.6914,-6.6914,-6.6914,-6.6914,-6.6914,-6.6914,-6.6914,-6.6914,-6.6914,-6.6914,-6.6914,-6.6914,-6.6914,-6.6914,-6.6914,-6.6914,-6.6914,-6.6601,-6.6172,-6.5625,-6.4765,-6.4049,-6.3526,-6.3205,-6.2393,-6.1118,-6.1118,-6.1118,-6.1118,-6.1118,-6.1118,-6.1118,-6.1118,-6.1118,-6.1118,-6.1118,-6.1427,-6.193,-6.193,-6.2433,-6.3207,-6.3207,-6.3748,-6.4532,-6.4532,-6.4532,-6.4571,-6.4297,-6.4297,-6.4297,-6.4297,-6.4297,-6.4297,-6.4297,-6.4297,-6.4297,-6.4297,-6.3789,-6.3398,-6.3398,-6.2851,-6.2539,-6.2539,-6.2539,-6.2539,-6.2539,-6.2539,-6.2265,-6.1719,-6.1719,-6.1719,-6.1719,-6.1719,-6.1719,-6.1719,-6.1719,-6.1719,-6.1719,-6.1719,-6.1719,-6.1719,-6.1719,-6.1719,-6.1719,-6.1719,-6.1719,-6.1719,-6.1719,-6.1719,-6.1719,-6.1719,-6.1719,-6.1719,-6.1719,-6.1719,-6.1719,-6.1719,-6.1875,-6.2109,-6.2109,-6.2305,-6.2695,-6.3555,-6.4258,-6.4883,-6.5781,-6.5586,-6.5273,-6.5859,-6.6015,-6.6172,-6.6758,-6.6914,-6.6914,-6.6914,-6.6914,-6.6914,-6.6914,-6.6914,-6.6914,-6.6914,-6.6914,-6.6914,-6.6914,-6.6914,-6.6914,-6.6914,-6.6914,-6.6914,-6.6914,-6.6914,-6.6914,-6.6914,-6.6914,-6.664,-6.6055,-6.543,-6.4906,-6.4418,-6.4413,-6.3599,-6.194,-6.193,-6.193,-6.193,-6.193,-6.193,-6.193,-6.193,-6.193,-6.193,-6.193,-6.2278,-6.282,-6.282,-6.3323,-6.4106,-6.4106,-6.4648,-6.5334,-6.5102,-6.4986,-6.4948,-6.4336,-6.4336,-6.4336,-6.4336,-6.4336,-6.4336,-6.4336,-6.4336,-6.4336,-6.4336,-6.4297,-6.4297,-6.4297,-6.4297,-6.4297,-6.4297,-6.4297,-6.4297,-6.4297,-6.4297,-6.3515,-6.1797,-6.1719,-6.1719,-6.1719,-6.1719,-6.1719,-6.1719,-6.1719,-6.1719,-6.1719,-6.1719,-6.1719,-6.1719,-6.1719,-6.1719,-6.1719,-6.1719,-6.1719,-6.1719,-6.1719,-6.1719,-6.1719,-6.1719,-6.1719,-6.1719,-6.1719,-6.1719,-6.1719,-6.1719,-6.2305,-6.3008,-6.3008,-6.3594,-6.4492,-6.5351,-6.5586,-6.5781,-6.668,-6.6914,-6.6914,-6.6914,-6.6914,-6.6914,-6.6914,-6.6914,-6.6914,-6.6914,-6.6914,-6.6914,-6.6914,-6.6914,-6.6914,-6.6914,-6.6914,-6.6914,-6.6914,-6.6914,-6.6914,-6.6914,-6.6914,-6.6914,-6.6914,-6.6914,-6.6914,-6.6914,-6.6914,-6.6914,-6.6914,-6.6914,-6.6392,-6.5358,-6.5314,-6.4805,-6.3719,-6.3719,-6.3719,-6.3719,-6.3719,-6.3719,-6.3719,-6.3719,-6.3719,-6.3719,-6.3719,-6.3719,-6.3719,-6.3719,-6.4222,-6.4986,-6.4986,-6.5489,-6.6108,-6.5296,-6.4986,-6.488,-6.6133,-6.6133,-6.6133,-6.6133,-6.6133,-6.6133,-6.6133,-6.6133,-6.6133,-6.6133,-6.5586,-6.5195,-6.5195,-6.4687,-6.4297,-6.4297,-6.4297,-6.4297,-6.4297,-6.4297,-6.4062,-6.3555,-6.3515,-6.3515,-6.3515,-6.3515,-6.3203,-6.2617,-6.2617,-6.2305,-6.1719,-6.1719,-6.1719,-6.1719,-6.1719,-6.1719,-6.1719,-6.1719,-6.1719,-6.1719,-6.1719,-6.1719,-6.1719,-6.1719,-6.1719,-6.1719,-6.1719,-6.2109,-6.2617,-6.2617,-6.3203,-6.3906,-6.3906,-6.4492,-6.5273,-6.5508,-6.6015,-6.6562,-6.6836,-6.6914,-6.6914,-6.6914,-6.6914,-6.6914,-6.6914,-6.6914,-6.6914,-6.6914,-6.6914,-6.6914,-6.6914,-6.6914,-6.6914,-6.6914,-6.6914,-6.6914,-6.6914,-6.6914,-6.6914,-6.6914,-6.6914,-6.6914,-6.6914,-6.6914,-6.6914,-6.6914,-6.6914,-6.6873,-6.6779,-6.6777,-6.6532,-6.6082,-6.6068,-6.5856,-6.546,-6.43,-6.3719,-6.3719,-6.3719,-6.3719,-6.3719,-6.3719,-6.3719,-6.3719,-6.3719,-6.4068,-6.4609,-6.4609,-6.5102,-6.5837,-6.5837,-6.5644,-6.5334,-6.5102,-6.4213,-6.3129,-6.6914,-6.6914,-6.6914,-6.6914,-6.6914,-6.6914,-6.6914,-6.6914,-6.6914,-6.6914,-6.6445,-6.6094,-6.6094,-6.5625,-6.5312,-6.5312,-6.5312,-6.5312,-6.5312,-6.5312,-6.5312,-6.5312,-6.5312,-6.5,-6.4336,-6.4297,-6.4023,-6.3515,-6.3515,-6.3086,-6.2226,-6.2226,-6.2031,-6.1719,-6.1719,-6.1719,-6.1719,-6.1719,-6.1719,-6.1719,-6.1719,-6.1719,-6.1719,-6.1719,-6.1914,-6.2226,-6.2226,-6.2773,-6.3515,-6.3515,-6.4101,-6.4883,-6.5234,-6.5703,-6.6094,-6.6094,-6.6484,-6.6914,-6.6914,-6.6914,-6.6914,-6.6914,-6.6914,-6.6914,-6.6914,-6.6914,-6.6914,-6.6914,-6.6914,-6.6914,-6.6914,-6.6914,-6.6914,-6.6914,-6.6914,-6.6914,-6.6914,-6.6914,-6.6914,-6.6914,-6.6914,-6.6914,-6.6914,-6.6914,-6.6914,-6.6914,-6.6914,-6.6873,-6.6784,-6.6782,-6.6697,-6.6491,-6.6478,-6.6377,-6.6185,-6.518,-6.4677,-6.4677,-6.4677,-6.4677,-6.4677,-6.4677,-6.4677,-6.4677,-6.4677,-6.4986,-6.545,-6.545,-6.576,-6.6185,-6.5837,-6.5412,-6.4909,-6.4213,-6.3284,-6.2356,-6.6914,-6.6914,-6.6914,-6.6914,-6.6914,-6.6914,-6.6914,-6.6914,-6.6914,-6.6914,-6.6914,-6.6914,-6.6914,-6.6914,-6.6914,-6.6914,-6.6914,-6.6914,-6.6914,-6.6914,-6.6914,-6.6914,-6.6914,-6.6172,-6.457,-6.4531,-6.4492,-6.4414,-6.4414,-6.3984,-6.3125,-6.3125,-6.2695,-6.1914,-6.1914,-6.1914,-6.1914,-6.1914,-6.1914,-6.1914,-6.1914,-6.1914,-6.1914,-6.1914,-6.2422,-6.3125,-6.3125,-6.3672,-6.4414,-6.4492,-6.5078,-6.5859,-6.664,-6.6914,-6.6914,-6.6914,-6.6914,-6.6914,-6.6914,-6.6914,-6.6914,-6.6914,-6.6914,-6.6914,-6.6914,-6.6914,-6.6914,-6.6914,-6.6914,-6.6914,-6.6914,-6.6914,-6.6914,-6.6914,-6.6914,-6.6914,-6.6914,-6.6914,-6.6914,-6.6914,-6.6914,-6.6914,-6.6914,-6.6914,-6.6914,-6.6914,-6.6914,-6.6875,-6.6874,-6.6874,-6.6776,-6.6585,-6.6579,-6.6457,-6.6185,-6.6185,-6.6185,-6.6185,-6.6185,-6.6185,-6.6185,-6.6185,-6.6185,-6.6185,-6.6185,-6.6185,-6.6185,-6.6185,-6.6147,-6.6031,-6.5296,-6.4909,-6.4561,-6.2975,-6.2356,-6.2162,-6.6914,-6.6914,-6.6914,-6.6914,-6.6914,-6.6914,-6.6914,-6.6914,-6.6914,-6.6914,-6.6914,-6.6914,-6.6914,-6.6914,-6.6914,-6.6914,-6.6914,-6.6914,-6.6914,-6.6914,-6.6914,-6.6914,-6.6914,-6.6719,-6.6328,-6.6328,-6.6015,-6.5312,-6.5312,-6.4883,-6.4023,-6.4023,-6.3906,-6.375,-6.375,-6.375,-6.375,-6.375,-6.375,-6.375,-6.375,-6.375,-6.375,-6.375,-6.3867,-6.4023,-6.4023,-6.457,-6.543,-6.6094,-6.6445,-6.664,-6.6836,-6.6914,-6.6914,-6.6914,-6.6914,-6.6914,-6.6914,-6.6914,-6.6914,-6.6914,-6.6914,-6.6914,-6.6914,-6.6914,-6.6914,-6.6914,-6.6914,-6.6914,-6.6914,-6.6914,-6.6914,-6.6914,-6.6914,-6.6914,-6.6914,-6.6914,-6.6914,-6.6914,-6.6914,-6.6914,-6.6914,-6.6914,-6.6914,-6.6914,-6.6914,-6.6834,-6.6735,-6.6733,-6.6638,-6.645,-6.6443,-6.6384,-6.6185,-6.6185,-6.6185,-6.6185,-6.6185,-6.6185,-6.6185,-6.6185,-6.6185,-6.6185,-6.6185,-6.6185,-6.6185,-6.6185,-6.5837,-6.5218,-6.5064,-6.4174,-6.2936,-6.2549,-6.1969,-6.135,-6.6914,-6.6914,-6.6914,-6.6914,-6.6914,-6.6914,-6.6914,-6.6914,-6.6914,-6.6914,-6.6914,-6.6914,-6.6914,-6.6914,-6.6914,-6.6914,-6.6914,-6.6914,-6.6914,-6.6914,-6.6914,-6.6914,-6.6914,-6.6914,-6.6914,-6.6914,-6.668,-6.6211,-6.6211,-6.5781,-6.4922,-6.4922,-6.4687,-6.4297,-6.4297,-6.4297,-6.4297,-6.4297,-6.4297,-6.4297,-6.4297,-6.4297,-6.4297,-6.4297,-6.457,-6.4922,-6.4922,-6.5469,-6.6289,-6.6758,-6.6914,-6.6914,-6.6914,-6.6914,-6.6914,-6.6914,-6.6914,-6.6914,-6.6914,-6.6914,-6.6914,-6.6914,-6.6914,-6.6914,-6.6914,-6.6914,-6.6914,-6.6914,-6.6914,-6.6914,-6.6914,-6.6914,-6.6914,-6.6914,-6.6914,-6.6914,-6.6914,-6.6914,-6.6914,-6.6914,-6.6914,-6.6914,-6.6914,-6.6914,-6.6914,-6.6914,-6.6914,-6.6874,-6.6787,-6.6785,-6.6706,-6.6504,-6.6497,-6.6392,-6.6185,-6.6185,-6.6185,-6.6185,-6.6185,-6.6185,-6.6185,-6.6185,-6.6185,-6.6185,-6.6185,-6.6185,-6.6185,-6.6185,-6.5721,-6.4948,-6.4532,-6.3555,-6.2356,-6.193,-6.1505,-6.1118,-6.6914,-6.6914,-6.6914,-6.6914,-6.6914,-6.6914,-6.6914,-6.6914,-6.6914,-6.6914,-6.6914,-6.6914,-6.6914,-6.6914,-6.6914,-6.6914,-6.6914,-6.6914,-6.6914,-6.6914,-6.6914,-6.6914,-6.6914,-6.6914,-6.6914,-6.6914,-6.6914,-6.6914,-6.6914,-6.6523,-6.582,-6.582,-6.543,-6.4726,-6.4726,-6.4726,-6.4726,-6.4726,-6.4726,-6.4726,-6.4726,-6.4726,-6.4726,-6.4726,-6.5195,-6.582,-6.582,-6.6289,-6.6914,-6.6914,-6.6914,-6.6914,-6.6914,-6.6914,-6.6914,-6.6914,-6.6914,-6.6914,-6.6914,-6.6914,-6.6914,-6.6914,-6.6914,-6.6914,-6.6914,-6.6914,-6.6914,-6.6914,-6.6914,-6.6914,-6.6914,-6.6914,-6.6914,-6.6914,-6.6914,-6.6914,-6.6914,-6.6914,-6.6914,-6.6914,-6.6914,-6.6914,-6.6914,-6.6914,-6.6914,-6.6914,-6.6914,-6.6914,-6.6914,-6.6874,-6.6777,-6.6624,-6.6585,-6.6457,-6.6245,-6.6205,-6.6185,-6.6185,-6.6185,-6.6185,-6.6185,-6.6185,-6.6185,-6.6185,-6.6185,-6.6185,-6.6185,-6.6185,-6.5721,-6.4919,-6.4222,-6.3284,-6.2278,-6.1427,-6.1118,-6.1118,-6.6914,-6.6914,-6.6914,-6.6914,-6.6914,-6.6914,-6.6914,-6.6914,-6.6914,-6.6914,-6.6914,-6.6914,-6.6914,-6.6914,-6.6914,-6.6914,-6.6914,-6.6914,-6.6914,-6.6914,-6.6914,-6.6914,-6.6914,-6.6914,-6.6914,-6.6914,-6.6914,-6.6914,-6.6914,-6.6836,-6.6719,-6.6719,-6.664,-6.6562,-6.6562,-6.6562,-6.6562,-6.6562,-6.6562,-6.6562,-6.6562,-6.6562,-6.6562,-6.6562,-6.6601,-6.6719,-6.6719,-6.6797,-6.6914,-6.6914,-6.6914,-6.6914,-6.6914,-6.6914,-6.6914,-6.6914,-6.6914,-6.6914,-6.6914,-6.6914,-6.6914,-6.6914,-6.6914,-6.6914,-6.6914,-6.6914,-6.6914,-6.6914,-6.6914,-6.6914,-6.6914,-6.6914,-6.6914,-6.6914,-6.6914,-6.6914,-6.6914,-6.6914,-6.6914,-6.6914,-6.6914,-6.6914,-6.6914,-6.6914,-6.6914,-6.6914,-6.6914,-6.6914,-6.6914,-6.6785,-6.6722,-6.6706,-6.6513,-6.64,-6.6353,-6.6273,-6.6185,-6.6185,-6.6185,-6.6185,-6.6185,-6.6185,-6.6185,-6.6185,-6.6185,-6.6185,-6.6185,-6.6185,-6.5721,-6.4986,-6.488,-6.3826,-6.2278,-6.1427,-6.1118,-6.1118,-6.6914,-6.6914,-6.6914,-6.6914,-6.6914,-6.6914,-6.6914,-6.6914,-6.6914,-6.6914,-6.6914,-6.6914,-6.6914,-6.6914,-6.6914,-6.6914,-6.6914,-6.6914,-6.6914,-6.6914,-6.6914,-6.6914,-6.6914,-6.6914,-6.6914,-6.6914,-6.6914,-6.6914,-6.6914,-6.6914,-6.6914,-6.6914,-6.6914,-6.6914,-6.6914,-6.6914,-6.6914,-6.6914,-6.6914,-6.6914,-6.6914,-6.6914,-6.6914,-6.6914,-6.6914,-6.6914,-6.6914,-6.6914,-6.6914,-6.6914,-6.6914,-6.6914,-6.6914,-6.6914,-6.6914,-6.6914,-6.6914,-6.6914,-6.6914,-6.6914,-6.6914,-6.6914,-6.6914,-6.6914,-6.6914,-6.6914,-6.6914,-6.6914,-6.6914,-6.6914,-6.6914,-6.6914,-6.6914,-6.6914,-6.6914,-6.6914,-6.6914,-6.6914,-6.6914,-6.6914,-6.6914,-6.6914,-6.6914,-6.6914,-6.6914,-6.6914,-6.6914,-6.6914,-6.6914,-6.6833,-6.6772,-6.6662,-6.6569,-6.6436,-6.6281,-6.6235,-6.6185,-6.6185,-6.6185,-6.6185,-6.6185,-6.6185,-6.6185,-6.6185,-6.6185,-6.6185,-6.6185,-6.6185,-6.5721,-6.4986,-6.4986,-6.4213,-6.3013,-6.2162,-6.2124,-6.2472]},{"header":{"parameterUnit":"m.s-1","parameterCategory":1,"la1":30.6,"la2":28.766,"lo1":-90.7593,"lo2":-88.6598,"dy":0.0162,"dx":0.0183,"nx":116,"ny":114,"refTime":"2023-03-20T18:00:00:Z","depth":0,"parameterNumber":3,"parameterNumberName":"V-component_of_WINDS"},"data":[0.0,0.0,0.0,0.0,0.0,0.0,0.0,0.0,0.0,0.0,0.0,0.0,0.0,0.0,0.0,0.0,0.0,0.0,0.0,0.0,0.0,0.0,0.0,0.0,0.0,0.0,0.0,0.0,0.0,0.0,0.0,0.0,0.0,0.0,0.0,0.0,0.0,0.0,0.0,0.0,0.0,0.0,0.0,0.0,0.0,0.0,0.0,0.0,0.0,0.0,0.0,0.0,0.0,0.0,0.0,0.0,0.0,0.0,0.0,0.0,0.0,0.0,0.0,0.0,0.0,0.0,0.0,0.0,0.0,0.0,0.0,0.0,0.0,0.0,0.0,0.0,0.0,0.0,0.0,0.0,0.0,0.0,0.0,0.0,0.0,0.0,0.0,0.0,0.0,0.0,0.0,0.0,0.0,0.0,0.0,0.0,0.0,0.0,0.0,0.0,0.0,0.0,0.0,0.0,0.0,0.0,0.0,0.0,0.0,0.0,0.0,0.0,0.0,0.0,0.0,0.0,0.0,0.0,0.0,0.0,0.0,0.0,0.0,0.0,0.0,0.0,0.0,0.0,0.0,0.0,0.0,0.0,0.0,0.0,0.0,0.0,0.0,0.0,0.0,0.0,0.0,0.0,0.0,0.0,0.0,0.0,0.0,0.0,0.0,0.0,0.0,0.0,0.0,0.0,0.0,0.0,0.0,0.0,0.0,0.0,0.0,0.0,0.0,0.0,0.0,0.0,0.0,0.0,0.0,0.0,0.0,0.0,0.0,0.0,0.0,0.0,0.0,0.0,0.0,0.0,0.0,0.0,0.0,0.0,0.0,0.0,0.0,0.0,0.0,0.0,0.0,0.0,0.0,0.0,0.0,0.0,0.0,0.0,0.0,0.0,0.0,0.0,0.0,0.0,0.0,0.0,0.0,0.0,0.0,0.0,0.0,0.0,0.0,0.0,0.0,0.0,0.0,0.0,0.0,0.0,0.0,0.0,0.0,0.0,0.0,0.0,0.0,0.0,0.0,0.0,0.0,0.0,0.0,0.0,0.0,0.0,0.0,0.0,0.0,0.0,0.0,0.0,0.0,0.0,0.0,0.0,0.0,0.0,0.0,0.0,0.0,0.0,0.0,0.0,0.0,0.0,0.0,0.0,0.0,0.0,0.0,0.0,0.0,0.0,0.0,0.0,0.0,0.0,0.0,0.0,0.0,0.0,0.0,0.0,0.0,0.0,0.0,0.0,0.0,0.0,0.0,0.0,0.0,0.0,0.0,0.0,0.0,0.0,0.0,0.0,0.0,0.0,0.0,0.0,0.0,0.0,0.0,0.0,0.0,0.0,0.0,0.0,0.0,0.0,0.0,0.0,0.0,0.0,0.0,0.0,0.0,0.0,0.0,0.0,0.0,0.0,0.0,0.0,0.0,0.0,0.0,0.0,0.0,0.0,0.0,0.0,0.0,0.0,0.0,0.0,0.0,0.0,0.0,0.0,0.0,0.0,0.0,0.0,0.0,0.0,0.0,0.0,0.0,0.0,0.0,0.0,0.0,0.0,0.0,0.0,0.0,0.0,0.0,0.0,0.0,0.0,0.0,0.0,0.0,0.0,0.0,0.0,0.0,0.0,0.0,0.0,0.0,0.0,0.0,0.0,0.0,0.0,0.0,0.0,0.0,0.0,0.0,0.0,0.0,0.0,0.0,0.0,0.0,0.0,0.0,0.0,0.0,0.0,0.0,0.0,0.0,0.0,0.0,0.0,0.0,0.0,0.0,0.0,0.0,0.0,0.0,0.0,0.0,0.0,0.0,0.0,0.0,0.0,0.0,0.0,0.0,0.0,0.0,0.0,0.0,0.0,0.0,0.0,0.0,0.0,0.0,0.0,0.0,0.0,0.0,0.0,0.0,0.0,0.0,0.0,0.0,0.0,0.0,0.0,0.0,0.0,0.0,0.0,0.0,0.0,0.0,0.0,0.0,0.0,0.0,0.0,0.0,0.0,0.0,0.0,0.0,0.0,0.0,0.0,0.0,0.0,0.0,0.0,0.0,0.0,0.0,0.0,0.0,0.0,0.0,0.0,0.0,0.0,0.0,0.0,0.0,0.0,0.0,0.0,0.0,0.0,0.0,0.0,0.0,0.0,0.0,0.0,0.0,0.0,0.0,0.0,0.0,0.0,0.0,0.0,0.0,0.0,0.0,0.0,0.0,0.0,0.0,0.0,0.0,0.0,0.0,0.0,0.0,0.0,0.0,0.0,0.0,0.0,0.0,0.0,0.0,0.0,0.0,0.0,0.0,0.0,0.0,0.0,0.0,0.0,0.0,0.0,0.0,0.0,0.0,0.0,0.0,0.0,0.0,0.0,0.0,0.0,0.0,0.0,0.0,0.0,0.0,0.0,0.0,0.0,0.0,0.0,0.0,0.0,0.0,0.0,0.0,0.0,0.0,0.0,0.0,0.0,0.0,0.0,0.0,0.0,0.0,0.0,0.0,0.0,0.0,0.0,0.0,0.0,0.0,0.0,0.0,0.0,0.0,0.0,0.0,0.0,0.0,0.0,0.0,0.0,0.0,0.0,0.0,0.0,0.0,0.0,0.0,0.0,0.0,0.0,0.0,0.0,0.0,0.0,0.0,0.0,0.0,0.0,0.0,0.0,0.0,0.0,0.0,0.0,0.0,0.0,0.0,0.0,0.0,0.0,0.0,0.0,0.0,0.0,0.0,0.0,0.0,0.0,0.0,0.0,0.0,0.0,0.0,0.0,0.0,0.0,0.0,0.0,0.0,0.0,0.0,0.0,0.0,0.0,0.0,0.0,0.0,0.0,0.0,0.0,0.0,0.0,0.0,0.0,0.0,0.0,0.0,0.0,0.0,0.0,0.0,0.0,0.0,0.0,0.0,0.0,0.0,0.0,0.0,0.0,0.0,0.0,0.0,0.0,0.0,0.0,0.0,0.0,0.0,0.0,0.0,0.0,0.0,0.0,0.0,0.0,0.0,0.0,0.0,0.0,0.0,0.0,0.0,0.0,0.0,0.0,0.0,0.0,0.0,0.0,0.0,0.0,0.0,0.0,0.0,0.0,0.0,0.0,0.0,0.0,0.0,0.0,0.0,0.0,0.0,0.0,0.0,0.0,0.0,0.0,0.0,0.0,0.0,0.0,0.0,0.0,0.0,0.0,0.0,0.0,0.0,0.0,0.0,0.0,0.0,0.0,0.0,0.0,0.0,0.0,0.0,0.0,0.0,0.0,0.0,0.0,0.0,0.0,0.0,0.0,0.0,0.0,0.0,0.0,0.0,0.0,0.0,0.0,0.0,0.0,0.0,0.0,0.0,0.0,0.0,0.0,0.0,0.0,0.0,0.0,0.0,0.0,0.0,0.0,0.0,0.0,0.0,0.0,0.0,0.0,0.0,0.0,0.0,0.0,0.0,0.0,0.0,0.0,0.0,0.0,0.0,0.0,0.0,0.0,0.0,0.0,0.0,0.0,0.0,0.0,0.0,0.0,0.0,0.0,0.0,0.0,0.0,0.0,0.0,0.0,0.0,0.0,0.0,0.0,0.0,0.0,0.0,0.0,0.0,0.0,0.0,0.0,0.0,0.0,0.0,0.0,0.0,0.0,0.0,0.0,0.0,0.0,0.0,0.0,0.0,0.0,0.0,0.0,0.0,0.0,0.0,0.0,0.0,0.0,0.0,0.0,0.0,0.0,0.0,0.0,0.0,0.0,0.0,0.0,0.0,0.0,0.0,0.0,0.0,0.0,0.0,0.0,0.0,0.0,0.0,0.0,0.0,0.0,0.0,0.0,0.0,0.0,0.0,0.0,0.0,0.0,0.0,0.0,0.0,0.0,0.0,0.0,0.0,0.0,0.0,0.0,0.0,0.0,0.0,0.0,0.0,0.0,0.0,0.0,0.0,0.0,0.0,0.0,0.0,0.0,0.0,0.0,0.0,0.0,0.0,0.0,0.0,0.0,0.0,0.0,0.0,0.0,0.0,0.0,0.0,0.0,0.0,0.0,0.0,0.0,0.0,0.0,0.0,0.0,0.0,0.0,0.0,0.0,0.0,0.0,0.0,0.0,0.0,0.0,0.0,0.0,0.0,0.0,0.0,0.0,0.0,0.0,0.0,0.0,0.0,0.0,0.0,0.0,0.0,0.0,0.0,0.0,0.0,0.0,0.0,0.0,0.0,0.0,0.0,0.0,0.0,0.0,0.0,0.0,0.0,0.0,0.0,0.0,0.0,0.0,0.0,0.0,0.0,0.0,0.0,0.0,0.0,0.0,0.0,0.0,0.0,0.0,0.0,0.0,0.0,0.0,0.0,0.0,0.0,0.0,0.0,0.0,0.0,0.0,0.0,0.0,0.0,0.0,0.0,0.0,0.0,0.0,0.0,0.0,0.0,0.0,0.0,0.0,0.0,0.0,0.0,0.0,0.0,0.0,0.0,0.0,0.0,0.0,0.0,0.0,0.0,0.0,0.0,0.0,0.0,0.0,0.0,0.0,0.0,0.0,0.0,0.0,0.0,0.0,0.0,0.0,0.0,0.0,0.0,0.0,0.0,0.0,0.0,0.0,0.0,0.0,0.0,0.0,0.0,0.0,0.0,0.0,0.0,0.0,0.0,0.0,0.0,0.0,0.0,0.0,0.0,0.0,0.0,0.0,0.0,0.0,0.0,0.0,0.0,0.0,0.0,0.0,0.0,0.0,0.0,0.0,0.0,0.0,0.0,0.0,0.0,0.0,0.0,0.0,0.0,0.0,0.0,0.0,0.0,0.0,0.0,0.0,0.0,0.0,0.0,0.0,0.0,0.0,0.0,0.0,0.0,0.0,0.0,0.0,0.0,0.0,0.0,0.0,0.0,0.0,0.0,0.0,0.0,0.0,0.0,0.0,0.0,0.0,0.0,0.0,0.0,0.0,0.0,0.0,0.0,0.0,0.0,0.0,0.0,0.0,0.0,0.0,0.0,0.0,0.0,0.0,0.0,0.0,0.0,0.0,0.0,0.0,0.0,0.0,0.0,0.0,0.0,0.0,0.0,0.0,0.0,0.0,0.0,0.0,0.0,0.0,0.0,0.0,0.0,0.0,0.0,0.0,0.0,0.0,0.0,0.0,0.0,0.0,0.0,0.0,0.0,0.0,0.0,0.0,0.0,0.0,0.0,0.0,0.0,0.0,0.0,0.0,0.0,0.0,0.0,0.0,0.0,0.0,0.0,0.0,0.0,0.0,0.0,0.0,0.0,0.0,0.0,0.0,0.0,0.0,0.0,0.0,0.0,0.0,0.0,0.0,0.0,0.0,0.0,0.0,0.0,0.0,0.0,0.0,0.0,0.0,0.0,0.0,0.0,0.0,0.0,0.0,0.0,0.0,0.0,0.0,0.0,0.0,0.0,0.0,0.0,0.0,0.0,0.0,0.0,0.0,0.0,0.0,0.0,0.0,0.0,0.0,0.0,0.0,0.0,0.0,0.0,0.0,0.0,0.0,0.0,0.0,0.0,0.0,0.0,0.0,0.0,0.0,0.0,0.0,0.0,0.0,0.0,0.0,0.0,0.0,0.0,0.0,0.0,0.0,0.0,0.0,0.0,0.0,0.0,0.0,0.0,0.0,0.0,0.0,0.0,0.0,0.0,0.0,0.0,0.0,0.0,0.0,0.0,0.0,0.0,0.0,0.0,0.0,0.0,0.0,0.0,0.0,0.0,0.0,0.0,0.0,0.0,0.0,0.0,0.0,0.0,0.0,0.0,0.0,0.0,0.0,0.0,0.0,0.0,0.0,0.0,0.0,0.0,0.0,0.0,0.0,0.0,0.0,0.0,0.0,0.0,0.0,0.0,0.0,0.0,0.0,0.0,0.0,0.0,0.0,0.0,0.0,0.0,0.0,0.0,0.0,0.0,0.0,0.0,0.0,0.0,0.0,0.0,0.0,0.0,0.0,0.0,0.0,0.0,0.0,0.0,0.0,0.0,0.0,0.0,0.0,0.0,0.0,0.0,0.0,0.0,0.0,0.0,0.0,0.0,0.0,0.0,0.0,0.0,0.0,0.0,0.0,0.0,0.0,0.0,0.0,0.0,0.0,0.0,0.0,0.0,0.0,0.0,0.0,0.0,0.0,0.0,0.0,0.1551,0.1163,0.0,0.0,0.0,0.0,0.0,0.0,0.0,0.0,0.0,0.0,0.0,0.0,0.0,0.0,0.0,0.0,0.0,0.0,0.0,0.0,0.0,0.0,0.0,0.0,0.0,0.0,0.0,0.0,0.0,0.0,0.0,0.0,0.0,0.0,0.0,0.0,0.0,0.0,-1.2623,-1.2698,-1.2854,-1.3003,-1.3105,-1.3173,0.0,0.0,0.0,0.0,0.0,0.0,0.0,0.0,0.0,0.0,0.0,0.0,0.0,0.0,0.0,0.0,0.0,0.0,0.0,0.0,0.0,0.0,0.0,0.0,0.0,0.0,0.0,0.0,0.0,0.0,0.0,0.0,0.0,0.0,0.0,0.0,0.0,0.0,0.0,0.0,0.0,0.0,0.0,0.0,0.0,0.0,0.0,0.0,0.0,0.0,0.0,0.0,0.0,0.0,0.0,0.0,0.0,0.0,0.0,0.0,0.0,0.0,0.0,0.0,0.0,0.0,0.0,0.0,0.0,0.0,0.1988,0.1687,0.0,0.0,0.0,0.0,0.0,0.0,0.0,0.0,0.0,0.0,0.0,0.0,0.0,0.0,0.0,0.0,0.0,0.0,0.0,0.0,0.0,0.0,0.0,0.0,0.0,0.0,0.0,0.0,0.0,0.0,0.0,0.0,0.0,0.0,0.0,0.0,-1.2501,-1.2501,-1.2501,-1.2569,-1.2691,-1.282,-1.2956,-1.3098,-1.3152,0.0,0.0,0.0,0.0,0.0,0.0,0.0,0.0,0.0,0.0,0.0,0.0,0.0,0.0,0.0,0.0,0.0,0.0,0.0,0.0,0.0,0.0,0.0,0.0,0.0,0.0,0.0,0.0,0.0,0.0,0.0,0.0,0.0,0.0,0.0,0.0,0.0,0.0,0.0,0.0,0.0,0.0,0.0,0.0,0.0,0.0,0.0,0.0,0.0,0.0,0.0,0.0,0.0,0.0,0.0,0.0,0.0,0.0,0.0,0.0,0.0,0.0,0.0,0.3227,0.3315,0.3282,0.3282,0.3264,0.3233,0.3233,0.2727,0.1915,0.1895,0.0,0.0,0.0,0.0,0.0,0.0,0.0,0.0,0.0,0.0,0.0,0.0,0.0,0.0,0.0,0.0,0.0,0.0,0.0,0.0,0.0,0.0,-2.5451,-2.5157,-2.513,-2.4635,0.0,0.0,0.0,0.0,0.0,0.0,0.0,-1.2501,-1.2501,-1.2501,-1.2501,-1.2515,-1.2528,-1.2556,-1.2644,-1.28,-1.3057,-1.3247,-1.337,0.0,0.0,0.0,0.0,0.0,0.0,0.0,0.0,0.0,0.0,0.0,0.0,0.0,0.0,0.0,0.0,0.0,0.0,0.0,0.0,0.0,0.0,0.0,0.0,0.0,0.0,0.0,0.0,0.0,0.0,0.0,0.0,0.0,0.0,0.0,0.0,0.0,0.0,0.0,0.0,0.0,0.0163,0.0571,0.0,0.0,0.0,0.0,0.0,0.0,0.0,0.0,0.0,0.0,0.0,0.0,0.0,0.6506,0.6506,0.6436,0.6392,0.6382,0.6407,0.6378,0.644,0.644,0.6432,0.6425,0.6425,0.0,0.2315,0.2311,0.0,0.0,0.0,0.0,0.0,0.0,0.0,0.0,0.0,0.0,0.0,0.0,0.0,0.0,0.0,0.0,0.0,0.0,0.0,0.0,0.0,-2.5344,-2.5144,-2.4863,-2.4376,-2.3951,-2.3451,0.0,0.0,0.0,0.0,-1.4867,-1.2579,-1.2501,-1.2501,-1.2501,-1.2501,-1.2501,-1.2501,-1.2501,-1.2583,-1.2732,-1.2868,-1.3051,-1.3275,-1.3275,0.0,0.0,0.0,0.0,0.0,0.0,0.0,0.0,0.0,0.0,0.0,0.0,0.0,0.0,0.0,0.0,0.0,0.0,0.0,0.0,0.0,0.0,0.0,0.0,0.0,0.0,0.0,0.0,0.0,0.0,0.0,0.0,0.0,0.0,0.0,0.0,0.0,0.0,0.0,0.0973,0.193,0.2333,0.342,0.4342,0.0,0.0,0.0,0.0,0.0,0.0,0.0,0.0,0.0,0.7017,0.7013,0.7063,0.7015,0.7047,0.7027,0.7027,0.6986,0.697,0.697,0.697,0.697,0.697,0.697,0.6264,0.4912,0.4038,0.4197,0.4881,0.0,0.0,0.0,0.0,0.4583,0.4361,0.0,0.0,0.0,0.0,0.0,0.0,0.0,0.0,0.0,0.0,0.0,0.0,-2.513,-2.501,-2.4877,-2.4649,-2.397,-2.3513,-2.3438,-2.1251,0.0,0.0,0.0,-1.4184,-1.2579,-1.2501,-1.2501,-1.2501,-1.2501,-1.2501,-1.2501,-1.2501,-1.2562,-1.2671,-1.2671,-1.284,-1.3119,-1.3119,-1.3119,-1.3119,0.0,0.0,0.0,0.0,0.0,0.0,0.0,0.0,0.0,0.0,0.0,0.0,0.0,0.0,0.0,0.0,0.0,0.0,0.0,0.0,0.0,0.0,0.0,0.0,0.0,0.0,0.0,0.0,0.0,0.0,0.0,0.0,0.0,0.0,0.0,0.0,0.0,0.1837,0.3331,0.3888,0.5648,0.7011,0.0,0.0,0.0,0.0,0.0,0.0,0.7655,0.8104,0.828,0.8177,0.8172,0.8207,0.8203,0.8203,0.8203,0.8203,0.8203,0.8203,0.8203,0.8203,0.8203,0.8203,0.8203,0.8203,0.8054,0.6105,0.596,0.6898,0.5742,0.596,0.697,0.697,0.697,0.6825,0.0,0.0,0.0,0.0,0.0,0.0,0.0,0.0,0.0,0.0,0.0,-2.5424,-2.5117,-2.4823,-2.4649,-2.4636,-2.4193,-2.3809,-2.3438,-2.1475,-1.9499,-1.7455,-1.5778,-1.4184,-1.2579,-1.2501,-1.2501,-1.2501,-1.2501,-1.2501,-1.2501,-1.2501,-1.2508,-1.2515,-1.2515,-1.2684,-1.2969,-1.2969,-1.2969,-1.2969,-1.2969,0.0,0.0,0.0,0.0,0.0,0.0,0.0,0.0,0.0,0.0,0.0,0.0,0.0,0.0,0.0,0.0,0.0,0.0,0.0,0.0,0.0,0.0,0.0,0.0,0.0,0.0,0.0,0.0,0.0,0.0,0.0,0.0,0.0,0.0,0.0,0.0,0.0,0.0,0.4234,0.5733,0.0,0.0,0.0,0.0,0.7097,0.86,0.9377,0.9187,1.073,1.1484,1.1345,1.1338,1.1332,1.1397,1.1397,1.1397,1.1397,1.1397,1.1397,1.1397,1.1397,1.1397,1.1397,1.1397,1.1397,1.1109,0.8131,0.6898,0.697,0.6898,0.6898,0.697,0.697,0.697,0.697,0.0,0.0,0.0,0.0,0.0,0.0,0.0,0.0,0.0,-2.5732,-2.5585,-2.5331,-2.485,-2.4703,-2.4636,-2.4636,-2.397,-2.3513,-2.3438,-2.0338,-1.8138,-1.7455,-1.479,-1.3112,-1.2501,-1.2501,-1.2501,-1.2501,-1.2501,-1.2501,-1.2501,-1.2501,-1.2501,-1.2501,-1.2501,-1.2562,-1.2671,-1.2773,-1.2813,-1.2813,-1.2813,-1.2813,0.0,0.0,0.0,0.0,0.0,0.0,0.0,0.0,0.0,0.0,0.0,0.0,0.0,0.0,0.0,0.0,0.0,0.0,0.0,0.0,0.0,0.0,0.0,0.0,0.0,0.0,0.0,0.0,0.0,0.0,0.0,0.0,0.0,0.0,0.0,0.0,0.0,0.7261,0.8975,0.0,1.0393,1.0202,1.0121,1.0121,1.0572,1.0875,1.0746,1.1332,1.1674,1.1619,1.1619,1.1619,1.1619,1.1619,1.1619,1.1619,1.1619,1.1619,1.1619,1.1619,1.1619,1.1613,1.1518,1.147,1.1393,1.0223,0.9794,0.9862,0.877,0.8958,0.9806,0.9724,0.9689,0.9549,0.0,0.0,0.0,0.0,0.0,0.0,0.0,0.0,0.0,-2.5732,-2.5571,-2.5331,-2.4836,-2.469,-2.4636,-2.4636,-2.397,-2.329,-2.2608,-1.9951,-1.7834,-1.6617,-1.3953,-1.2501,-1.2501,-1.2501,-1.2501,-1.2501,-1.2501,-1.2501,-1.2501,-1.2501,-1.2501,-1.2501,-1.2501,-1.2501,-1.2508,-1.261,-1.2651,-1.2651,-1.2651,-1.2651,-1.2644,0.0,0.0,0.0,0.0,0.0,0.0,0.0,0.0,0.0,0.0,0.0,0.0,0.0,0.0,0.0,0.0,0.0,0.0,0.0,0.0,0.0,0.0,0.0,0.0,0.0,0.0,0.0,0.0,0.0,0.0,0.0,0.0,0.0,0.0,0.6884,0.9122,0.913,1.081,1.1986,1.1986,1.185,1.1762,1.1762,1.1674,1.1619,1.1619,1.1619,1.1619,1.1619,1.1619,1.1619,1.1619,1.1619,1.1619,1.1619,1.1619,1.1592,1.1545,1.1545,1.1511,1.1457,1.1355,1.1314,1.1307,1.1275,1.128,1.1379,1.0211,1.0461,1.1301,1.1199,1.1234,1.102,0.0,0.0,0.0,0.0,0.0,0.0,0.0,0.0,0.0,-2.6077,-2.5692,-2.5398,-2.5117,-2.481,-2.4636,-2.4636,-2.4267,-2.3203,-2.1227,-2.0628,-1.8658,-1.502,-1.3344,-1.2501,-1.2501,-1.2501,-1.2501,-1.2501,-1.2501,-1.2501,-1.2501,-1.2501,-1.2501,-1.2501,-1.2501,-1.2501,-1.2501,-1.2501,-1.2501,-1.2579,-1.2501,-1.2501,-1.2501,0.0,0.0,0.0,0.0,0.0,0.0,0.0,0.0,0.0,0.0,0.0,0.0,0.0,0.0,0.0,0.0,0.0,0.0,0.0,0.0,0.0,0.0,0.0,0.0,0.0,0.0,0.0,0.0,0.0,0.0,0.0,0.0,0.0,0.6295,0.7742,0.919,0.9644,1.0952,1.1823,1.1823,1.1701,1.1619,1.1619,1.1619,1.1619,1.1619,1.1619,1.1619,1.1619,1.1619,1.1619,1.1613,1.1613,1.1613,1.1606,1.1606,1.1531,1.1382,1.1382,1.1301,1.1234,1.1158,1.1158,1.1158,1.122,1.1151,1.1151,1.122,1.1158,1.1158,1.122,1.1151,1.1151,0.0,0.0,0.0,0.0,0.0,0.0,0.0,0.0,-2.6279,-2.6077,-2.5692,-2.5398,-2.5117,-2.481,-2.4636,-2.4636,-2.4267,-2.3735,-2.3203,-2.0327,-1.6989,-1.3344,-1.2733,-1.2501,-1.2501,-1.2501,-1.2501,-1.2501,-1.2501,-1.2501,-1.2501,-1.2501,-1.2501,-1.2501,-1.2501,-1.2501,-1.2501,-1.2501,-1.319,-1.4099,-1.2958,-1.2501,-1.2501,0.0,0.0,0.0,0.0,0.0,0.0,0.0,0.0,0.0,0.0,0.0,0.0,0.0,0.0,0.0,0.0,0.0,0.0,0.0,0.0,0.0,0.0,0.0,0.0,0.0,0.0,0.0,0.0,0.0,0.0,0.0,0.6657,0.8146,0.7997,0.9684,1.1037,1.1021,1.1411,1.1681,1.1681,1.164,1.1619,1.1619,1.1619,1.1619,1.1619,1.1619,1.1619,1.1619,1.1619,1.1565,1.1457,1.1457,1.1396,1.1287,1.1287,1.1267,1.1226,1.1226,1.1206,1.1158,1.105,1.1009,1.0995,1.0887,1.0839,1.0853,1.0962,1.1009,1.0995,1.088,1.0839,1.0839,0.0,0.0,0.0,0.0,0.0,0.0,0.0,0.0,-2.6333,-2.6159,-2.5879,-2.5585,-2.5291,-2.4997,-2.477,-2.4649,-2.4414,-2.3809,-2.2819,-1.896,-1.5778,-1.3568,-1.2881,-1.2501,-1.2501,-1.2501,-1.2501,-1.2501,-1.2501,-1.2501,-1.2501,-1.2501,-1.2501,-1.2501,-1.2501,-1.2501,-1.2501,-1.2501,-1.3035,-1.3799,-1.2881,-1.2881,-1.3491,-1.3491,-1.3112,-1.2515,-1.2603,-1.242,-1.2205,-1.1823,0.0,0.0,0.0,0.0,0.0,0.0,0.0,0.0,0.0,0.0,0.0,0.0,0.0,0.0,0.0,0.0,0.0,0.0,0.0,0.0,0.0,0.0,0.0,0.0,0.7993,0.9307,0.9837,1.0935,1.1708,1.1633,1.1619,1.1619,1.1619,1.1619,1.1619,1.1619,1.1619,1.1619,1.1619,1.1558,1.1525,1.1525,1.1463,1.1389,1.1294,1.1294,1.1253,1.1234,1.1234,1.1131,1.107,1.107,1.1036,1.0975,1.0887,1.0786,1.0779,1.0758,1.0717,1.0731,0.0,0.0,0.0,0.0,1.0717,1.0717,0.0,0.0,0.0,0.0,0.0,0.0,0.0,0.0,0.0,0.0,0.0,-2.5838,-2.5545,-2.5251,-2.4957,-2.4663,-2.4636,-2.3574,0.0,-1.7597,-1.5319,-1.4944,-1.3491,-1.2656,-1.2501,-1.2501,-1.2501,-1.2501,-1.2501,-1.2501,-1.2501,-1.2501,-1.2501,-1.2501,-1.2501,-1.2501,-1.2501,-1.2501,-1.2579,-1.2804,-1.2804,-1.3491,-1.4637,-1.4637,-1.3722,-1.2501,-1.2501,-1.2269,-1.196,-1.1882,0.0,0.0,0.0,0.0,0.0,0.0,0.0,0.0,0.0,0.0,0.0,0.0,0.0,0.0,0.0,0.0,0.0,0.0,0.0,0.0,0.0,0.0,0.0,0.0,0.9533,1.0888,1.1496,1.1619,1.1619,1.1619,1.1619,1.1619,1.1619,1.1619,1.1619,1.1619,1.1606,1.1592,1.1592,1.145,0.0,0.0,0.0,1.1158,1.1138,1.1138,1.1131,1.1111,1.1111,1.1043,1.0853,1.0853,1.0779,1.0717,1.0717,1.0717,1.0717,1.0717,1.0717,1.0717,1.0717,1.0717,1.0717,1.0717,1.0717,1.0717,0.0,0.0,0.0,0.0,0.0,0.0,0.0,0.0,0.0,-2.6386,-2.6132,-2.5838,-2.5545,-2.5251,-2.4957,-2.4663,-2.4636,-2.3574,0.0,-1.9951,-1.7976,-1.502,-1.4637,-1.3799,-1.2501,-1.2501,-1.2501,-1.2501,-1.2501,-1.2501,-1.2501,-1.2501,-1.2501,-1.2501,-1.2501,-1.2501,-1.2501,-1.2501,-1.3267,-1.4406,-1.4406,-1.3876,-1.2958,-1.2958,-1.2804,-1.2501,-1.2501,-1.2424,-1.2347,-1.2037,-1.1572,-1.1107,-1.0719,-1.033,0.0,0.0,0.0,0.0,0.0,0.0,0.0,0.0,0.0,0.0,0.0,0.0,0.0,0.0,0.0,0.0,0.0,0.0,0.0,0.7772,0.9686,1.1076,1.1548,1.1619,1.1619,1.1619,1.1619,1.1619,1.1619,1.1619,1.1619,1.1619,1.1504,1.1436,1.1436,1.1287,1.1206,1.1206,1.1179,1.1104,1.0989,1.0989,1.0928,1.0806,1.0806,0.0,1.0765,1.0765,1.0751,1.0717,1.0717,1.0717,1.0717,1.0717,1.0717,1.0717,1.0717,1.0717,1.0717,1.0717,1.0717,1.0717,0.0,0.0,0.0,0.0,0.0,0.0,0.0,0.0,0.0,0.0,-2.6266,-2.5999,-2.5558,-2.5384,-2.5117,-2.4676,-2.4267,0.0,-2.1153,-2.0414,-1.8517,-1.5012,-1.4867,-1.4184,-1.2579,-1.2501,-1.2501,-1.2501,-1.2501,-1.2501,-1.2501,-1.2501,-1.2501,-1.2501,-1.2501,-1.2501,-1.2579,-1.3344,-1.4176,-1.4944,-1.5778,-1.5174,-1.3722,-1.3722,-1.319,-1.2501,-1.2501,-1.2501,-1.2501,-1.2269,-1.1805,-1.1262,-1.1029,-1.0486,-1.0019,0.0,0.0,0.0,0.0,0.0,0.0,0.0,0.0,0.0,0.0,0.0,0.0,0.0,0.0,0.0685,0.3075,0.0,0.5907,0.88,1.0137,1.0966,1.1548,1.1619,1.1619,1.1619,1.1619,1.1619,1.1619,1.1552,1.1504,1.1504,1.1362,1.1274,1.1274,1.1138,1.1056,1.1056,1.0982,1.0873,1.0724,1.0717,1.0643,1.05,1.05,1.05,1.05,1.05,1.05,1.05,1.05,1.05,1.0507,1.0575,1.0649,1.0717,1.0717,1.0717,1.0717,1.0717,1.0717,1.0717,0.0,0.0,0.0,0.0,0.0,0.0,0.0,0.0,0.0,0.0,-2.6386,-2.6186,-2.5651,-2.5545,-2.5277,0.0,0.0,0.0,0.0,-2.0714,-1.8981,-1.6007,-1.5548,-1.4637,-1.3035,-1.2656,-1.2501,-1.2501,-1.2501,-1.2501,-1.2501,-1.2501,-1.2501,-1.2501,-1.2501,-1.2656,-1.3035,-1.433,-1.5089,-1.5472,-1.6846,-1.6617,-1.5319,-1.502,-1.3876,-1.2501,-1.2501,-1.2501,-1.2501,-1.2501,-1.2037,-1.1417,-1.1417,-1.0796,-1.0097,-1.0097,-1.0097,0.0,0.0,0.0,0.0,0.0,0.0,0.0,0.0,0.0,0.0,0.0,0.0,0.0977,0.4145,0.4725,0.603,0.9891,1.0527,1.0822,1.1476,1.1619,1.1606,1.1579,1.1572,1.1572,1.1572,1.1436,1.1348,1.1348,1.1206,1.1111,1.1077,1.0941,1.0779,1.0752,1.0697,1.0575,1.0453,1.0453,1.0392,1.0283,1.0283,1.0283,1.0283,1.0283,1.0283,1.0283,1.0283,1.0283,1.029,1.0405,1.0521,1.0636,1.0663,1.0677,1.0677,1.0711,1.0717,1.0717,0.0,0.0,0.0,0.0,0.0,0.0,0.0,0.0,0.0,0.0,0.0,0.0,0.0,0.0,0.0,0.0,0.0,0.0,-2.3141,-2.2396,-2.1187,-1.9359,-1.791,-1.6312,-1.4637,-1.3267,-1.2501,-1.2501,-1.2501,-1.2501,-1.2501,-1.2501,-1.2501,-1.2501,-1.2501,-1.3267,-1.4637,-1.479,-1.5778,-1.715,-1.7303,-1.7303,-1.6922,-1.5472,-1.3876,-1.2501,-1.2501,-1.2501,-1.2501,-1.2501,-1.2192,-1.1805,-1.1805,-1.1262,-1.0563,-1.0563,-1.0253,-0.9708,-0.8219,-0.5324,-0.2352,-0.0471,0.0,0.0,0.0,0.0,0.0,0.0,0.0,0.0964,0.4095,0.4956,0.633,0.9945,1.075,1.1116,1.1548,1.1619,1.1565,1.1436,1.1416,1.1416,1.1416,1.128,1.1192,1.1192,1.1056,1.0914,1.0778,1.0622,1.0487,1.0358,1.0337,1.0324,1.0304,1.0304,1.0297,1.0283,1.0283,1.0283,1.0283,1.0283,1.0283,1.0283,1.0283,1.0283,1.0283,1.0297,1.0317,1.0344,1.0466,1.0521,1.0534,1.067,1.0717,1.0717,0.0,0.0,0.0,0.0,0.0,0.0,0.0,0.0,0.0,0.0,0.0,0.0,0.0,0.0,0.0,0.0,0.0,0.0,-2.3438,-2.293,-2.1798,-1.9887,-1.9132,-1.8062,-1.6389,-1.4713,-1.3876,-1.3876,-1.2958,-1.2501,-1.2501,-1.2501,-1.2501,-1.2501,-1.2501,-1.3421,-1.4935,-1.593,-1.7303,-1.8819,-1.8819,-1.8214,-1.7227,-1.5548,-1.3876,-1.2501,-1.2501,-1.2501,0.0,-1.2501,-1.2269,-1.1882,-1.1882,-1.134,-1.0563,-1.0563,-1.033,-0.9392,-0.6733,-0.5014,-0.3285,-0.07,0.0,0.0,0.0,0.0,0.0,0.0,0.0,0.066,0.2915,0.4218,0.5742,0.8353,0.9873,1.0822,1.1188,1.1402,1.1463,1.1396,1.124,1.1131,1.1131,1.0995,1.0867,1.0778,1.0643,1.0534,1.0466,1.0405,1.0344,1.0283,1.0283,1.0236,1.0148,1.0148,1.01,1.0012,1.0012,1.0012,1.0012,1.0012,1.0012,1.0012,1.0012,1.0059,1.0148,1.0148,1.0202,1.0283,1.0344,1.0371,1.0399,1.0636,1.0717,1.0717,0.0,0.0,0.0,0.0,0.0,0.0,0.0,0.0,0.0,0.0,0.0,0.0,0.0,0.0,0.0,0.0,0.0,0.0,0.0,-2.3154,-2.2247,-2.0725,-2.0113,-1.9283,-1.8062,-1.6465,-1.5625,-1.5625,-1.4406,-1.3876,-1.3876,-1.3876,-1.3876,-1.3876,-1.3876,-1.4713,-1.6312,-1.7531,-1.8981,-2.05,-2.05,-1.951,-1.791,-1.6236,-1.456,-1.3112,-1.2656,-1.2501,-1.2501,-1.2501,-1.2347,-1.2037,-1.2037,-1.1495,-1.0796,-1.0796,-1.038,-0.9196,-0.5867,-0.4989,-0.4183,-0.0849,0.0,0.0,0.0,0.0,0.0,0.0,0.0,0.0438,0.2039,0.3639,0.531,0.7263,0.9219,1.0587,1.0914,1.118,1.1362,1.128,1.1077,1.0847,1.0833,1.0724,1.0609,1.05,1.0358,1.0263,1.0215,1.0215,1.0195,1.0154,1.0154,1.01,0.9923,0.9923,0.9869,0.9822,0.9822,0.9822,0.9822,0.9822,0.9822,0.9822,0.9822,0.9883,0.9923,0.9923,1.0053,1.0161,1.0202,1.0215,1.0249,1.0507,1.0602,1.0602,0.0,0.0,0.0,0.0,0.0,0.0,0.0,0.0,0.0,0.0,0.0,0.0,0.0,0.0,-2.5782,-2.513,0.0,0.0,0.0,-2.3302,-2.2856,-2.2781,-2.0876,-1.9811,-1.9736,-1.8138,-1.7303,-1.7303,-1.7303,-1.7227,-1.7227,-1.7227,-1.7227,-1.7227,-1.7227,-1.8138,-1.9661,-1.9736,-2.065,-2.2184,-2.2184,-2.1187,-1.9585,-1.791,-1.6312,-1.4637,-1.3035,-1.2501,-1.2501,-1.2501,-1.2501,-1.2501,-1.2501,-1.196,-1.1262,-1.1262,-1.0554,-0.9096,-0.5855,-0.4927,-0.4018,-0.0769,0.0,0.0,0.0,0.0,0.0,0.0,0.0,0.0438,0.2039,0.3639,0.531,0.7263,0.9219,1.0556,1.078,1.1184,1.1287,1.0927,1.0887,1.0833,1.0534,1.05,1.0493,1.0493,1.0358,1.0215,1.0004,0.9997,0.9923,0.9842,0.9836,0.9836,0.9829,0.9829,0.9829,0.9822,0.9822,0.9822,0.9822,0.9822,0.9822,0.9822,0.9822,0.9822,0.9829,0.9829,0.9829,0.9849,0.9936,0.9997,1.0011,1.0236,1.0297,1.0297,0.0,0.0,0.0,0.0,0.0,0.0,0.0,0.0,0.0,0.0,0.0,0.0,0.0,0.0,0.0,0.0,-2.5228,-2.4737,0.0,-2.3627,-2.3154,-2.293,-2.1948,-2.1499,-2.1499,-1.9811,-1.8971,-1.8971,-1.791,-1.7379,-1.7379,-1.7379,-1.7379,-1.7379,-1.7379,-1.829,-1.9811,-1.9811,-2.0812,-2.2184,-2.1112,-2.0274,-1.951,-1.677,-1.5395,-1.4713,0.0,-1.2501,-1.2501,-1.2501,-1.2501,-1.2501,-1.2501,-1.2114,-1.1553,-1.0922,-1.0389,-0.9156,-0.5829,-0.4894,-0.4116,-0.0831,0.0,0.0,0.0,0.0,0.0,0.0,0.0,0.0146,0.0656,0.2039,0.3637,0.5383,0.7336,0.9037,1.0207,1.0671,1.0889,1.0907,1.0793,1.0758,1.0656,1.0555,1.0453,1.0358,1.0215,1.0044,0.999,0.9889,0.9876,0.9822,0.9822,0.9822,0.9822,0.9822,0.9822,0.9822,0.9822,0.9822,0.9822,0.9822,0.9822,0.9822,0.9822,0.9822,0.9822,0.9822,0.9822,0.9829,0.9876,0.9835,0.9903,0.9958,0.9978,1.0005,0.0,0.0,0.0,0.0,0.0,0.0,0.0,0.0,0.0,0.0,0.0,0.0,0.0,0.0,0.0,0.0,0.0,-2.5228,0.0,0.0,-2.3553,-2.3079,-2.2707,-2.2483,-2.2334,-2.1262,-2.065,-2.065,-1.9661,-1.9132,-1.9132,-1.9132,-1.9132,-1.9132,-1.9132,-1.9736,-2.065,-2.065,-2.1337,-2.2184,-2.1112,-2.0349,-1.9585,-1.7455,-1.593,0.0,-1.3722,-1.2958,-1.2501,-1.2501,-1.2501,-1.2501,-1.2501,-1.2159,-1.1644,-1.0762,-1.0326,-0.9427,-0.647,-0.5298,-0.4214,-0.149,-0.0445,0.0,0.0,0.0,0.0,0.0,0.0,0.0,0.0,0.1239,0.2621,0.3639,0.596,0.8026,0.9204,1.0068,1.0698,1.0894,1.0812,1.0717,1.0717,1.0629,1.0514,1.0365,1.0215,1.0107,0.999,0.9896,0.9876,0.9822,0.9822,0.9822,0.9822,0.9822,0.9822,0.9822,0.9822,0.9822,0.9822,0.9822,0.9822,0.9822,0.9822,0.9822,0.9822,0.9822,0.9822,0.9822,0.9822,0.9822,0.9822,0.9822,0.9822,0.9849,0.0,0.0,0.0,0.0,0.0,0.0,0.0,0.0,0.0,0.0,0.0,0.0,0.0,0.0,0.0,0.0,0.0,0.0,0.0,0.0,0.0,-2.3476,-2.3092,-2.2707,-2.2334,-2.2334,-2.2334,-2.2334,-2.2334,-2.2334,-2.2334,-2.2334,-2.2334,-2.2334,-2.2334,-2.2334,-2.2334,-2.2334,-2.2334,-2.2334,-2.2334,-2.1337,-1.9887,-1.9736,0.0,0.0,-1.4867,-1.3799,-1.2501,-1.2501,-1.2501,-1.2501,-1.2501,-1.2176,-1.1562,-1.0821,-1.037,-0.9695,-0.7772,-0.6056,-0.4454,-0.2735,-0.1177,-0.0073,0.0,0.0,0.0,0.0,0.0,0.0,0.0,0.1166,0.2184,0.2257,0.5232,0.7517,0.7842,0.9427,1.0629,1.0833,1.0745,1.0717,1.0717,1.0717,1.0663,1.0514,1.0371,1.0229,1.0017,0.9997,0.9923,0.9836,0.9822,0.9822,0.9822,0.9822,0.9822,0.9822,0.9822,0.9822,0.9822,0.9822,0.9822,0.9822,0.9822,0.9822,0.9822,0.9822,0.9822,0.9822,0.9822,0.9822,0.9822,0.9822,0.9822,0.9822,0.0,0.0,0.0,0.0,0.0,0.0,0.0,0.0,0.0,0.0,0.0,0.0,0.0,0.0,0.0,0.0,0.0,0.0,0.0,0.0,0.0,0.0,0.0,0.0,0.0,0.0,0.0,-2.2334,-2.2334,-2.2334,-2.2334,-2.2334,-2.2334,-2.2334,-2.2334,-2.2334,-2.2334,-2.2334,-2.2334,-2.2334,0.0,-2.2035,-2.1424,0.0,0.0,0.0,-1.403,-1.2881,-1.2501,-1.2501,-1.2501,-1.2501,-1.2501,-1.2165,-1.1721,-1.1011,-1.0585,-0.9924,-0.7712,-0.686,-0.5893,-0.3002,-0.197,-0.1384,-0.0292,0.0,0.0,0.0,0.0,0.0,0.0,0.0292,0.0948,0.2111,0.4073,0.5932,0.7274,0.9008,1.0285,1.0493,1.0612,1.0717,1.0717,1.0717,1.0704,1.0663,1.0521,1.0419,1.0378,1.0168,0.997,0.993,0.9883,0.9822,0.9822,0.9822,0.9822,0.9822,0.9822,0.9822,0.9822,0.9822,0.9822,0.9822,0.9822,0.9822,0.9822,0.9822,0.9822,0.9822,0.9822,0.9822,0.9822,0.9822,0.9822,0.9822,0.0,0.0,0.0,0.0,0.0,0.0,0.0,0.0,0.0,0.0,0.0,0.0,0.0,0.0,0.0,0.0,0.0,0.0,0.0,0.0,0.0,0.0,0.0,0.0,0.0,0.0,0.0,0.0,0.0,0.0,-2.2334,-2.2334,-2.2334,-2.2334,-2.2334,-2.2334,-2.2334,-2.2334,0.0,0.0,0.0,0.0,0.0,0.0,0.0,-1.7074,-1.4483,-1.3112,-1.2501,-1.2501,-1.2501,-1.2501,-1.2501,-1.2306,-1.1996,-1.1378,-1.092,-1.0237,-0.8773,-0.7778,-0.6678,-0.4808,-0.3346,-0.2039,-0.1239,-0.0511,0.0,0.0,0.0,0.0,0.0,0.0,0.0292,0.1166,0.2621,0.4281,0.6112,0.7912,0.9331,1.0365,1.0584,1.0717,1.0717,1.0717,1.0717,1.0717,1.0643,1.0561,1.0493,1.0331,1.0118,0.999,0.9903,0.989,0.9822,0.9822,0.9822,0.9822,0.9822,0.9822,0.9822,0.9822,0.9822,0.9822,0.9822,0.9822,0.9822,0.9822,0.9822,0.9822,0.9822,0.9822,0.9822,0.9822,0.9822,0.9822,0.0,0.0,0.0,0.0,0.0,0.0,0.0,0.0,0.0,0.0,0.0,0.0,0.0,0.0,0.0,0.0,0.0,0.0,0.0,0.0,0.0,0.0,0.0,0.0,0.0,0.0,-2.2334,-2.2334,-2.2334,0.0,0.0,0.0,0.0,0.0,0.0,0.0,0.0,0.0,0.0,0.0,0.0,0.0,0.0,0.0,0.0,0.0,-1.525,-1.3645,-1.2501,-1.2501,-1.2501,-1.2501,-1.2501,-1.2406,-1.2208,-1.1808,-1.1239,-1.0657,-1.0272,-0.8795,-0.734,-0.7123,-0.5017,-0.2838,-0.2401,-0.1239,-0.0219,-0.0073,0.0,0.0,0.0,0.0,0.0,0.0,0.1311,0.2983,0.4872,0.6606,0.8377,1.026,1.0563,1.0651,1.0717,1.0717,1.0717,1.0717,1.0717,1.0663,1.0527,1.05,1.0358,0.9997,0.997,0.9896,0.9822,0.9822,0.9822,0.9822,0.9822,0.9822,0.9822,0.9822,0.9822,0.9822,0.9822,0.9822,0.9822,0.9822,0.9822,0.9822,0.9822,0.9822,0.9822,0.9822,0.9822,0.9822,0.0,0.0,0.0,0.0,0.0,0.0,0.0,0.0,0.0,0.0,-2.6386,-2.6386,0.0,0.0,0.0,0.0,0.0,0.0,0.0,0.0,0.0,0.0,0.0,0.0,-2.3719,-2.2818,-2.2334,-2.2334,-2.2334,-2.2334,0.0,0.0,0.0,0.0,0.0,0.0,0.0,0.0,0.0,0.0,0.0,0.0,0.0,0.0,0.0,0.0,-1.403,-1.2733,-1.2501,-1.2501,-1.2501,-1.2501,-1.2501,-1.2406,-1.2188,-1.1691,-1.1379,-1.1072,-1.0595,-0.9896,-0.908,-0.7847,-0.6833,-0.5525,-0.291,-0.2111,-0.153,-0.0292,0.0,0.0,0.0,0.0,0.0,0.0,0.1311,0.291,0.4584,0.6256,0.7965,0.9844,1.0225,1.0392,1.0658,1.0717,1.0717,1.0717,1.0717,1.0711,1.0683,1.0561,1.0358,0.9997,0.9862,0.9849,0.9822,0.9822,0.9822,0.9822,0.9822,0.9822,0.9822,0.9822,0.9822,0.9822,0.9822,0.9822,0.9822,0.9822,0.9822,0.9822,0.9822,0.9822,0.9822,0.9822,0.9822,0.9822,0.0,0.0,0.0,0.0,0.0,0.0,0.0,-2.6493,-2.6386,-2.6386,-2.6386,-2.6386,-2.6386,-2.6386,0.0,0.0,0.0,0.0,0.0,0.0,0.0,0.0,0.0,0.0,0.0,-2.2827,-2.2479,-2.2334,0.0,-2.2334,-2.2334,-2.2334,-2.2334,-2.2334,-2.2334,-2.2334,-2.2334,-2.2334,-2.2334,-2.2334,-2.2334,-2.2334,0.0,0.0,0.0,0.0,0.0,-1.319,-1.2501,-1.2501,-1.2501,-1.2501,-1.2501,-1.2406,-1.2264,-1.1883,-1.1582,-1.1218,-1.086,-1.0455,-0.9951,-0.9008,-0.8063,-0.6684,-0.4146,-0.291,-0.1893,-0.0292,0.0,0.0,0.0,0.0,0.0,0.0,0.0656,0.1676,0.3203,0.4905,0.6565,0.8313,0.9543,1.0259,1.0392,1.0585,1.0717,1.0717,1.0717,1.0717,1.0717,1.0575,1.0426,1.0283,1.0059,0.9876,0.9876,0.9863,0.9822,0.9822,0.9903,0.9876,0.9883,1.0025,1.0059,1.0059,1.0059,1.0059,1.0059,1.0059,1.0059,1.0059,1.0059,1.0059,1.0059,1.0059,1.0059,1.0046,0.0,0.0,0.0,0.0,0.0,0.0,0.0,-2.6573,-2.6386,-2.6386,-2.6386,-2.6386,-2.6386,-2.6386,-2.6386,0.0,0.0,0.0,0.0,0.0,0.0,0.0,0.0,0.0,0.0,0.0,0.0,-2.2334,-2.2334,0.0,0.0,0.0,0.0,0.0,-2.2334,-2.2334,-2.2334,-2.2334,-2.2334,0.0,0.0,-2.2334,0.0,0.0,0.0,0.0,0.0,-1.3876,-1.2501,-1.2501,-1.2501,-1.2494,-1.2467,-1.2359,-1.221,-1.206,-1.1683,-1.1325,-1.1142,-1.0894,-1.0527,-1.0239,-0.908,-0.763,-0.5742,-0.4,-0.2403,-0.0802,-0.0219,0.0,0.0,0.0,0.0,0.0,0.0,0.051,0.2103,0.3689,0.5302,0.7031,0.8917,1.0127,1.0193,1.0525,1.0717,1.0717,1.0717,1.0717,1.0717,1.0575,1.0493,1.0493,1.0236,1.0038,1.0038,0.9978,0.9917,0.9924,1.0039,1.0038,1.0038,1.0222,1.0283,1.0283,1.0283,1.0283,1.0283,1.0283,1.0283,1.0283,1.0283,1.0283,1.0283,1.0283,1.0283,1.0263,0.0,0.0,0.0,0.0,0.0,0.0,0.0,-2.6573,-2.6386,-2.6386,-2.6386,-2.6386,-2.6386,-2.6386,-2.6386,0.0,0.0,0.0,0.0,0.0,0.0,0.0,0.0,0.0,0.0,0.0,0.0,-2.2334,-2.2334,0.0,0.0,0.0,0.0,0.0,0.0,-2.2334,-2.2334,-2.2334,0.0,0.0,0.0,0.0,0.0,0.0,0.0,0.0,0.0,-1.3876,-1.2501,-1.2501,-1.2501,-1.2481,-1.2352,-1.2203,-1.2054,-1.1898,-1.1676,-1.1561,-1.1554,-1.126,-1.0972,-1.09,-1.0317,-0.9296,-0.7702,-0.5887,-0.4003,-0.2403,-0.0948,0.0,0.0,0.0,0.0,0.0,0.0,0.0509,0.2077,0.3458,0.508,0.6941,0.8733,0.9861,1.0193,1.0525,1.0717,1.0717,1.0717,1.0717,1.0717,1.0575,1.0493,1.0493,1.0337,1.0256,1.0256,1.0243,1.0236,1.0236,1.0249,1.0256,1.0256,1.0276,1.0283,1.0283,1.0283,1.0283,1.0283,1.0283,1.0283,1.0283,1.0283,1.0283,1.0283,1.0283,1.0283,1.0276,0.0,0.0,0.0,0.0,0.0,0.0,-2.7134,-2.6841,-2.6587,-2.6413,-2.6386,-2.6386,-2.6386,-2.6386,-2.6386,0.0,0.0,0.0,0.0,0.0,0.0,0.0,0.0,0.0,0.0,0.0,-2.2757,-2.2334,-2.2334,0.0,0.0,0.0,0.0,0.0,0.0,-2.2334,-2.2334,-2.2334,0.0,0.0,0.0,0.0,0.0,0.0,0.0,0.0,0.0,0.0,-1.2501,-1.2501,-1.2501,-1.2461,-1.223,-1.2108,-1.2033,-1.1877,-1.1728,-1.1619,-1.1619,-1.1476,-1.1332,-1.1044,-1.075,-1.0023,-0.8063,-0.625,-0.4509,-0.2692,-0.1094,0.0,0.0,0.0,0.0,0.0,0.0,0.0218,0.086,0.2118,0.3621,0.5283,0.7031,0.8451,0.9449,1.0054,1.0452,1.0651,1.0717,1.0717,1.0717,1.0663,1.0629,1.0629,1.0487,1.0405,1.0405,1.0324,1.0283,1.0283,1.0365,1.0405,1.0412,1.0507,1.0541,1.0541,1.0541,1.0541,1.0541,1.0541,1.0541,1.0541,1.0541,1.0541,1.0541,1.0541,1.0541,1.0534,0.0,0.0,0.0,0.0,0.0,-2.7602,-2.7308,-2.7014,-2.672,-2.6426,-2.6386,-2.6386,-2.6386,-2.6386,-2.6386,-2.6386,0.0,0.0,0.0,0.0,0.0,0.0,0.0,0.0,0.0,0.0,-2.2866,-2.2334,-2.2334,-2.2334,0.0,0.0,-2.2334,-2.2334,0.0,0.0,0.0,0.0,0.0,0.0,0.0,0.0,0.0,0.0,0.0,0.0,0.0,0.0,0.0,0.0,0.0,-1.2447,-1.2155,-1.2135,-1.202,-1.1823,-1.1694,-1.1619,-1.1619,-1.1619,-1.1548,-1.126,-1.1116,-1.0534,-0.8858,-0.6757,-0.4799,-0.3346,-0.1384,0.0,0.0,0.0,0.0,0.0,0.0,0.0,0.0,0.1199,0.2504,0.355,0.5601,0.7374,0.8379,0.9522,1.0326,1.0518,1.0651,1.0717,1.0717,1.0717,1.0717,1.0717,1.0616,1.0561,1.0561,1.046,1.0412,1.0412,1.0514,1.0561,1.0561,1.067,1.0717,1.0717,1.0717,1.0717,1.0717,1.0717,1.0717,1.0717,1.0717,1.0717,1.0717,1.0717,1.0717,1.0704,0.0,0.0,0.0,0.0,0.0,0.0,-2.7308,-2.7014,-2.672,-2.6426,-2.6386,-2.6386,-2.6386,-2.6386,-2.6386,-2.6386,0.0,0.0,0.0,0.0,0.0,0.0,0.0,0.0,0.0,0.0,-2.2866,-2.2334,-2.2334,-2.2334,-2.2334,-2.2334,-2.2334,-2.2334,0.0,0.0,0.0,0.0,0.0,0.0,0.0,0.0,0.0,0.0,0.0,0.0,0.0,0.0,0.0,0.0,0.0,0.0,0.0,-1.2135,-1.2006,-1.1708,-1.1619,-1.1619,-1.1619,-1.1619,-1.1619,-1.1619,-1.126,-1.09,-1.0527,-0.777,-0.509,-0.4729,-0.2186,0.0,0.0,0.0,0.0,0.0,0.0,0.0,0.0,0.1192,0.2081,0.2092,0.5031,0.6973,0.704,0.8917,1.0193,1.0193,1.0525,1.0717,1.0717,1.0717,1.0717,1.0717,1.0717,1.0717,1.0717,1.0717,1.0717,1.0717,1.0717,1.0717,1.0717,1.0717,1.0717,1.0717,1.0717,1.0717,1.0717,1.0717,1.0717,1.0717,1.0717,1.0717,1.0717,1.0717,1.0717,1.0717,0.0,0.0,0.0,0.0,0.0,0.0,0.0,-2.7188,-2.6947,-2.6453,-2.6386,-2.6386,-2.6386,-2.6386,-2.6386,-2.6386,0.0,0.0,0.0,0.0,0.0,0.0,0.0,0.0,0.0,-2.355,-2.3068,-2.26,-2.2418,-2.2334,-2.2334,-2.2334,-2.2334,-2.2334,-2.2334,-2.2334,0.0,0.0,0.0,0.0,0.0,0.0,-1.9585,0.0,0.0,0.0,0.0,0.0,0.0,0.0,0.0,0.0,0.0,0.0,0.0,-1.1708,-1.1619,-1.1619,-1.1619,-1.1619,-1.1619,-1.1619,-1.1476,-1.1332,-1.0894,-0.8131,-0.5522,-0.509,-0.233,0.0,0.0,0.0,0.0,0.0,0.0,0.0,0.0,0.0351,0.1041,0.1956,0.4766,0.6706,0.6973,0.8512,0.9655,1.0193,1.0326,1.0459,1.0717,1.0717,1.0717,1.0717,1.0717,1.0717,1.0717,1.0717,1.0717,1.0717,1.0717,1.0717,1.0717,1.0717,1.0717,1.0717,1.0717,1.0717,1.0717,1.0717,1.0717,1.0717,1.0717,1.0717,1.0717,1.0717,1.0717,1.0717,0.0,0.0,0.0,0.0,0.0,0.0,0.0,-2.7335,-2.7094,-2.6613,-2.6453,-2.6386,-2.6386,-2.6386,-2.6386,-2.6386,0.0,0.0,0.0,0.0,0.0,0.0,0.0,0.0,-2.4251,-2.364,-2.3188,-2.2733,-2.2467,-2.2334,-2.2334,-2.2334,-2.2334,-2.2334,-2.2334,-2.2334,0.0,0.0,0.0,0.0,0.0,0.0,-1.7759,0.0,0.0,0.0,0.0,0.0,0.0,0.0,0.0,0.0,0.0,0.0,0.0,0.0,-1.1701,-1.1687,-1.1633,-1.1619,-1.1619,-1.1619,-1.1619,-1.1476,-1.1116,-0.8275,-0.5667,-0.5307,-0.2403,0.0,0.0,0.0,0.0,0.0,0.0,0.0,0.0,0.0,0.0555,0.1956,0.3694,0.5302,0.664,0.7712,0.8712,0.9721,1.0054,1.0259,1.0525,1.0651,1.0717,1.0717,1.0717,1.0717,1.0717,1.0717,1.0717,1.0717,1.0717,1.0717,1.0717,1.0717,1.0717,1.0717,1.0717,1.0717,0.0,1.0717,1.0717,1.0717,1.0717,1.0717,1.0717,1.0717,1.0717,1.0717,0.0,0.0,0.0,0.0,0.0,0.0,0.0,-2.7455,-2.7161,-2.6867,-2.6573,-2.6386,-2.6386,-2.6386,-2.6386,-2.6386,0.0,0.0,0.0,0.0,0.0,0.0,0.0,0.0,-2.4275,-2.3688,-2.3237,-2.2757,-2.2491,-2.2358,-2.2334,-2.2334,-2.2334,-2.2334,-2.2334,-2.2334,0.0,0.0,0.0,0.0,-1.9661,-1.7759,0.0,0.0,0.0,0.0,0.0,0.0,0.0,0.0,0.0,0.0,0.0,0.0,0.0,0.0,0.0,0.0,0.0,-1.1626,-1.1619,-1.1619,-1.1619,-1.1476,-1.1116,-0.8348,0.0,-0.5304,-0.2475,0.0,0.0,0.0,0.0,0.0,0.0,0.0,0.0,0.0,0.0485,0.1821,0.2017,0.3157,0.5837,0.664,0.7507,0.8845,0.9655,1.0127,1.0193,1.0452,1.0651,1.0651,1.0717,1.0717,1.0717,1.0717,1.0717,1.0717,1.0717,1.0717,1.0717,1.0717,1.0717,1.0717,1.0717,1.0717,1.0717,1.0717,1.0717,1.0717,1.0717,1.0717,1.0717,1.0717,1.0717,1.0717,0.0,0.0,0.0,0.0,0.0,0.0,0.0,0.0,0.0,0.0,-2.6573,-2.6386,-2.6386,-2.6386,-2.6307,0.0,0.0,0.0,0.0,0.0,0.0,0.0,0.0,0.0,-2.454,-2.4214,-2.3683,-2.3024,-2.277,-2.2527,-2.2334,-2.2334,-2.2334,-2.2334,-2.2334,-2.2334,0.0,0.0,0.0,0.0,-1.8441,-1.6694,0.0,0.0,0.0,0.0,-1.2501,-1.2501,0.0,0.0,0.0,0.0,0.0,0.0,0.0,0.0,-1.1925,0.0,-1.1789,0.0,-1.1619,-1.1619,-1.1619,-1.1548,0.0,-0.8786,-0.6174,-0.5739,-0.2912,-0.0365,-0.0073,0.0,0.0,0.0,0.0,0.0,0.0,0.0,0.0136,0.0471,0.1412,0.2353,0.3023,0.5168,0.6773,0.7441,0.8645,0.9522,0.9794,1.0127,1.0326,1.0326,1.0591,1.0717,1.0717,1.0717,1.0717,1.0717,1.0717,1.0717,1.0717,1.0717,1.0717,1.0717,1.0717,1.0717,1.0717,1.0717,1.0717,1.0717,1.0717,1.0717,1.0717,1.0717,1.0717,1.0717,0.0,0.0,0.0,0.0,0.0,0.0,0.0,0.0,0.0,0.0,0.0,0.0,0.0,0.0,0.0,0.0,0.0,0.0,0.0,0.0,0.0,0.0,0.0,-2.518,-2.4637,-2.4371,-2.384,-2.3121,-2.2854,-2.2588,-2.2334,-2.2334,-2.2334,-2.2334,-2.2334,-2.2334,-2.2259,-2.1499,-2.0199,-1.8592,-1.6922,0.0,0.0,0.0,0.0,0.0,-1.2501,-1.2501,0.0,-1.2501,-1.2501,-1.2488,0.0,0.0,0.0,0.0,-1.2108,-1.2013,-1.187,-1.1728,-1.1619,-1.1619,-1.1619,-1.1619,-1.1619,-0.893,-0.6319,-0.5881,-0.3057,-0.0511,-0.0073,0.0,0.0,0.0,0.0,0.0,0.0,0.0,0.0,0.0,0.0673,0.1412,0.2017,0.3492,0.5034,0.664,0.7574,0.8512,0.9389,0.9794,1.006,1.0193,1.0392,1.0518,1.0717,1.0717,1.0717,1.0717,1.0717,1.0717,1.0717,1.0717,1.0717,1.0717,1.0717,1.0717,1.0717,1.0717,1.0717,1.0717,1.0717,1.0717,1.0717,1.0717,1.0717,1.0717,0.0,0.0,0.0,0.0,0.0,0.0,0.0,0.0,0.0,0.0,0.0,0.0,0.0,0.0,0.0,0.0,0.0,0.0,0.0,0.0,0.0,0.0,-2.5433,-2.518,-2.4637,-2.4407,-2.3888,-2.3121,-2.2903,-2.2636,-2.2334,-2.2334,-2.2334,-2.2334,-2.2334,-2.2184,-2.1798,-2.0425,-1.8744,-1.6922,-1.5472,0.0,0.0,0.0,0.0,0.0,0.0,0.0,0.0,-1.2501,-1.2501,-1.2501,-1.2501,0.0,0.0,0.0,0.0,0.0,-1.1972,-1.1782,-1.1647,-1.1626,-1.1619,-1.1619,-1.1619,-0.893,-0.6391,-0.5884,-0.3057,-0.0584,-0.0073,0.0,0.0,0.0,0.0,0.0,0.0,0.0,0.0,0.0,0.0,0.0471,0.1681,0.195,0.3224,0.5904,0.6573,0.7512,0.8917,0.9389,0.9794,1.0127,1.0193,1.0392,1.0717,1.0717,1.0717,1.0717,1.0717,1.0717,1.0717,1.0717,1.0717,1.0717,1.0717,1.0717,1.0717,1.0717,1.0717,1.0717,1.0717,1.0717,1.0717,1.0717,1.0717,1.0717,0.0,0.0,0.0,0.0,0.0,0.0,0.0,0.0,0.0,0.0,0.0,0.0,0.0,0.0,0.0,0.0,0.0,0.0,0.0,0.0,0.0,-2.5433,-2.5433,-2.518,-2.4637,-2.4589,-2.4069,-2.3121,-2.3084,-2.2818,-2.2334,-2.2334,-2.2334,-2.2334,-2.2334,-2.1499,-2.0199,-1.9887,-1.8062,-1.5242,-1.502,0.0,0.0,0.0,0.0,0.0,0.0,0.0,0.0,-1.2501,-1.2501,-1.2501,-1.2501,0.0,0.0,0.0,0.0,0.0,-1.223,-1.2013,-1.1769,-1.1647,-1.1619,-1.1619,-1.1619,-0.9147,-0.668,-0.5953,-0.3276,-0.0876,-0.0146,0.0,0.0,0.0,0.0,0.0,0.0,0.0,0.0,0.0,0.0,0.0067,0.0269,0.1412,0.2821,0.4495,0.577,0.7111,0.8584,0.8984,0.9389,0.9794,1.006,1.0392,1.0717,1.0717,1.0717,1.0717,1.0717,1.0717,1.0717,1.0717,1.0717,1.0717,1.0717,1.0717,1.0717,1.0717,1.0717,1.0717,1.0717,1.0717,1.0717,1.0717,1.0717,1.0717,0.0,0.0,0.0,0.0,0.0,0.0,0.0,0.0,0.0,0.0,0.0,0.0,0.0,0.0,0.0,0.0,0.0,0.0,0.0,0.0,-2.5289,-2.5433,-2.5301,-2.5035,-2.4637,-2.4625,-2.4106,-2.3121,-2.3121,-2.2854,-2.2334,-2.2334,-2.2334,-2.2259,-2.1337,-2.05,-1.9661,-1.791,-1.6312,-1.479,0.0,0.0,0.0,0.0,0.0,0.0,0.0,0.0,0.0,0.0,-1.2501,-1.2501,-1.2501,0.0,0.0,0.0,0.0,0.0,-1.221,-1.206,-1.1904,-1.1674,-1.1619,-1.1619,-1.1619,-0.9873,-0.7837,-0.6391,-0.4146,-0.204,-0.0584,-0.0145,0.0,0.0,0.0,0.0,0.0,0.0,0.0,0.0,0.0,0.0,0.0,0.0606,0.1546,0.3023,0.4428,0.5904,0.7312,0.8318,0.8989,0.9389,0.9728,1.006,1.0452,1.0591,1.0717,1.0717,1.0717,1.0717,1.0717,1.0717,1.0717,1.0717,1.0717,1.0717,1.0717,1.0717,1.0717,1.0717,1.0717,1.0717,1.0717,1.0717,1.0717,1.0717,0.0,0.0,0.0,0.0,0.0,0.0,0.0,0.0,0.0,0.0,0.0,0.0,0.0,0.0,0.0,0.0,0.0,0.0,0.0,-2.489,-2.5083,-2.5421,-2.5107,-2.4831,-2.4637,-2.4504,-2.3985,-2.3121,-2.306,-2.2794,-2.2334,-2.2334,-2.2109,-2.1648,-2.0349,-1.9359,-1.8517,-1.6007,-1.4713,-1.4253,0.0,0.0,0.0,0.0,0.0,0.0,0.0,0.0,0.0,0.0,0.0,0.0,0.0,0.0,0.0,-1.2501,-1.2501,-1.2447,-1.2182,-1.2088,-1.1999,-1.1735,-1.1647,-1.1619,-1.1619,-1.0377,-0.8781,-0.6829,-0.4942,-0.3056,-0.1094,-0.0432,-0.0141,0.0,0.0,0.0,0.0,0.0,0.0,0.0,0.0,0.0,0.0,0.0,0.0606,0.2017,0.349,0.4897,0.6309,0.7784,0.8784,0.9117,0.9455,0.9861,1.0193,1.0518,1.0717,1.0717,1.0717,1.0717,1.0717,1.0717,1.0717,1.0717,1.0717,1.0717,1.0717,1.0717,1.0717,1.0717,1.0717,1.0717,1.0717,1.0717,1.0717,1.0717,0.0,0.0,0.0,0.0,0.0,0.0,0.0,0.0,0.0,0.0,0.0,0.0,0.0,0.0,0.0,0.0,0.0,0.0,0.0,-2.489,-2.5083,-2.5421,-2.5107,-2.4831,-2.4637,-2.4154,-2.3623,-2.3121,-2.2879,-2.2612,-2.2334,-2.2334,-2.1499,-1.9962,-1.9811,-1.8138,-1.5242,-1.502,-1.403,-1.2656,-1.2579,0.0,0.0,0.0,0.0,0.0,0.0,0.0,0.0,0.0,0.0,0.0,0.0,0.0,-1.2501,-1.2501,-1.2501,-1.2467,-1.2318,-1.2169,-1.202,-1.1857,-1.1714,-1.1619,-1.1619,-1.0377,-0.8781,-0.6829,-0.5162,-0.3494,-0.1532,-0.0858,-0.042,-0.0069,0.0,0.0,0.0,0.0,0.0,0.0,0.0,0.0,0.0,0.0,0.0606,0.2017,0.349,0.4897,0.6309,0.7784,0.8784,0.9117,0.9455,0.9861,1.0193,1.0518,1.0717,1.0717,1.0717,1.0717,1.0717,1.0717,1.0717,1.0717,1.0717,1.0717,1.0717,1.0717,1.0717,1.0717,1.0717,1.0717,1.0717,1.0717,1.0717,1.0717,0.0,0.0,0.0,0.0,0.0,0.0,0.0,0.0,0.0,0.0,0.0,0.0,0.0,0.0,0.0,0.0,0.0,0.0,0.0,-2.1348,-2.2011,-2.3376,-2.3225,-2.3407,-2.4073,-2.3868,-2.3587,-2.3121,-2.1608,-2.1354,-2.2259,-2.0199,-1.9434,-1.9736,-1.7683,-1.6083,-1.4867,-1.3799,-1.3035,-1.2501,-1.2501,-1.2501,0.0,0.0,0.0,0.0,0.0,0.0,0.0,0.0,-1.2501,-1.2501,-1.2501,-1.2501,-1.2501,-1.2501,-1.2501,-1.2447,-1.221,-1.2108,-1.2006,-1.1762,-1.166,-1.1619,-1.1619,-1.0377,-0.9074,-0.8348,-0.6029,-0.3403,-0.1214,-0.0491,-0.0207,0.0,0.0,0.0,0.0,0.0,0.0,0.0,0.0,0.0,0.0,0.0,0.0202,0.074,0.215,0.3559,0.5031,0.6439,0.7712,0.8784,0.9123,0.9522,0.9861,1.0193,1.0518,1.0717,1.0717,1.0717,1.0717,1.0717,1.0717,1.0717,1.0717,1.0717,1.0717,1.0717,1.0717,1.0717,1.0717,1.0717,1.0717,1.0717,1.0717,1.0717,0.0,0.0,0.0,0.0,0.0,0.0,0.0,0.0,0.0,0.0,0.0,0.0,0.0,0.0,0.0,0.0,0.0,0.0,-1.9137,-1.9166,-1.9852,-2.1354,-2.1149,-2.1384,-2.2211,-2.1975,-2.2008,-2.2206,-2.0081,-1.9661,-2.0725,-1.8441,-1.7683,-1.8138,-1.593,-1.4637,-1.4107,-1.2958,-1.2501,-1.2501,-1.2501,-1.2501,0.0,0.0,0.0,0.0,0.0,0.0,0.0,0.0,-1.2501,-1.2501,-1.2501,-1.2501,-1.2501,-1.2501,-1.2501,-1.2433,-1.2142,-1.2135,-1.1993,-1.1694,-1.1619,-1.1619,-1.1619,-1.0377,-0.9147,-0.8709,-0.5867,-0.2948,-0.1127,-0.0555,-0.0274,-0.0067,0.0,0.0,0.0,0.0,0.0,0.0,0.0,0.0,0.0,0.0,0.0,0.0,0.1277,0.2754,0.4227,0.5637,0.7045,0.8518,0.8917,0.925,0.9522,0.9994,1.0326,1.0518,1.0651,1.0717,1.0717,1.0717,1.0717,1.0717,1.0717,1.0717,1.0717,1.0717,1.0717,1.0717,1.0717,1.0717,1.0717,1.0717,1.0717,1.0717,0.0,0.0,0.0,0.0,0.0,0.0,0.0,0.0,0.0,0.0,0.0,0.0,0.0,0.0,0.0,0.0,0.0,0.0,-1.9137,-1.9156,-1.925,-1.9543,-1.9146,-1.8907,-1.877,-1.816,-1.8531,-2.0156,-1.8323,-1.7379,-1.7379,-1.7379,-1.6465,-1.4867,-1.4867,-1.403,-1.2501,-1.2501,-1.2501,-1.2501,-1.2501,-1.2501,-1.2501,0.0,0.0,0.0,0.0,0.0,0.0,0.0,-1.2501,-1.2501,-1.2501,-1.2501,-1.2501,-1.2501,-1.2501,-1.2433,-1.2142,-1.2135,-1.1993,-1.1694,-1.1619,-1.1619,-1.1619,-1.0377,-0.8853,-0.7331,-0.4464,-0.2067,-0.1337,-0.111,-0.0821,-0.0135,0.0,0.0,0.0,0.0,0.0,0.0,0.0,0.0,0.0,0.0,0.0,0.0,0.1277,0.2754,0.4227,0.5637,0.7045,0.8518,0.8917,0.9117,0.9117,0.9854,1.0193,1.0193,1.0518,1.0717,1.0717,1.0717,1.0717,1.0717,1.0717,1.0717,1.0717,1.0717,1.0717,1.0717,1.0717,1.0717,1.0717,1.0717,1.0717,1.0717,0.0,0.0,0.0,0.0,0.0,0.0,0.0,0.0,0.0,0.0,0.0,0.0,0.0,0.0,0.0,0.0,0.0,0.0,-1.5338,-1.534,-1.5939,-1.7383,-1.711,-1.7322,-1.8191,-1.6623,-1.6545,-1.8237,-1.6492,-1.6236,-1.7379,-1.502,-1.4253,-1.4867,-1.3722,-1.2958,-1.2501,-1.2501,-1.2501,-1.2501,-1.2501,-1.2501,-1.2501,0.0,0.0,0.0,0.0,0.0,0.0,0.0,0.0,0.0,-1.2501,-1.2501,-1.2501,-1.2501,-1.2501,-1.2433,-1.2142,-1.2135,-1.1993,-1.1694,-1.1619,-1.1619,-1.1619,-1.0377,-0.8564,-0.596,-0.4358,-0.3024,-0.1474,-0.0895,-0.0541,-0.0067,0.0,0.0,0.0,0.0,0.0,0.0,0.0,0.0,0.0,0.0,0.0,0.0,0.0404,0.168,0.416,0.4696,0.6038,0.8523,0.8717,0.8851,0.9117,0.9588,0.9994,1.0193,1.0518,1.0717,1.0717,1.0717,1.0717,1.0717,1.0717,1.0717,1.0717,1.0717,1.0717,1.0717,1.0717,1.0717,1.0717,1.0717,1.0717,1.0717,0.0,0.0,0.0,0.0,0.0,0.0,0.0,0.0,0.0,0.0,-1.5302,-1.4541,0.0,0.0,0.0,0.0,0.0,0.0,0.0,-1.3709,-1.4084,-1.527,-1.5029,-1.5142,-1.5817,-1.4593,-1.4406,-1.548,-1.4406,-1.4483,-1.5403,-1.3421,-1.3035,-1.3876,-1.2958,-1.2501,-1.2501,-1.2501,-1.2501,-1.2501,-1.2501,-1.2501,-1.2494,0.0,0.0,0.0,0.0,0.0,0.0,0.0,0.0,0.0,-1.2501,-1.2501,-1.2501,-1.2501,-1.2501,-1.2433,-1.2142,-1.2135,-1.1993,-1.1694,-1.1619,-1.1476,-1.0815,-0.9507,-0.7476,-0.4366,-0.3494,-0.2871,-0.1613,-0.1029,-0.0606,-0.0269,-0.0067,0.0,0.0,0.0,0.0,0.0,0.0,0.0,0.0,0.0,0.0,0.0,0.0,0.1277,0.416,0.4294,0.5633,0.8523,0.859,0.8717,0.8917,0.9455,0.9794,0.9994,1.0452,1.0717,1.0717,1.0717,1.0717,1.0717,1.0717,1.0717,1.0717,1.0717,1.0717,1.0717,1.0717,1.0717,1.0717,1.0717,1.0717,1.0717,0.0,0.0,0.0,0.0,0.0,0.0,0.0,0.0,0.0,0.0,-1.358,-1.3403,0.0,0.0,0.0,0.0,0.0,0.0,0.0,0.0,-1.3587,-1.3587,-1.3295,-1.2935,-1.2508,-1.2501,-1.2501,-1.2501,-1.2501,-1.2501,-1.2501,-1.2501,-1.2501,-1.2501,-1.2501,-1.2501,-1.2501,-1.2501,-1.2501,-1.2501,-1.2488,-1.2481,-1.2467,-1.2325,0.0,0.0,0.0,0.0,0.0,0.0,0.0,0.0,-1.2501,-1.2501,-1.2501,-1.2501,-1.2501,-1.2433,-1.2142,-1.2135,-1.1993,-1.1694,-1.1619,-1.1181,-0.9507,-0.7982,-0.6174,-0.3132,-0.2359,-0.2108,-0.1754,-0.1374,-0.1011,-0.0539,-0.0269,-0.0067,0.0,0.0,0.0,0.0,0.0,0.0,0.0,0.0,0.0,0.0,0.0,0.1277,0.416,0.4294,0.5633,0.8523,0.859,0.859,0.859,0.9328,0.9728,0.9728,1.0392,1.0717,1.0717,1.0717,1.0717,1.0717,1.0717,1.0717,1.0717,1.0717,1.0717,1.0717,1.0717,1.0717,1.0717,1.0717,1.0717,1.0717,0.0,0.0,0.0,0.0,0.0,0.0,0.0,0.0,0.0,0.0,0.0,0.0,0.0,0.0,0.0,0.0,0.0,0.0,0.0,0.0,-1.3268,-1.3268,-1.2983,-1.2725,-1.2508,-1.2501,-1.2501,-1.2501,-1.2501,-1.2501,-1.2501,-1.2501,-1.2501,-1.2501,-1.2501,-1.2501,-1.2501,-1.2501,-1.2501,-1.2488,-1.2379,-1.2338,-1.2318,-1.2169,-1.2128,0.0,0.0,0.0,0.0,0.0,0.0,0.0,-1.2501,-1.2501,-1.2501,-1.2501,-1.2501,-1.2433,-1.2142,-1.2135,-1.1993,-1.1694,-1.1619,-1.0887,-0.8126,-0.7259,-0.6463,-0.4584,-0.3167,-0.2132,-0.1757,-0.1661,-0.1363,-0.0607,-0.0471,-0.0269,-0.0067,0.0,0.0,0.0,0.0,0.0,0.0,0.0,0.0,0.0,0.0,0.1277,0.416,0.4294,0.5633,0.8523,0.859,0.859,0.859,0.9328,0.9728,0.9728,1.0392,1.0717,1.0717,1.0717,1.0717,1.0717,1.0717,1.0717,1.0717,1.0717,1.0717,1.0717,1.0717,1.0717,1.0717,1.0717,1.0717,1.0717,0.0,0.0,0.0,0.0,0.0,0.0,0.0,0.0,0.0,0.0,0.0,0.0,0.0,0.0,0.0,0.0,0.0,0.0,0.0,0.0,-1.3037,-1.2963,-1.2745,-1.2583,-1.2501,-1.2501,-1.2501,-1.2501,-1.2501,-1.2501,-1.2501,-1.2501,-1.2501,-1.2501,-1.2501,-1.2501,-1.2501,-1.2501,-1.2461,-1.2393,-1.2318,-1.2244,-1.2162,-1.2013,-1.1999,-1.2135,-1.2067,0.0,0.0,0.0,0.0,0.0,0.0,0.0,-1.2501,-1.2501,-1.2501,-1.2454,-1.223,-1.2121,-1.1993,-1.1694,-1.1619,-1.0966,-0.8636,-0.7548,-0.6536,-0.502,-0.3391,-0.2209,-0.1969,-0.1804,-0.1574,-0.1079,-0.0741,-0.0471,-0.0269,-0.0135,0.0,0.0,0.0,0.0,0.0,0.0,0.0,0.0,0.0,0.0941,0.3155,0.3892,0.5299,0.7445,0.8251,0.859,0.859,0.9328,0.9728,0.9728,1.0392,1.0717,1.0717,1.0717,1.0717,1.0717,1.0717,1.0717,1.0717,1.0717,1.0717,1.0717,1.0717,1.0717,1.0717,1.0717,1.0717,1.0717,0.0,0.0,0.0,0.0,0.0,0.0,0.0,0.0,0.0,0.0,0.0,0.0,0.0,0.0,0.0,0.0,0.0,0.0,0.0,0.0,0.0,-1.2698,-1.2569,-1.2501,-1.2501,-1.2501,-1.2501,-1.2501,-1.2501,-1.2501,-1.2501,-1.2501,-1.2501,-1.2501,-1.2501,-1.2501,-1.2501,-1.2474,-1.24,-1.2284,-1.223,-1.2135,-1.2006,-1.185,-1.187,-1.1972,-1.187,-1.2013,-1.2257,-1.2284,0.0,0.0,0.0,0.0,-1.2501,-1.2501,-1.2501,-1.2467,-1.2332,-1.2155,-1.1965,-1.1714,-1.164,-1.1181,-0.9651,-0.8126,-0.6536,-0.502,-0.3395,-0.2289,-0.2259,-0.2024,-0.179,-0.1626,-0.1081,-0.0675,-0.0606,-0.0337,-0.0067,-0.0067,-0.0067,0.0,0.0,0.0,0.0,0.0,0.0,0.0606,0.2017,0.349,0.4964,0.6376,0.7851,0.859,0.859,0.9328,0.9728,0.9728,1.0392,1.0717,1.0717,1.0717,1.0717,1.0717,1.0717,1.0717,1.0717,1.0717,1.0717,1.0717,1.0717,1.0717,1.0717,1.0717,1.0717,1.0717,0.0,0.0,0.0,0.0,0.0,0.0,0.0,0.0,0.0,0.0,-1.341,-1.3403,0.0,0.0,0.0,0.0,0.0,0.0,0.0,0.0,0.0,-1.2535,-1.2515,-1.2501,-1.2501,-1.2501,-1.2501,-1.2501,-1.2501,-1.2501,-1.2501,-1.2501,-1.2501,-1.2501,-1.2501,-1.2501,-1.2494,-1.2372,-1.2311,-1.2264,-1.1999,-1.1877,-1.1843,-1.1701,-1.166,-1.1694,-1.1796,-1.1945,-1.2115,-1.2244,-1.2386,0.0,0.0,0.0,-1.2501,-1.2501,-1.2501,-1.2467,-1.2332,-1.2081,-1.185,-1.1816,-1.1708,-1.1181,-0.9651,-0.8126,-0.6536,-0.502,-0.3419,-0.2319,-0.229,-0.2281,-0.2119,-0.1721,-0.1577,-0.1433,-0.1079,-0.0673,-0.0404,-0.0404,-0.0202,0.0,0.0,0.0,0.0,0.0,0.0,0.0606,0.2017,0.349,0.4964,0.6376,0.7851,0.859,0.859,0.9328,0.9728,0.9728,1.0392,1.0717,1.0717,1.0717,1.0717,1.0717,1.0717,1.0717,1.0717,1.0717,1.0717,1.0717,1.0717,1.0717,1.0717,1.0717,1.0717,1.0717,0.0,0.0,0.0,0.0,0.0,0.0,0.0,0.0,0.0,0.0,0.0,-1.3403,0.0,0.0,0.0,-1.318,-1.3024,-1.2834,0.0,0.0,0.0,0.0,-1.2501,-1.2501,-1.2501,-1.2501,-1.2501,-1.2501,-1.2501,-1.2501,-1.2501,-1.2501,-1.2501,-1.2501,-1.2501,-1.2501,-1.2494,-1.2352,-1.2244,-1.2142,-1.1918,-1.1636,-1.1345,-1.1568,-1.1476,-1.1266,-1.1615,-1.1809,-1.1952,-1.2108,-1.2264,-1.24,-1.2474,0.0,0.0,0.0,-1.2501,-1.2467,-1.2332,-1.2189,-1.2047,-1.187,-1.1782,-1.1279,-0.9668,-0.8126,-0.6536,-0.502,-0.3423,-0.2324,-0.2296,-0.229,-0.2206,-0.2023,-0.1797,-0.1646,-0.1432,-0.088,-0.0471,-0.0471,-0.0202,0.0,0.0,0.0,0.0,0.0,0.0,0.0269,0.0875,0.3088,0.4562,0.5232,0.7445,0.859,0.859,0.9328,0.9861,1.0259,1.0591,1.0717,1.0717,1.0717,1.0717,1.0717,1.0717,1.0717,1.0717,1.0717,1.0717,1.0717,1.0717,1.0717,1.0717,1.0717,1.0717,1.0717,0.0,0.0,0.0,0.0,0.0,0.0,0.0,0.0,0.0,0.0,0.0,0.0,0.0,0.0,0.0,0.0,-1.2854,-1.2664,-1.2515,0.0,0.0,0.0,0.0,-1.2501,-1.2501,-1.2501,-1.2501,-1.2501,-1.2501,-1.2501,-1.2501,-1.2501,-1.2501,-1.2501,-1.2501,-1.2481,-1.244,-1.2291,-1.2142,-1.1993,-1.169,-1.1352,-1.1044,-1.1253,-1.1109,-1.0894,-1.1332,-1.1563,-1.1703,-1.1965,-1.2135,-1.2311,-1.2413,-1.2474,0.0,0.0,0.0,-1.2481,-1.2372,-1.2318,-1.2223,-1.1959,-1.1857,-1.1424,-1.0191,-0.842,-0.668,-0.5525,-0.3712,-0.2326,-0.2305,-0.2301,-0.2292,-0.2262,-0.2027,-0.1873,-0.1798,-0.1229,-0.0744,-0.0677,-0.0337,-0.0067,0.0,0.0,0.0,0.0,0.0,0.0,0.0,0.2752,0.4294,0.4294,0.7107,0.859,0.859,0.9328,1.006,1.0717,1.0717,1.0717,1.0717,1.0717,1.0717,1.0717,1.0717,1.0717,1.0717,1.0717,1.0717,1.0717,1.0717,1.0717,1.0717,1.0585,1.0591,1.0591,0.0,0.0,0.0,0.0,0.0,0.0,0.0,0.0,0.0,0.0,0.0,0.0,-1.3186,-1.3057,-1.2915,-1.2766,-1.2739,-1.2664,-1.2515,-1.2501,0.0,0.0,0.0,0.0,-1.2501,-1.2501,-1.2501,-1.2501,-1.2501,-1.2501,-1.2501,-1.2501,-1.2501,-1.2501,-1.2501,-1.2427,-1.2291,-1.2142,-1.1986,-1.1757,-1.1253,-1.105,-1.0972,-1.0678,-1.0527,-1.0599,-1.09,-1.1128,-1.1397,-1.169,-1.204,-1.2291,-1.2298,-1.2393,-1.2501,0.0,0.0,0.0,-1.2494,-1.2393,-1.225,-1.2088,-1.1938,-1.1723,-1.1502,-0.9147,-0.697,-0.6898,-0.4436,-0.2333,-0.2331,-0.2331,-0.2322,-0.2293,-0.2288,-0.2277,-0.2176,-0.187,-0.151,-0.1098,-0.0746,-0.0337,0.0,0.0,0.0,0.0,0.0,0.0,0.0,0.2752,0.4294,0.4294,0.7107,0.859,0.859,0.9328,1.006,1.0717,1.0717,1.0717,1.0717,1.0717,1.0717,1.0717,1.0717,1.0717,1.0717,1.0717,1.0717,1.0717,1.0717,1.0717,1.0651,1.0326,1.0259,1.0193,0.0,0.0,0.0,0.0,0.0,0.0,0.0,0.0,0.0,0.0,0.0,0.0,0.0,-1.2901,-1.2793,-1.2732,-1.2637,-1.2562,-1.2508,-1.2501,0.0,0.0,0.0,0.0,-1.2501,-1.2501,-1.2501,-1.2501,-1.2501,-1.2501,-1.2501,-1.2501,-1.2501,-1.2501,-1.2501,-1.242,-1.2277,-1.2128,-1.1824,-1.1457,-1.1096,-1.0756,-1.0167,-0.9291,-0.8858,-0.8714,-0.9002,-0.9173,-0.9512,-1.0992,-1.1536,-1.1735,-1.2154,-1.2325,-1.2386,-1.2474,-1.2501,-1.2501,-1.2501,-1.2467,-1.2393,-1.2244,-1.2094,-1.1414,-0.9286,-0.7888,-0.6391,-0.4364,-0.3059,-0.2333,-0.2333,-0.2333,-0.233,-0.2319,-0.2303,-0.2288,-0.2277,-0.1967,-0.1666,-0.1514,-0.0958,-0.0476,-0.0337,-0.0135,0.0,0.0,0.0,0.0,0.0,0.1814,0.3289,0.4294,0.6172,0.7851,0.9262,0.9594,1.006,1.0717,1.0717,1.0717,1.0717,1.0717,1.0717,1.0717,1.0717,1.0717,1.0717,1.0717,1.0591,1.0392,1.0392,1.0259,1.006,0.9927,0.9861,0.9861,0.0,0.0,0.0,0.0,0.0,0.0,0.0,0.0,0.0,-1.3186,0.0,0.0,0.0,0.0,-1.2651,-1.2651,-1.2562,-1.2501,-1.2501,-1.2501,-1.2501,0.0,0.0,0.0,-1.2501,-1.2501,-1.2501,-1.2501,-1.2501,-1.2501,-1.2501,-1.2501,-1.2501,-1.2501,-1.2454,-1.2352,-1.2203,-1.2047,-1.1376,-1.0426,-1.0125,-0.9341,-0.8227,-0.7289,-0.6785,-0.6641,-0.6997,-0.7162,-0.7344,-0.8941,-0.9505,-0.9639,-1.0179,-1.0905,-1.1612,-1.2246,-1.2467,-1.2501,-1.2501,-1.2501,-1.2467,-1.2325,-1.2176,-1.1343,-0.8607,-0.7473,-0.6246,-0.3639,-0.2697,-0.2333,-0.2333,-0.2333,-0.2333,-0.2333,-0.2318,-0.2305,-0.2305,-0.2066,-0.183,-0.1744,-0.118,-0.0688,-0.0543,-0.0203,0.0,0.0,0.0,0.0,0.0,0.1345,0.3023,0.4964,0.6372,0.7932,0.9527,0.9728,1.0082,1.0665,1.0752,1.0799,1.0799,1.0744,1.0717,1.0717,1.0717,1.0651,1.0518,1.0518,1.0326,1.006,1.006,0.9927,0.9661,0.9528,0.9522,0.9455,0.0,0.0,0.0,0.0,0.0,0.0,0.0,0.0,-1.3166,-1.3159,0.0,0.0,0.0,0.0,0.0,-1.2501,-1.2501,-1.2501,-1.2501,-1.2501,-1.2501,-1.2501,0.0,0.0,-1.2501,-1.2501,-1.2501,-1.2501,-1.2501,-1.2501,-1.2501,-1.2501,-1.2501,-1.2488,-1.2345,-1.2196,-1.1972,-1.1817,-1.0565,-0.8631,-0.8198,-0.6845,-0.5137,-0.4781,-0.4638,-0.4638,-0.4988,-0.5102,-0.5159,-0.5663,-0.5852,-0.6061,-0.6433,-0.8122,-1.0205,-1.1669,-1.2226,-1.2333,0.0,0.0,0.0,-1.2166,-1.2018,-1.1499,-0.9798,-0.8134,-0.6463,-0.4947,-0.3423,-0.2333,-0.2333,-0.2333,-0.2333,-0.2333,-0.2333,-0.2333,-0.2333,-0.2309,-0.2148,-0.1861,-0.1415,-0.0978,-0.062,-0.0275,0.0,0.0,0.0,0.0,0.0,0.1346,0.343,0.625,0.7794,0.8856,0.9313,0.9721,1.0129,1.0606,1.0811,1.088,1.0873,1.0792,1.0717,1.0717,1.0717,1.0525,1.0193,1.0193,0.9994,0.9661,0.9661,0.9661,0.9594,0.925,0.9117,0.905,0.0,0.0,0.0,0.0,0.0,0.0,-1.3234,-1.3112,-1.2983,0.0,0.0,0.0,-1.2576,-1.2528,-1.2501,-1.2501,-1.2501,-1.2501,-1.2501,-1.2501,-1.2501,-1.2501,-1.2501,-1.2501,-1.2501,-1.2501,-1.2501,-1.2501,-1.2501,-1.2501,-1.2501,-1.2501,-1.2447,-1.2338,-1.2189,-1.1288,-0.9809,-0.9702,-0.9175,-0.8126,-0.6608,-0.5512,-0.4699,-0.3437,-0.2997,-0.2993,-0.3035,-0.312,-0.3299,-0.4872,-0.542,-0.5484,-0.5974,-0.6731,-0.7423,-0.8106,-0.8351,-0.845,-0.8758,0.0,0.0,0.0,0.0,0.0,-0.6541,-0.5726,-0.4875,-0.3278,-0.2624,-0.2333,-0.2333,-0.2333,-0.2333,-0.2333,-0.2333,-0.2333,-0.2333,-0.2326,-0.2241,-0.215,-0.1569,-0.1133,-0.0978,-0.0349,0.0,0.0,0.0,0.0,0.0,0.2423,0.4218,0.4977,0.7465,0.9004,0.9452,0.959,0.9953,1.0606,1.0538,1.0677,1.0873,1.0792,1.0717,1.0717,1.0459,1.0127,0.9861,1.0127,0.9854,0.9256,0.9256,0.9123,0.8923,0.8784,0.8717,0.8717,0.0,0.0,0.0,0.0,0.0,0.0,-1.3085,-1.2956,-1.2834,0.0,0.0,0.0,-1.2515,-1.2501,-1.2501,-1.2501,-1.2501,-1.2501,-1.2501,-1.2501,-1.2501,-1.2501,-1.2501,-1.2501,-1.2501,-1.2501,-1.2501,-1.2501,-1.2501,-1.2501,-1.2501,-1.2501,-1.2427,-1.2284,-1.1446,-1.0253,-0.8798,-0.728,-0.6359,-0.5808,-0.4721,-0.3614,-0.2648,-0.1706,-0.1341,-0.1333,-0.1323,-0.1331,-0.1489,-0.2635,-0.3167,-0.3425,-0.4397,-0.4963,-0.5388,-0.6209,-0.6533,-0.6634,-0.6864,-0.6974,-0.7001,-0.6951,0.0,0.0,-0.4752,-0.4407,-0.393,-0.2187,-0.1824,-0.1824,-0.1824,-0.1824,-0.1824,-0.1824,-0.1824,-0.1969,-0.226,-0.2333,-0.2327,-0.2311,-0.1659,-0.1221,-0.1133,-0.0424,0.0,0.0,0.0,0.0,0.0,0.2869,0.4474,0.4474,0.7339,0.9045,0.9305,0.9515,0.9894,1.0569,1.0517,1.0695,1.1029,1.0819,1.0591,1.0452,1.0259,0.9927,0.9455,0.9655,0.9389,0.8917,0.8917,0.8784,0.859,0.859,0.859,0.859,0.0,0.0,0.0,0.0,0.0,0.0,-1.2935,-1.2807,-1.2705,0.0,-1.2427,-1.2192,-1.1953,-1.1876,-1.1876,-1.1876,-1.1876,-1.1953,-1.2108,-1.2185,-1.2347,-1.2501,-1.2501,-1.2501,-1.2501,-1.2501,-1.2501,-1.2501,-1.2501,-1.2501,-1.2501,-1.2488,-1.2323,-1.1954,-1.0358,-0.9107,-0.8113,-0.481,-0.3119,-0.2612,-0.2612,-0.1575,0.0,0.0,0.0,0.0,0.0,0.0,0.0,0.0,-0.0216,-0.0801,-0.2182,-0.2932,-0.3551,-0.502,-0.5506,-0.5706,-0.5706,-0.5712,-0.5716,-0.5709,-0.5887,0.0,-0.3849,-0.3596,-0.3276,-0.1532,-0.1168,-0.1241,-0.1241,-0.1241,-0.1314,-0.1314,-0.1314,-0.1532,-0.2187,-0.226,-0.226,-0.226,-0.1605,-0.1162,-0.1149,-0.043,0.0,0.0,0.0,0.0,0.0,0.2882,0.4496,0.4496,0.7375,0.8971,0.9155,0.9504,0.9918,1.0449,1.0531,1.075,1.1151,1.0853,1.0525,1.0193,1.0193,0.9721,0.9117,0.905,0.8851,0.859,0.859,0.859,0.859,0.859,0.859,0.859,0.0,0.0,0.0,0.0,0.0,0.0,-1.2773,-1.2644,-1.2549,-1.2549,-1.1346,-1.0008,-0.8604,-0.821,-0.7976,-0.7976,-0.7976,-0.8599,-0.992,-1.0314,-1.1095,-1.2424,-1.2501,-1.2501,-1.2501,-1.2501,-1.2501,-1.2501,-1.2501,-1.2501,-1.2501,-1.2386,-1.1555,-1.0202,-0.9404,-0.737,-0.4517,-0.3453,-0.2077,-0.0574,-0.0574,-0.0356,0.0,0.0,0.0,0.0,0.0,0.0,0.0,0.0,-0.0072,-0.0144,-0.0436,-0.0657,-0.0878,-0.1463,-0.1685,-0.1762,-0.2129,-0.2219,-0.2229,-0.2209,-0.2215,0.0,-0.1761,-0.1754,-0.1678,-0.1314,-0.1168,-0.1313,-0.1604,-0.1677,-0.175,-0.2041,-0.1822,-0.175,-0.1895,-0.1895,-0.1895,-0.1895,-0.1459,-0.1094,-0.0727,-0.0291,0.0,0.0,0.0,0.0,0.0,0.2962,0.4693,0.4693,0.7648,0.9247,0.9269,0.9341,0.9568,1.0017,1.011,1.0335,1.0737,1.0719,1.0525,1.0193,0.9927,0.9522,0.905,0.8784,0.8656,0.859,0.859,0.859,0.859,0.859,0.859,0.859,0.0,-1.2742,0.0,0.0,0.0,0.0,0.0,-1.1377,-1.0707,-1.0934,-0.9299,-0.7821,-0.6963,-0.6725,-0.657,-0.657,-0.657,-0.6959,-0.7816,-0.805,-0.8988,-1.0856,-1.0934,-1.1405,-1.2501,-1.2501,-1.2501,-1.2501,-1.2501,-1.2467,-1.2393,-1.2325,-1.1252,-0.9255,-0.8233,-0.6023,-0.3125,-0.2154,-0.1068,0.0,0.0,0.0,0.0,0.0,0.0,0.0,0.0,0.0,0.0,0.0,0.0,0.0,0.0,0.0,-0.0072,-0.0218,-0.0292,-0.0365,-0.0511,-0.0586,-0.0588,-0.0585,-0.0733,0.0,0.0,-0.073,-0.0876,-0.0657,-0.0584,-0.0657,-0.0875,-0.0875,-0.0948,-0.1094,-0.1021,-0.1021,-0.1459,-0.1532,-0.1532,-0.1532,-0.1167,-0.0803,-0.0584,-0.0219,0.0,0.0,0.0,0.0,0.0,0.2257,0.3857,0.4657,0.6978,0.8502,0.9302,0.9302,0.9518,0.9879,0.9976,1.0127,1.0323,1.045,1.0187,0.9655,0.9455,0.9189,0.8851,0.8656,0.859,0.859,0.859,0.859,0.859,0.859,0.859,0.859,-1.2635,-1.2298,0.0,0.0,0.0,0.0,0.0,0.0,-0.8283,-0.8361,-0.6878,-0.5708,-0.5399,-0.5243,-0.5165,-0.5165,-0.5165,-0.5321,-0.563,-0.5786,-0.6722,-0.875,-0.8828,-0.9609,-1.125,-1.1405,-1.1405,-1.1405,-1.1535,-1.1472,-1.1365,-1.1308,-1.011,-0.7989,-0.6639,-0.4687,-0.239,-0.1074,-0.0283,0.0,0.0,0.0,0.0,0.0,0.0,0.0,0.0,0.0,0.0,0.0,0.0,0.0,0.0,0.0,0.0,0.0,0.0,0.0,0.0,0.0,0.0,0.0,-0.0219,-0.0365,0.0,0.0,0.0,-0.0073,0.0,0.0,-0.0073,-0.0146,-0.0146,-0.022,-0.0146,-0.0365,-0.1025,-0.1024,-0.1022,-0.1313,-0.0876,-0.0584,-0.0584,-0.0219,0.0,0.0,0.0,0.0,0.0,0.1749,0.3348,0.4657,0.6471,0.8068,0.9302,0.9302,0.9446,0.9807,0.9836,0.992,0.9983,1.0053,0.9721,0.9117,0.9117,0.8917,0.859,0.859,0.859,0.859,0.859,0.859,0.859,0.859,0.859,0.859,-1.1467,-1.1454,-1.0892,0.0,0.0,0.0,0.0,0.0,-0.6098,-0.4618,-0.4227,-0.3525,-0.204,-0.1491,-0.1256,-0.1256,-0.1256,-0.1882,-0.3365,-0.3836,-0.4849,-0.6566,-0.6648,-0.6803,-0.7033,-0.7349,-0.7509,-0.7509,-0.7894,-0.808,-0.8067,-0.7888,-0.6755,-0.4815,-0.4175,-0.2752,-0.086,-0.0283,-0.007,0.0,0.0,0.0,0.0,0.0,0.0,0.0,0.0,0.0,0.0,0.0,0.0,0.0,0.0,0.0,0.0,0.0,0.0,0.0,0.0,0.0,0.0,0.0,0.0,-0.0073,0.0,0.0,-0.0073,0.0,0.0,-0.0073,-0.0438,0.0,0.0,-0.1036,-0.0735,-0.0586,-0.0667,-0.0368,-0.0511,-0.1604,-0.1094,-0.0584,-0.0584,-0.0219,0.0,0.0,0.0,0.0,0.0,0.2841,0.4511,0.4729,0.7485,0.9157,0.9302,0.9302,0.9302,0.9374,0.9484,0.9573,0.9567,0.9716,0.9522,0.9117,0.9117,0.8917,0.859,0.859,0.859,0.859,0.859,0.859,0.859,0.859,0.859,0.859,-0.9537,-0.962,-0.8915,-0.7271,0.0,0.0,0.0,0.0,-0.3758,-0.1881,-0.1568,-0.1334,-0.0628,-0.0393,-0.0236,-0.0236,-0.0236,-0.0549,-0.1254,-0.149,-0.2429,-0.4381,-0.4459,-0.5006,-0.6254,-0.6446,-0.6579,-0.6579,-0.6728,-0.674,-0.6612,-0.6541,-0.5455,-0.3445,-0.3279,-0.2095,-0.0215,-0.0071,0.0,0.0,0.0,0.0,0.0,0.0,0.0,0.0,0.0,0.0,0.0,0.0,0.0,0.0,0.0,0.0,0.0,0.0,0.0,0.0,0.0,0.0,0.0,0.0,0.0,0.0,0.0,0.0,0.0,0.0,0.0,0.0,0.0,0.0,0.0,0.0,-0.0368,-0.037,-0.0595,-0.0223,-0.0222,-0.0731,-0.0438,-0.0219,-0.0219,-0.0073,0.0,0.0,0.0,0.0,0.0,0.1239,0.2841,0.4657,0.5963,0.7489,0.9302,0.9302,0.9302,0.9302,0.9414,0.9365,0.9151,0.9305,0.9189,0.8784,0.8784,0.8717,0.859,0.859,0.859,0.859,0.859,0.859,0.859,0.859,0.859,0.859,-0.6803,-0.7197,-0.6729,-0.5008,0.0,0.0,0.0,0.0,-0.1724,-0.0236,0.0,0.0,0.0,0.0,0.0,0.0,0.0,0.0,0.0,0.0,-0.0699,-0.2172,-0.225,-0.2946,-0.4572,-0.4686,-0.4741,-0.4741,-0.4834,-0.4854,-0.4662,-0.4719,-0.3813,-0.2256,-0.2248,-0.1438,0.0,0.0,0.0,0.0,0.0,0.0,0.0,0.0,0.0,0.0,0.0,0.0,0.0,0.0,0.0,0.0,0.0,0.0,0.0,0.0,0.0,0.0,0.0,0.0,0.0,0.0,0.0,0.0,0.0,0.0,0.0,0.0,0.0,0.0,0.0,0.0,0.0,0.0,0.0,-0.0074,-0.0374,-0.0151,-0.0075,-0.0296,-0.0221,-0.0147,0.0,0.0,0.0,0.0,0.0,0.0,0.0,0.0365,0.1894,0.4584,0.5093,0.6616,0.9302,0.9302,0.9302,0.9302,0.9344,0.9157,0.8874,0.8968,0.8851,0.859,0.859,0.859,0.859,0.859,0.859,0.859,0.859,0.859,0.859,0.859,0.859,0.859,-0.2977,-0.3994,-0.4544,-0.2899,-0.2585,-0.2038,0.0,-0.0157,-0.0079,0.0,0.0,0.0,0.0,0.0,0.0,0.0,0.0,0.0,0.0,0.0,0.0,-0.0076,-0.0076,-0.0152,-0.0227,-0.0606,-0.0758,-0.0758,-0.1196,-0.1338,-0.1337,-0.1321,-0.1095,-0.0656,-0.0648,-0.0426,0.0,0.0,0.0,0.0,0.0,0.0,0.0,0.0,0.0,0.0,0.0,0.0,0.0,0.0,0.0,0.0,0.0,0.0,0.0,0.0,0.0,0.0,0.0,0.0,0.0,0.0,0.0,0.0,0.0,0.0,0.0,0.0,0.0,0.0,0.0,0.0,0.0,0.0,0.0,0.0,0.0,0.0,-0.0303,-0.1059,-0.0824,-0.0446,-0.0074,0.0,0.0,0.0,0.0,0.0,0.0,0.1384,0.2983,0.4657,0.6181,0.7706,0.9302,0.9302,0.9302,0.9302,0.9063,0.8884,0.8874,0.8698,0.859,0.859,0.859,0.859,0.859,0.859,0.859,0.859,0.859,0.859,0.859,0.859,0.859,0.859,-0.0942,-0.1334,-0.149,-0.0942,-0.0863,-0.0628,-0.0079,0.0,0.0,0.0,0.0,0.0,0.0,0.0,0.0,0.0,0.0,0.0,0.0,0.0,0.0,0.0,0.0,0.0,0.0,-0.015,-0.0224,-0.0224,-0.0369,-0.0441,0.0,0.0,0.0,-0.0219,-0.0216,-0.0142,0.0,0.0,0.0,0.0,0.0,0.0,0.0,0.0,0.0,0.0,0.0,0.0,0.0,0.0,0.0,0.0,0.0,0.0,0.0,0.0,0.0,0.0,0.0,0.0,0.0,0.0,0.0,0.0,0.0,0.0,0.0,0.0,0.0,0.0,0.0,0.0,0.0,0.0,0.0,0.0,0.0,0.0,-0.0078,-0.0388,-0.0305,-0.015,0.0,0.0,0.0,0.0,0.0,0.0,0.0,0.0511,0.1967,0.4584,0.5238,0.6688,0.9302,0.9302,0.9302,0.9302,0.8992,0.8884,0.8874,0.8698,0.859,0.859,0.859,0.859,0.859,0.859,0.859,0.859,0.859,0.859,0.859,0.859,0.859,0.859,0.0,0.0,0.0,0.0,0.0,0.0,0.0,0.0,0.0,0.0,0.0,0.0,0.0,0.0,0.0,0.0,0.0,0.0,0.0,0.0,0.0,0.0,0.0,0.0,0.0,0.0,0.0,0.0,0.0,0.0,0.0,0.0,0.0,0.0,0.0,0.0,0.0,0.0,0.0,0.0,0.0,0.0,0.0,0.0,0.0,0.0,0.0,0.0,0.0,0.0,0.0,0.0,0.0,0.0,0.0,0.0,0.0,0.0,0.0,0.0,0.0,0.0,0.0,0.0,0.0,0.0,0.0,0.0,0.0,0.0,0.0,0.0,0.0,0.0,0.0,0.0,0.0,0.0,0.0,0.0,0.0,0.0,0.0,0.0,0.0,0.0,0.0,0.0,0.0,0.0,0.1166,0.3785,0.4366,0.5891,0.843,0.9013,0.9285,0.9242,0.8976,0.8857,0.8878,0.8677,0.859,0.859,0.859,0.859,0.859,0.859,0.859,0.859,0.859,0.859,0.859,0.859,0.859,0.859,0.0,0.0,0.0,0.0,0.0,0.0,0.0,0.0,0.0,0.0,0.0,0.0,0.0,0.0,0.0,0.0,0.0,0.0,0.0,0.0,0.0,0.0,0.0,0.0,0.0,0.0,0.0,0.0,0.0,0.0,0.0,0.0,0.0,0.0,0.0,0.0,0.0,0.0,0.0,0.0,0.0,0.0,0.0,0.0,0.0,0.0,0.0,0.0,0.0,0.0,0.0,0.0,0.0,0.0,0.0,0.0,0.0,0.0,0.0,0.0,0.0,0.0,0.0,0.0,0.0,0.0,0.0,0.0,0.0,0.0,0.0,0.0,0.0,0.0,0.0,0.0,0.0,0.0,0.0,0.0,0.0,0.0,0.0,0.0,0.0,0.0,0.0,0.0,0.0,0.0,0.0729,0.2256,0.3857,0.5456,0.6978,0.8507,0.9247,0.9133,0.8938,0.8889,0.8764,0.8644,0.859,0.859,0.859,0.859,0.859,0.859,0.859,0.859,0.859,0.859,0.859,0.859,0.859,0.859,0.0,0.0,0.0,0.0,0.0,0.0,0.0,0.0,0.0,0.0,0.0,0.0,0.0,0.0,0.0,0.0,0.0,0.0,0.0,0.0,0.0,0.0,0.0,0.0,0.0,0.0,0.0,0.0,0.0,0.0,0.0,0.0,0.0,0.0,0.0,0.0,0.0,0.0,0.0,0.0,0.0,0.0,0.0,0.0,0.0,0.0,0.0,0.0,0.0,0.0,0.0,0.0,0.0,0.0,0.0,0.0,0.0,0.0,0.0,0.0,0.0,0.0,0.0,0.0,0.0,0.0,0.0,0.0,0.0,0.0,0.0,0.0,0.0,0.0,0.0,0.0,0.0,0.0,0.0,0.0,0.0,0.0,0.0,0.0,0.0,0.0,0.0,0.0,0.0,0.0,0.0729,0.2256,0.3857,0.5456,0.6978,0.8507,0.9247,0.9133,0.8938,0.8889,0.8764,0.8644,0.859,0.859,0.859,0.859,0.859,0.859,0.859,0.859,0.859,0.859,0.859,0.859,0.859,0.859,0.0,0.0,0.0,0.0,0.0,0.0,0.0,0.0,0.0,0.0,0.0,0.0,0.0,0.0,0.0,0.0,0.0,0.0,0.0,0.0,0.0,0.0,0.0,0.0,0.0,0.0,0.0,0.0,0.0,0.0,0.0,0.0,0.0,0.0,0.0,0.0,0.0,0.0,0.0,0.0,0.0,0.0,0.0,0.0,0.0,0.0,0.0,0.0,0.0,0.0,0.0,0.0,0.0,0.0,0.0,0.0,0.0,0.0,0.0,0.0,0.0,0.0,0.0,0.0,0.0,0.0,0.0,0.0,0.0,0.0,0.0,0.0,0.0,0.0,0.0,0.0,0.0,0.0,0.0,0.0,0.0,0.0,0.0,0.0,0.0,0.0,0.0,0.0,0.0,0.0,0.0365,0.1239,0.2839,0.4436,0.5963,0.7557,0.8571,0.8981,0.8917,0.8861,0.8687,0.8617,0.859,0.859,0.859,0.859,0.859,0.859,0.859,0.859,0.859,0.859,0.859,0.859,0.859,0.859,0.0,0.0,0.0,0.0,0.0,0.0,0.0,0.0,0.0,0.0,0.0,0.0,0.0,0.0,0.0,0.0,0.0,0.0,0.0,0.0,0.0,0.0,0.0,0.0,0.0,0.0,0.0,0.0,0.0,0.0,0.0,0.0,0.0,0.0,0.0,0.0,0.0,0.0,0.0,0.0,0.0,0.0,0.0,0.0,0.0,0.0,0.0,0.0,0.0,0.0,0.0,0.0,0.0,0.0,0.0,0.0,0.0,0.0,0.0,0.0,0.0,0.0,0.0,0.0,0.0,0.0,0.0,0.0,0.0,0.0,0.0,0.0,0.0,0.0,0.0,0.0,0.0,0.0,0.0,0.0,0.0,0.0,0.0,0.0,0.0,0.0,0.0,0.0,0.0,0.0,0.0,0.0,0.153,0.2983,0.4366,0.6108,0.7536,0.8601,0.8809,0.8823,0.859,0.859,0.859,0.859,0.859,0.859,0.859,0.859,0.859,0.859,0.859,0.859,0.859,0.859,0.859,0.859,0.0,0.0,0.0,0.0,0.0,0.0,0.0,0.0,0.0,0.0,0.0,0.0,0.0,0.0,0.0,0.0,0.0,0.0,0.0,0.0,0.0,0.0,0.0,0.0,0.0,0.0,0.0,0.0,0.0,0.0,0.0,0.0,0.0,0.0,0.0,0.0,0.0,0.0,0.0,0.0,0.0,0.0,0.0,0.0,0.0,0.0,0.0,0.0,0.0,0.0,0.0,0.0,0.0,0.0,0.0,0.0,0.0,0.0,0.0,0.0,0.0,0.0,0.0,0.0,0.0,0.0,0.0,0.0,0.0,0.0,0.0,0.0,0.0,0.0,0.0,0.0,0.0,0.0,0.0,0.0,0.0,0.0,0.0,0.0,0.0,0.0,0.0,0.0,0.0,0.0,0.0,0.0,0.153,0.2401,0.2692,0.5597,0.7031,0.6987,0.8318,0.8823,0.859,0.859,0.859,0.859,0.859,0.859,0.859,0.859,0.859,0.859,0.859,0.859,0.859,0.859,0.859,0.859,0.0,0.0,0.0,0.0,0.0,0.0,0.0,0.0,0.0,0.0,0.0,0.0,0.0,0.0,0.0,0.0,0.0,0.0,0.0,0.0,0.0,0.0,0.0,0.0,0.0,0.0,0.0,0.0,0.0,0.0,0.0,0.0,0.0,0.0,0.0,0.0,0.0,0.0,0.0,0.0,0.0,0.0,0.0,0.0,0.0,0.0,0.0,0.0,0.0,0.0,0.0,0.0,0.0,0.0,0.0,0.0,0.0,0.0,0.0,0.0,0.0,0.0,0.0,0.0,0.0,0.0,0.0,0.0,0.0,0.0,0.0,0.0,0.0,0.0,0.0,0.0,0.0,0.0,0.0,0.0,0.0,0.0,0.0,0.0,0.0,0.0,0.0,0.0,0.0,0.0,0.0,0.0,0.0729,0.1457,0.2257,0.4552,0.5987,0.6635,0.8119,0.8764,0.859,0.859,0.859,0.859,0.859,0.859,0.859,0.859,0.859,0.859,0.859,0.859,0.859,0.859,0.859,0.859,0.0,0.0,0.0,0.0,0.0,0.0,0.0,0.0,0.0,0.0,0.0,0.0,0.0,0.0,0.0,0.0,0.0,0.0,0.0,0.0,0.0,0.0,0.0,0.0,0.0,0.0,0.0,0.0,0.0,0.0,0.0,0.0,0.0,0.0,0.0,0.0,0.0,0.0,0.0,0.0,0.0,0.0,0.0,0.0,0.0,0.0,0.0,0.0,0.0,0.0,0.0,0.0,0.0,0.0,0.0,0.0,0.0,0.0,0.0,0.0,0.0,0.0,0.0,0.0,0.0,0.0,0.0,0.0,0.0,0.0,0.0,0.0,0.0,0.0,0.0,0.0,0.0,0.0,0.0,0.0,0.0,0.0,0.0,0.0,0.0,0.0,0.0,0.0,0.0,0.0,0.0,0.0,0.0,0.0583,0.182,0.359,0.5029,0.6148,0.7927,0.8704,0.859,0.859,0.859,0.859,0.859,0.859,0.859,0.859,0.859,0.859,0.859,0.859,0.859,0.859,0.859,0.859,0.0,0.0,0.0,0.0,0.0,0.0,0.0,0.0,0.0,0.0,0.0,0.0,0.0,0.0,0.0,0.0,0.0,0.0,0.0,0.0,0.0,0.0,0.0,0.0,0.0,0.0,0.0,0.0,0.0,0.0,0.0,0.0,0.0,0.0,0.0,0.0,0.0,0.0,0.0,0.0,0.0,0.0,0.0,0.0,0.0,0.0,0.0,0.0,0.0,0.0,0.0,0.0,0.0,0.0,0.0,0.0,0.0,0.0,0.0,0.0,0.0,0.0,0.0,0.0,0.0,0.0,0.0,0.0,0.0,0.0,0.0,0.0,0.0,0.0,0.0,0.0,0.0,0.0,0.0,0.0,0.0,0.0,0.0,0.0,0.0,0.0,0.0,0.0,0.0,0.0,0.0,0.0,0.0,0.0073,0.0219,0.309,0.4534,0.4544,0.7447,0.8704,0.859,0.859,0.859,0.859,0.859,0.859,0.859,0.859,0.859,0.859,0.859,0.859,0.859,0.859,0.859,0.859,0.0,0.0,0.0,0.0,0.0,0.0,0.0,0.0,0.0,0.0,0.0,0.0,0.0,0.0,0.0,0.0,0.0,0.0,0.0,0.0,0.0,0.0,0.0,0.0,0.0,0.0,0.0,0.0,0.0,0.0,0.0,0.0,0.0,0.0,0.0,0.0,0.0,0.0,0.0,0.0,0.0,0.0,0.0,0.0,0.0,0.0,0.0,0.0,0.0,0.0,0.0,0.0,0.0,0.0,0.0,0.0,0.0,0.0,0.0,0.0,0.0,0.0,0.0,0.0,0.0,0.0,0.0,0.0,0.0,0.0,0.0,0.0,0.0,0.0,0.0,0.0,0.0,0.0,0.0,0.0,0.0,0.0,0.0,0.0,0.0,0.0,0.0,0.0,0.0,0.0,0.0,0.0,0.0,0.0436,0.1224,0.3337,0.4759,0.5594,0.7694,0.8633,0.859,0.859,0.859,0.859,0.859,0.859,0.859,0.859,0.859,0.859,0.859,0.859,0.859,0.859,0.859,0.859,0.0,0.0,0.0,0.0,0.0,0.0,0.0,0.0,0.0,0.0,0.0,0.0,0.0,0.0,0.0,0.0,0.0,0.0,0.0,0.0,0.0,0.0,0.0,0.0,0.0,0.0,0.0,0.0,0.0,0.0,0.0,0.0,0.0,0.0,0.0,0.0,0.0,0.0,0.0,0.0,0.0,0.0,0.0,0.0,0.0,0.0,0.0,0.0,0.0,0.0,0.0,0.0,0.0,0.0,0.0,0.0,0.0,0.0,0.0,0.0,0.0,0.0,0.0,0.0,0.0,0.0,0.0,0.0,0.0,0.0,0.0,0.0,0.0,0.0,0.0,0.0,0.0,0.0,0.0,0.0,0.0,0.0,0.0,0.0,0.0,0.0,0.0,0.0,0.0,0.0,0.0,0.0,0.0,0.0652,0.2069,0.359,0.4999,0.6441,0.79,0.859,0.859,0.859,0.859,0.859,0.859,0.859,0.859,0.859,0.859,0.859,0.859,0.859,0.859,0.859,0.859,0.859,0.0,0.0,0.0,0.0,0.0,0.0,0.0,0.0,0.0,0.0,0.0,0.0,0.0,0.0,0.0,0.0,0.0,0.0,0.0,0.0,0.0,0.0,0.0,0.0,0.0,0.0,0.0,0.0,0.0,0.0,0.0,0.0,0.0,0.0,0.0,0.0,0.0,0.0,0.0,0.0,0.0,0.0,0.0,0.0,0.0,0.0,0.0,0.0,0.0,0.0,0.0,0.0,0.0,0.0,0.0,0.0,0.0,0.0,0.0,0.0,0.0,0.0,0.0,0.0,0.0,0.0,0.0,0.0,0.0,0.0,0.0,0.0,0.0,0.0,0.0,0.0,0.0,0.0,0.0,0.0,0.0,0.0,0.0,0.0,0.0,0.0,0.0,0.0,0.0,0.0,0.0,0.0,0.0,0.0652,0.2069,0.359,0.4999,0.6441,0.79,0.859,0.859,0.859,0.859,0.859,0.859,0.859,0.859,0.859,0.859,0.859,0.859,0.859,0.859,0.859,0.859,0.859,0.0,0.0,0.0,0.0,0.0,0.0,0.0,0.0,0.0,0.0,0.0,0.0,0.0,0.0,0.0,0.0,0.0,0.0,0.0,0.0,0.0,0.0,0.0,0.0,0.0,0.0,0.0,0.0,0.0,0.0,0.0,0.0,0.0,0.0,0.0,0.0,0.0,0.0,0.0,0.0,0.0,0.0,0.0,0.0,0.0,0.0,0.0,0.0,0.0,0.0,0.0,0.0,0.0,0.0,0.0,0.0,0.0,0.0,0.0,0.0,0.0,0.0,0.0,0.0,0.0,0.0,0.0,0.0,0.0,0.0,0.0,0.0,0.0,0.0,0.0,0.0,0.0,0.0,0.0,0.0,0.0,0.0,0.0,0.0,0.0,0.0,0.0,0.0,0.0,0.0,0.0,0.0,0.0,0.1143,0.359,0.4095,0.5478,0.79,0.8405,0.859,0.859,0.859,0.859,0.859,0.859,0.859,0.859,0.859,0.859,0.859,0.859,0.859,0.859,0.859,0.859,0.859,0.0,0.0,0.0,0.0,0.0,0.0,0.0,0.0,0.0,0.0,0.0,0.0,0.0,0.0,0.0,0.0,0.0,0.0,0.0,0.0,0.0,0.0,0.0,0.0,0.0,0.0,0.0,0.0,0.0,0.0,0.0,0.0,0.0,0.0,0.0,0.0,0.0,0.0,0.0,0.0,0.0,0.0,0.0,0.0,0.0,0.0,0.0,0.0,0.0,0.0,0.0,0.0,0.0,0.0,0.0,0.0,0.0,0.0,0.0,0.0,0.0,0.0,0.0,0.0,0.0,0.0,0.0,0.0,0.0,0.0,0.0,0.0,0.0,0.0,0.0,0.0,0.0,0.0,0.0,0.0,0.0,0.0,0.0,0.0,0.0,0.0,0.0,0.0,0.0,0.0,0.0,0.0,0.0,0.1349,0.4265,0.4277,0.5779,0.859,0.859,0.859,0.859,0.859,0.859,0.859,0.859,0.859,0.859,0.859,0.859,0.859,0.859,0.859,0.859,0.859,0.859,0.859,0.0,0.0,0.0,0.0,0.0,0.0,0.0,0.0,0.0,0.0,0.0,0.0,0.0,0.0,0.0,0.0,0.0,0.0,0.0,0.0,0.0,0.0,0.0,0.0,0.0,0.0,0.0,0.0,0.0,0.0,0.0,0.0,0.0,0.0,0.0,0.0,0.0,0.0,0.0,0.0,0.0,0.0,0.0,0.0,0.0,0.0,0.0,0.0,0.0,0.0,0.0,0.0,0.0,0.0,0.0,0.0,0.0,0.0,0.0,0.0,0.0,0.0,0.0,0.0,0.0,0.0,0.0,0.0,0.0,0.0,0.0,0.0,0.0,0.0,0.0,0.0,0.0,0.0,0.0,0.0,0.0,0.0,0.0,0.0,0.0,0.0,0.0,0.0,0.0,0.0,0.0,0.0,0.0072,0.1489,0.426,0.4409,0.5844,0.859,0.859,0.859,0.859,0.859,0.859,0.859,0.859,0.859,0.859,0.859,0.859,0.859,0.859,0.859,0.859,0.859,0.859,0.859,0.0,0.0,0.0,0.0,0.0,0.0,0.0,0.0,0.0,0.0,0.0,0.0,0.0,0.0,0.0,0.0,0.0,0.0,0.0,0.0,0.0,0.0,0.0,0.0,0.0,0.0,0.0,0.0,0.0,0.0,0.0,0.0,0.0,0.0,0.0,0.0,0.0,0.0,0.0,0.0,0.0,0.0,0.0,0.0,0.0,0.0,0.0,0.0,0.0,0.0,0.0,0.0,0.0,0.0,0.0,0.0,0.0,0.0,0.0,0.0,0.0,0.0,0.0,0.0,0.0,0.0,0.0,0.0,0.0,0.0,0.0,0.0,0.0,0.0,0.0,0.0,0.0,0.0,0.0,0.0,0.0,0.0,0.0,0.0,0.0,0.0,0.0,0.0,0.0,0.0,0.0,0.0,0.1064,0.2447,0.4269,0.5362,0.6799,0.859,0.859,0.859,0.859,0.859,0.859,0.859,0.859,0.859,0.859,0.859,0.859,0.859,0.859,0.859,0.859,0.859,0.859,0.859,0.0,0.0,0.0,0.0,0.0,0.0,0.0,0.0,0.0,0.0,0.0,0.0,0.0,0.0,0.0,0.0,0.0,0.0,0.0,0.0,0.0,0.0,0.0,0.0,0.0,0.0,0.0,0.0,0.0,0.0,0.0,0.0,0.0,0.0,0.0,0.0,0.0,0.0,0.0,0.0,0.0,0.0,0.0,0.0,0.0,0.0,0.0,0.0,0.0,0.0,0.0,0.0,0.0,0.0,0.0,0.0,0.0,0.0,0.0,0.0,0.0,0.0,0.0,0.0,0.0,0.0,0.0,0.0,0.0,0.0,0.0,0.0,0.0,0.0,0.0,0.0,0.0,0.0,0.0,0.0,0.0,0.0,0.0,0.0,0.0,0.0,0.0,0.0,0.0,0.0,0.0,0.0,0.1333,0.2833,0.4316,0.6349,0.7784,0.859,0.859,0.859,0.859,0.859,0.859,0.859,0.859,0.859,0.859,0.859,0.859,0.859,0.859,0.859,0.859,0.859,0.859,0.859,0.0,0.0,0.0,0.0,0.0,0.0,0.0,0.0,0.0,0.0,0.0,0.0,0.0,0.0,0.0,0.0,0.0,0.0,0.0,0.0,0.0,0.0,0.0,0.0,0.0,0.0,0.0,0.0,0.0,0.0,0.0,0.0,0.0,0.0,0.0,0.0,0.0,0.0,0.0,0.0,0.0,0.0,0.0,0.0,0.0,0.0,0.0,0.0,0.0,0.0,0.0,0.0,0.0,0.0,0.0,0.0,0.0,0.0,0.0,0.0,0.0,0.0,0.0,0.0,0.0,0.0,0.0,0.0,0.0,0.0,0.0,0.0,0.0,0.0,0.0,0.0,0.0,0.0,0.0,0.0,0.0,0.0,0.0,0.0,0.0,0.0,0.0,0.0,0.0,0.0,0.0,0.0,0.1598,0.3219,0.4916,0.7354,0.859,0.859,0.859,0.859,0.859,0.859,0.859,0.859,0.859,0.859,0.859,0.859,0.859,0.859,0.859,0.859,0.859,0.859,0.859,0.859,0.0,0.0,0.0,0.0,0.0,0.0,0.0,0.0,0.0,0.0,0.0,0.0,0.0,0.0,0.0,0.0,0.0,0.0,0.0,0.0,0.0,0.0,0.0,0.0,0.0,0.0,0.0,0.0,0.0,0.0,0.0,0.0,0.0,0.0,0.0,0.0,0.0,0.0,0.0,0.0,0.0,0.0,0.0,0.0,0.0,0.0,0.0,0.0,0.0,0.0,0.0,0.0,0.0,0.0,0.0,0.0,0.0,0.0,0.0,0.0,0.0,0.0,0.0,0.0,0.0,0.0,0.0,0.0,0.0,0.0,0.0,0.0,0.0,0.0,0.0,0.0,0.0,0.0,0.0,0.0,0.0,0.0,0.0,0.0,0.0,0.0,0.0,0.0,0.0,0.0,0.0,0.0,0.2542,0.5243,0.7875,0.8395,0.859,0.859,0.859,0.859,0.859,0.859,0.859,0.859,0.859,0.859,0.859,0.859,0.859,0.859,0.859,0.859,0.859,0.859,0.859,0.86,0.0,0.0,0.0,0.0,0.0,0.0,0.0,0.0,0.0,0.0,0.0,0.0,0.0,0.0,0.0,0.0,0.0,0.0,0.0,0.0,0.0,0.0,0.0,0.0,0.0,0.0,0.0,0.0,0.0,0.0,0.0,0.0,0.0,0.0,0.0,0.0,0.0,0.0,0.0,0.0,0.0,0.0,0.0,0.0,0.0,0.0,0.0,0.0,0.0,0.0,0.0,0.0,0.0,0.0,0.0,0.0,0.0,0.0,0.0,0.0,0.0,0.0,0.0,0.0,0.0,0.0,0.0,0.0,0.0,0.0,0.0,0.0,0.0,0.0,0.0,0.0,0.0,0.0,0.0,0.0,0.0,0.0,0.0,0.0,0.0,0.0,0.0,0.0,0.0,0.0,0.0,0.0,0.2791,0.5669,0.859,0.859,0.859,0.859,0.859,0.859,0.859,0.859,0.859,0.859,0.859,0.859,0.859,0.859,0.859,0.859,0.859,0.8628,0.8687,0.8687,0.8725,0.8791,0.0,0.0,0.0,0.0,0.0,0.0,0.0,0.0,0.0,0.0,0.0,0.0,0.0,0.0,0.0,0.0,0.0,0.0,0.0,0.0,0.0,0.0,0.0,0.0,0.0,0.0,0.0,0.0,0.0,0.0,0.0,0.0,0.0,0.0,0.0,0.0,0.0,0.0,0.0,0.0,0.0,0.0,0.0,0.0,0.0,0.0,0.0,0.0,0.0,0.0,0.0,0.0,0.0,0.0,0.0,0.0,0.0,0.0,0.0,0.0,0.0,0.0,0.0,0.0,0.0,0.0,0.0,0.0,0.0,0.0,0.0,0.0,0.0,0.0,0.0,0.0,0.0,0.0,0.0,0.0,0.0,0.0,0.0,0.0,0.0,0.0,0.0,0.0,0.0,0.0,0.0279,0.0962,0.3179,0.57,0.8584,0.859,0.859,0.859,0.859,0.859,0.859,0.859,0.859,0.859,0.859,0.859,0.859,0.859,0.8606,0.8628,0.8628,0.8704,0.8812,0.8812,0.8872,0.8884,0.0,0.0,0.0,0.0,0.0,0.0,0.0,0.0,0.0,0.0,0.0,0.0,0.0,0.0,0.0,0.0,0.0,0.0,0.0,0.0,0.0,0.0,0.0,0.0,0.0,0.0,0.0,0.0,0.0,0.0,0.0,0.0,0.0,0.0,0.0,0.0,0.0,0.0,0.0,0.0,0.0,0.0,0.0,0.0,0.0,0.0,0.0,0.0,0.0,0.0,0.0,0.0,0.0,0.0,0.0,0.0,0.0,0.0,0.0,0.0,0.0,0.0,0.0,0.0,0.0,0.0,0.0,0.0,0.0,0.0,0.0,0.0,0.0,0.0,0.0,0.0,0.0,0.0,0.0,0.0,0.0,0.0,0.0,0.0,0.0,0.0,0.0,0.0,0.0,0.0,0.1253,0.3908,0.4189,0.57,0.8584,0.859,0.859,0.859,0.859,0.859,0.859,0.859,0.859,0.859,0.859,0.859,0.859,0.859,0.8655,0.8758,0.8758,0.8834,0.8868,0.8868,0.8874,0.89,0.0,0.0,0.0,0.0,0.0,0.0,0.0,0.0,0.0,0.0,0.0,0.0,0.0,0.0,0.0,0.0,0.0,0.0,0.0,0.0,0.0,0.0,0.0,0.0,0.0,0.0,0.0,0.0,0.0,0.0,0.0,0.0,0.0,0.0,0.0,0.0,0.0,0.0,0.0,0.0,0.0,0.0,0.0,0.0,0.0,0.0,0.0,0.0,0.0,0.0,0.0,0.0,0.0,0.0,0.0,0.0,0.0,0.0,0.0,0.0,0.0,0.0,0.0,0.0,0.0,0.0,0.0,0.0,0.0,0.0,0.0,0.0,0.0,0.0,0.0,0.0,0.0,0.0,0.0,0.0,0.0,0.0,0.0,0.0,0.0,0.0,0.0,0.0,0.0,0.0,0.1328,0.4303,0.442,0.5733,0.859,0.859,0.859,0.859,0.859,0.859,0.859,0.859,0.859,0.859,0.859,0.8633,0.8704,0.8704,0.8774,0.8883,0.8883,0.8959,0.8998,0.8998,0.8998,0.9003,0.0,0.0,0.0,0.0,0.0,0.0,0.0,0.0,0.0,0.0,0.0,0.0,0.0,0.0,0.0,0.0,0.0,0.0,0.0,0.0,0.0,0.0,0.0,0.0,0.0,0.0,0.0,0.0,0.0,0.0,0.0,0.0,0.0,0.0,0.0,0.0,0.0,0.0,0.0,0.0,0.0,0.0,0.0,0.0,0.0,0.0,0.0,0.0,0.0,0.0,0.0,0.0,0.0,0.0,0.0,0.0,0.0,0.0,0.0,0.0,0.0,0.0,0.0,0.0,0.0,0.0,0.0,0.0,0.0,0.0,0.0,0.0,0.0,0.0,0.0,0.0,0.0,0.0,0.0,0.0,0.0,0.0,0.0,0.0,0.0,0.0,0.0,0.0,0.0,0.0,0.1416,0.4434,0.4504,0.5844,0.8636,0.8704,0.8704,0.8704,0.8704,0.8704,0.8704,0.8704,0.8704,0.8704,0.8704,0.8753,0.8829,0.8829,0.8899,0.8938,0.8938,0.9014,0.9182,0.915,0.9133,0.9128,0.0,0.0,0.0,0.0,0.0,0.0,0.0,0.0,0.0,0.0,0.0,0.0,0.0,0.0,0.0,0.0,0.0,0.0,0.0,0.0,0.0,0.0,0.0,0.0,0.0,0.0,0.0,0.0,0.0,0.0,0.0,0.0,0.0,0.0,0.0,0.0,0.0,0.0,0.0,0.0,0.0,0.0,0.0,0.0,0.0,0.0,0.0,0.0,0.0,0.0,0.0,0.0,0.0,0.0,0.0,0.0,0.0,0.0,0.0,0.0,0.0,0.0,0.0,0.0,0.0,0.0,0.0,0.0,0.0,0.0,0.0,0.0,0.0,0.0,0.0,0.0,0.0,0.0,0.0,0.0,0.0,0.0,0.0,0.0,0.0,0.0,0.0,0.0,0.0,0.0,0.1376,0.4427,0.4496,0.5955,0.8884,0.8884,0.8884,0.8884,0.8884,0.8884,0.8884,0.8884,0.8884,0.8884,0.8884,0.8884,0.8884,0.8884,0.8954,0.9133,0.9133,0.9204,0.9291,0.9177,0.9133,0.9046,0.0,0.0,0.0,0.0,0.0,0.0,0.0,0.0,0.0,0.0,0.0,0.0,0.0,0.0,0.0,0.0,0.0,0.0,0.0,0.0,0.0,0.0,0.0,0.0,0.0,0.0,0.0,0.0,0.0,0.0,0.0,0.0,0.0,0.0,0.0,0.0,0.0,0.0,0.0,0.0,0.0,0.0,0.0,0.0,0.0,0.0,0.0,0.0,0.0,0.0,0.0,0.0,0.0,0.0,0.0,0.0,0.0,0.0,0.0,0.0,0.0,0.0,0.0,0.0,0.0,0.0,0.0,0.0,0.0,0.0,0.0,0.0,0.0,0.0,0.0,0.0,0.0,0.0,0.0,0.0,0.0,0.0,0.0,0.0,0.0,0.0,0.0,0.0438,0.153,0.1603,0.305,0.6145,0.6289,0.7212,0.9127,0.8965,0.8884,0.8884,0.8884,0.8884,0.8884,0.8884,0.8884,0.8884,0.8884,0.8933,0.9008,0.9008,0.915,0.9253,0.9253,0.9226,0.9182,0.915,0.9024,0.8872,0.0,0.0,0.0,0.0,0.0,0.0,0.0,0.0,0.0,0.0,0.0,0.0,0.0,0.0,0.0,0.0,0.0,0.0,0.0,0.0,0.0,0.0,0.0,0.0,0.0,0.0,0.0,0.0,0.0,0.0,0.0,0.0,0.0,0.0,0.0,0.0,0.0,0.0,0.0,0.0,0.0,0.0,0.0,0.0,0.0,0.0,0.0,0.0,0.0,0.0,0.0,0.0,0.0,0.0,0.0,0.0,0.0,0.0,0.0,0.0,0.0,0.0,0.0,0.0,0.0,0.0,0.0,0.0,0.0,0.0,0.0,0.0,0.0,0.0,0.0,0.0,0.0,0.0,0.0,0.0,0.0,0.0,0.0,0.0,0.0,0.0,0.0,0.0438,0.1311,0.1384,0.2839,0.5963,0.6108,0.7123,0.9302,0.916,0.909,0.909,0.909,0.909,0.909,0.909,0.909,0.909,0.909,0.9133,0.9198,0.9198,0.9242,0.9302,0.9253,0.9193,0.9122,0.9024,0.8894,0.8764,0.0,0.0,0.0,0.0,0.0,0.0,0.0,0.0,0.0,0.0,0.0,0.0,0.0,0.0,0.0,0.0,0.0,0.0,0.0,0.0,0.0,0.0,0.0,0.0,0.0,0.0,0.0,0.0,0.0,0.0,0.0,0.0,0.0,0.0,0.0,0.0,0.0,0.0,0.0,0.0,0.0,0.0,0.0,0.0,0.0,0.0,0.0,0.0,0.0,0.0,0.0,0.0,0.0,0.0,0.0,0.0,0.0,0.0,0.0,0.0,0.0,0.0,0.0,0.0,0.0,0.0,0.0,0.0,0.0,0.0,0.0,0.0,0.0,0.0,0.0,0.0,0.0,0.0,0.0,0.0,0.0,0.0,0.0,0.0,0.0,0.0,0.0,0.0073,0.0219,0.0219,0.1676,0.4802,0.4875,0.6326,0.9302,0.9302,0.9302,0.9302,0.9302,0.9302,0.9302,0.9302,0.9302,0.9302,0.9302,0.9302,0.9302,0.9302,0.9296,0.928,0.9177,0.9122,0.9073,0.8851,0.8764,0.8736,0.0,0.0,0.0,0.0,0.0,0.0,0.0,0.0,0.0,0.0,0.0,0.0,0.0,0.0,0.0,0.0,0.0,0.0,0.0,0.0,0.0,0.0,0.0,0.0,0.0,0.0,0.0,0.0,0.0,0.0,0.0,0.0,0.0,0.0,0.0,0.0,0.0,0.0,0.0,0.0,0.0,0.0,0.0,0.0,0.0,0.0,0.0,0.0,0.0,0.0,0.0,0.0,0.0,0.0,0.0,0.0,0.0,0.0,0.0,0.0,0.0,0.0,0.0,0.0,0.0,0.0,0.0,0.0,0.0,0.0,0.0,0.0,0.0,0.0,0.0,0.0,0.0,0.0,0.0,0.0,0.0,0.0,0.0,0.0,0.0,0.0,0.0,0.051,0.1748,0.182,0.3274,0.6398,0.6471,0.7417,0.9302,0.9302,0.9302,0.9302,0.9302,0.9302,0.9302,0.9302,0.9302,0.9302,0.9302,0.9302,0.9302,0.9302,0.9253,0.9166,0.9144,0.9019,0.8845,0.8791,0.8709,0.8622,0.0,0.0,0.0,0.0,0.0,0.0,0.0,0.0,0.0,0.0,0.0,0.0,0.0,0.0,0.0,0.0,0.0,0.0,0.0,0.0,0.0,0.0,0.0,0.0,0.0,0.0,0.0,0.0,0.0,0.0,0.0,0.0,0.0,0.0,0.0,0.0,0.0,0.0,0.0,0.0,0.0,0.0,0.0,0.0,0.0,0.0,0.0,0.0,0.0,0.0,0.0,0.0,0.0,0.0,0.0,0.0,0.0,0.0,0.0,0.0,0.0,0.0,0.0,0.0,0.0,0.0,0.0,0.0,0.0,0.0,0.0,0.0,0.0,0.0,0.0,0.0,0.0,0.0,0.0,0.0,0.0,0.0,0.0,0.0,0.0,0.0,0.0,0.0365,0.1166,0.1239,0.2621,0.5818,0.5891,0.6978,0.9302,0.9302,0.9302,0.9302,0.9302,0.9302,0.9302,0.9302,0.9302,0.9302,0.9302,0.9302,0.9302,0.9302,0.9237,0.9128,0.8998,0.8932,0.8764,0.8704,0.8644,0.859,0.0,0.0,0.0,0.0,0.0,0.0,0.0,0.0,0.0,0.0,0.0,0.0,0.0,0.0,0.0,0.0,0.0,0.0,0.0,0.0,0.0,0.0,0.0,0.0,0.0,0.0,0.0,0.0,0.0,0.0,0.0,0.0,0.0,0.0,0.0,0.0,0.0,0.0,0.0,0.0,0.0,0.0,0.0,0.0,0.0,0.0,0.0,0.0,0.0,0.0,0.0,0.0,0.0,0.0,0.0,0.0,0.0,0.0,0.0,0.0,0.0,0.0,0.0,0.0,0.0,0.0,0.0,0.0,0.0,0.0,0.0,0.0,0.0,0.0,0.0,0.0,0.0,0.0,0.0,0.0,0.0,0.0,0.0,0.0,0.0,0.0,0.0,0.0,0.0,0.0219,0.1603,0.4221,0.4802,0.6326,0.8868,0.9157,0.9302,0.9302,0.9302,0.9302,0.9302,0.9302,0.9302,0.9302,0.9302,0.9302,0.9302,0.9302,0.9237,0.9052,0.8954,0.8894,0.8753,0.8633,0.859,0.859,0.0,0.0,0.0,0.0,0.0,0.0,0.0,0.0,0.0,0.0,0.0,0.0,0.0,0.0,0.0,0.0,0.0,0.0,0.0,0.0,0.0,0.0,0.0,0.0,0.0,0.0,0.0,0.0,0.0,0.0,0.0,0.0,0.0,0.0,0.0,0.0,0.0,0.0,0.0,0.0,0.0,0.0,0.0,0.0,0.0,0.0,0.0,0.0,0.0,0.0,0.0,0.0,0.0,0.0,0.0,0.0,0.0,0.0,0.0,0.0,0.0,0.0,0.0,0.0,0.0,0.0,0.0,0.0,0.0,0.0,0.0,0.0,0.0,0.0,0.0,0.0,0.0,0.0,0.0,0.0,0.0,0.0,0.0,0.0,0.0,0.0,0.0,0.0,0.0,0.1239,0.2184,0.2621,0.5235,0.6906,0.734,0.8652,0.9302,0.9302,0.9302,0.9302,0.9302,0.9302,0.9302,0.9302,0.9302,0.9302,0.9302,0.9302,0.9237,0.9133,0.9046,0.897,0.8753,0.8633,0.859,0.859,0.0,0.0,0.0,0.0,0.0,0.0,0.0,0.0,0.0,0.0,0.0,0.0,0.0,0.0,0.0,0.0,0.0,0.0,0.0,0.0,0.0,0.0,0.0,0.0,0.0,0.0,0.0,0.0,0.0,0.0,0.0,0.0,0.0,0.0,0.0,0.0,0.0,0.0,0.0,0.0,0.0,0.0,0.0,0.0,0.0,0.0,0.0,0.0,0.0,0.0,0.0,0.0,0.0,0.0,0.0,0.0,0.0,0.0,0.0,0.0,0.0,0.0,0.0,0.0,0.0,0.0,0.0,0.0,0.0,0.0,0.0,0.0,0.0,0.0,0.0,0.0,0.0,0.0,0.0,0.0,0.0,0.0,0.0,0.0,0.0,0.0,0.0,0.0,0.0,0.0656,0.1821,0.3567,0.502,0.6543,0.8285,0.8941,0.9302,0.9302,0.9302,0.9302,0.9302,0.9302,0.9302,0.9302,0.9302,0.9302,0.9302,0.9302,0.9237,0.9133,0.9133,0.9024,0.8856,0.8736,0.8731,0.878]}]]